<?xml version="1.0" encoding="UTF-8" standalone="no" ?>
<gpx xmlns="http://www.topografix.com/GPX/1/1" xmlns:xsi="http://www.w3.org/2001/XMLSchema-instance" xsi:schemaLocation="http://www.topografix.com/GPX/1/1 http://www.topografix.com/GPX/1/1/gpx.xsd" version="1.1" creator="VisuGPX - https://www.visugpx.com">
  <metadata>
    <name>Tour en Thur prkl</name>
  </metadata>
  <trk>
    <name><![CDATA[6 mai 2023 à 09:00:37]]></name>
    <extensions>
      <line xmlns="http://www.topografix.com/GPX/gpx_style/0/2">
        <color>0000FF</color>
        <width>4</width>
      </line>
    </extensions>
    <trkseg>
      <trkpt lat="47.79308" lon="7.09782">
        <ele>364</ele>
        <time>2023-05-06T07:00:37Z</time>
      </trkpt>
      <trkpt lat="47.79309" lon="7.09783">
        <ele>364</ele>
        <time>2023-05-06T07:00:38Z</time>
      </trkpt>
      <trkpt lat="47.79326" lon="7.09792">
        <ele>364</ele>
        <time>2023-05-06T07:00:52Z</time>
      </trkpt>
      <trkpt lat="47.7933" lon="7.09785">
        <ele>365</ele>
        <time>2023-05-06T07:01:00Z</time>
      </trkpt>
      <trkpt lat="47.79331" lon="7.09764">
        <ele>365</ele>
        <time>2023-05-06T07:01:12Z</time>
      </trkpt>
      <trkpt lat="47.79341" lon="7.09724">
        <ele>367</ele>
        <time>2023-05-06T07:01:37Z</time>
      </trkpt>
      <trkpt lat="47.79342" lon="7.09711">
        <ele>367</ele>
        <time>2023-05-06T07:01:45Z</time>
      </trkpt>
      <trkpt lat="47.79346" lon="7.09692">
        <ele>368</ele>
        <time>2023-05-06T07:01:57Z</time>
      </trkpt>
      <trkpt lat="47.79352" lon="7.09681">
        <ele>369</ele>
        <time>2023-05-06T07:02:05Z</time>
      </trkpt>
      <trkpt lat="47.79355" lon="7.09677">
        <ele>369</ele>
        <time>2023-05-06T07:02:09Z</time>
      </trkpt>
      <trkpt lat="47.7936" lon="7.09679">
        <ele>370</ele>
        <time>2023-05-06T07:02:13Z</time>
      </trkpt>
      <trkpt lat="47.79371" lon="7.09685">
        <ele>371</ele>
        <time>2023-05-06T07:02:27Z</time>
      </trkpt>
      <trkpt lat="47.79376" lon="7.09686">
        <ele>371</ele>
        <time>2023-05-06T07:02:30Z</time>
      </trkpt>
      <trkpt lat="47.79413" lon="7.09696">
        <ele>375</ele>
        <time>2023-05-06T07:03:02Z</time>
      </trkpt>
      <trkpt lat="47.79449" lon="7.0971">
        <ele>380</ele>
        <time>2023-05-06T07:03:37Z</time>
      </trkpt>
      <trkpt lat="47.79479" lon="7.09724">
        <ele>387</ele>
        <time>2023-05-06T07:04:08Z</time>
      </trkpt>
      <trkpt lat="47.79503" lon="7.09735">
        <ele>390</ele>
        <time>2023-05-06T07:04:30Z</time>
      </trkpt>
      <trkpt lat="47.79539" lon="7.09735">
        <ele>395</ele>
        <time>2023-05-06T07:05:04Z</time>
      </trkpt>
      <trkpt lat="47.79549" lon="7.09735">
        <ele>396</ele>
        <time>2023-05-06T07:05:12Z</time>
      </trkpt>
      <trkpt lat="47.79554" lon="7.09736">
        <ele>396</ele>
        <time>2023-05-06T07:05:16Z</time>
      </trkpt>
      <trkpt lat="47.79557" lon="7.09741">
        <ele>396</ele>
        <time>2023-05-06T07:05:20Z</time>
      </trkpt>
      <trkpt lat="47.7956" lon="7.09747">
        <ele>396</ele>
        <time>2023-05-06T07:05:24Z</time>
      </trkpt>
      <trkpt lat="47.79559" lon="7.09754">
        <ele>396</ele>
        <time>2023-05-06T07:05:28Z</time>
      </trkpt>
      <trkpt lat="47.79568" lon="7.09795">
        <ele>397</ele>
        <time>2023-05-06T07:05:50Z</time>
      </trkpt>
      <trkpt lat="47.79572" lon="7.09801">
        <ele>398</ele>
        <time>2023-05-06T07:05:55Z</time>
      </trkpt>
      <trkpt lat="47.79577" lon="7.09797">
        <ele>399</ele>
        <time>2023-05-06T07:06:05Z</time>
      </trkpt>
      <trkpt lat="47.79594" lon="7.09779">
        <ele>402</ele>
        <time>2023-05-06T07:06:26Z</time>
      </trkpt>
      <trkpt lat="47.796" lon="7.09779">
        <ele>402</ele>
        <time>2023-05-06T07:06:29Z</time>
      </trkpt>
      <trkpt lat="47.79622" lon="7.09805">
        <ele>404</ele>
        <time>2023-05-06T07:06:51Z</time>
      </trkpt>
      <trkpt lat="47.79631" lon="7.0981">
        <ele>404</ele>
        <time>2023-05-06T07:07:01Z</time>
      </trkpt>
      <trkpt lat="47.79662" lon="7.09847">
        <ele>407</ele>
        <time>2023-05-06T07:07:33Z</time>
      </trkpt>
      <trkpt lat="47.79673" lon="7.09867">
        <ele>408</ele>
        <time>2023-05-06T07:07:50Z</time>
      </trkpt>
      <trkpt lat="47.79696" lon="7.09888">
        <ele>409</ele>
        <time>2023-05-06T07:08:14Z</time>
      </trkpt>
      <trkpt lat="47.797" lon="7.0989">
        <ele>409</ele>
        <time>2023-05-06T07:08:17Z</time>
      </trkpt>
      <trkpt lat="47.79703" lon="7.09896">
        <ele>409</ele>
        <time>2023-05-06T07:08:20Z</time>
      </trkpt>
      <trkpt lat="47.79715" lon="7.09912">
        <ele>410</ele>
        <time>2023-05-06T07:08:35Z</time>
      </trkpt>
      <trkpt lat="47.79727" lon="7.09936">
        <ele>410</ele>
        <time>2023-05-06T07:08:49Z</time>
      </trkpt>
      <trkpt lat="47.79727" lon="7.09946">
        <ele>410</ele>
        <time>2023-05-06T07:08:57Z</time>
      </trkpt>
      <trkpt lat="47.7973" lon="7.09952">
        <ele>410</ele>
        <time>2023-05-06T07:09:01Z</time>
      </trkpt>
      <trkpt lat="47.79737" lon="7.09964">
        <ele>410</ele>
        <time>2023-05-06T07:09:09Z</time>
      </trkpt>
      <trkpt lat="47.79743" lon="7.09984">
        <ele>410</ele>
        <time>2023-05-06T07:09:22Z</time>
      </trkpt>
      <trkpt lat="47.79743" lon="7.09991">
        <ele>409</ele>
        <time>2023-05-06T07:09:26Z</time>
      </trkpt>
      <trkpt lat="47.79746" lon="7.09997">
        <ele>409</ele>
        <time>2023-05-06T07:09:30Z</time>
      </trkpt>
      <trkpt lat="47.79751" lon="7.09996">
        <ele>409</ele>
        <time>2023-05-06T07:09:36Z</time>
      </trkpt>
      <trkpt lat="47.79765" lon="7.09994">
        <ele>411</ele>
        <time>2023-05-06T07:09:49Z</time>
      </trkpt>
      <trkpt lat="47.79774" lon="7.09989">
        <ele>412</ele>
        <time>2023-05-06T07:09:58Z</time>
      </trkpt>
      <trkpt lat="47.79778" lon="7.09981">
        <ele>412</ele>
        <time>2023-05-06T07:10:04Z</time>
      </trkpt>
      <trkpt lat="47.79786" lon="7.09967">
        <ele>414</ele>
        <time>2023-05-06T07:10:17Z</time>
      </trkpt>
      <trkpt lat="47.79792" lon="7.09958">
        <ele>415</ele>
        <time>2023-05-06T07:10:26Z</time>
      </trkpt>
      <trkpt lat="47.79796" lon="7.09955">
        <ele>416</ele>
        <time>2023-05-06T07:10:31Z</time>
      </trkpt>
      <trkpt lat="47.79802" lon="7.09958">
        <ele>416</ele>
        <time>2023-05-06T07:10:35Z</time>
      </trkpt>
      <trkpt lat="47.79806" lon="7.09962">
        <ele>416</ele>
        <time>2023-05-06T07:10:38Z</time>
      </trkpt>
      <trkpt lat="47.79809" lon="7.09968">
        <ele>416</ele>
        <time>2023-05-06T07:10:41Z</time>
      </trkpt>
      <trkpt lat="47.79812" lon="7.09974">
        <ele>416</ele>
        <time>2023-05-06T07:10:46Z</time>
      </trkpt>
      <trkpt lat="47.79819" lon="7.09982">
        <ele>416</ele>
        <time>2023-05-06T07:10:54Z</time>
      </trkpt>
      <trkpt lat="47.79825" lon="7.09993">
        <ele>416</ele>
        <time>2023-05-06T07:11:03Z</time>
      </trkpt>
      <trkpt lat="47.7983" lon="7.09996">
        <ele>416</ele>
        <time>2023-05-06T07:11:07Z</time>
      </trkpt>
      <trkpt lat="47.79842" lon="7.10008">
        <ele>417</ele>
        <time>2023-05-06T07:11:19Z</time>
      </trkpt>
      <trkpt lat="47.79865" lon="7.10023">
        <ele>417</ele>
        <time>2023-05-06T07:11:43Z</time>
      </trkpt>
      <trkpt lat="47.79871" lon="7.10024">
        <ele>418</ele>
        <time>2023-05-06T07:11:48Z</time>
      </trkpt>
      <trkpt lat="47.79876" lon="7.10025">
        <ele>418</ele>
        <time>2023-05-06T07:11:52Z</time>
      </trkpt>
      <trkpt lat="47.79881" lon="7.10027">
        <ele>418</ele>
        <time>2023-05-06T07:11:56Z</time>
      </trkpt>
      <trkpt lat="47.79885" lon="7.1003">
        <ele>418</ele>
        <time>2023-05-06T07:12:01Z</time>
      </trkpt>
      <trkpt lat="47.79893" lon="7.10029">
        <ele>417</ele>
        <time>2023-05-06T07:12:09Z</time>
      </trkpt>
      <trkpt lat="47.79913" lon="7.1003">
        <ele>417</ele>
        <time>2023-05-06T07:12:27Z</time>
      </trkpt>
      <trkpt lat="47.79926" lon="7.10028">
        <ele>417</ele>
        <time>2023-05-06T07:12:38Z</time>
      </trkpt>
      <trkpt lat="47.79931" lon="7.10029">
        <ele>416</ele>
        <time>2023-05-06T07:12:43Z</time>
      </trkpt>
      <trkpt lat="47.79941" lon="7.10026">
        <ele>415</ele>
        <time>2023-05-06T07:12:53Z</time>
      </trkpt>
      <trkpt lat="47.79957" lon="7.10027">
        <ele>414</ele>
        <time>2023-05-06T07:13:08Z</time>
      </trkpt>
      <trkpt lat="47.79982" lon="7.10013">
        <ele>411</ele>
        <time>2023-05-06T07:13:31Z</time>
      </trkpt>
      <trkpt lat="47.79984" lon="7.10006">
        <ele>411</ele>
        <time>2023-05-06T07:13:35Z</time>
      </trkpt>
      <trkpt lat="47.7999" lon="7.09995">
        <ele>410</ele>
        <time>2023-05-06T07:13:43Z</time>
      </trkpt>
      <trkpt lat="47.80011" lon="7.09973">
        <ele>407</ele>
        <time>2023-05-06T07:14:07Z</time>
      </trkpt>
      <trkpt lat="47.80015" lon="7.09971">
        <ele>406</ele>
        <time>2023-05-06T07:14:16Z</time>
      </trkpt>
      <trkpt lat="47.80019" lon="7.09963">
        <ele>406</ele>
        <time>2023-05-06T07:14:50Z</time>
      </trkpt>
      <trkpt lat="47.80032" lon="7.09943">
        <ele>404</ele>
        <time>2023-05-06T07:15:06Z</time>
      </trkpt>
      <trkpt lat="47.80051" lon="7.0992">
        <ele>402</ele>
        <time>2023-05-06T07:15:27Z</time>
      </trkpt>
      <trkpt lat="47.8007" lon="7.09909">
        <ele>399</ele>
        <time>2023-05-06T07:15:43Z</time>
      </trkpt>
      <trkpt lat="47.80098" lon="7.09883">
        <ele>396</ele>
        <time>2023-05-06T07:16:11Z</time>
      </trkpt>
      <trkpt lat="47.80107" lon="7.09877">
        <ele>395</ele>
        <time>2023-05-06T07:16:19Z</time>
      </trkpt>
      <trkpt lat="47.80111" lon="7.09872">
        <ele>394</ele>
        <time>2023-05-06T07:16:23Z</time>
      </trkpt>
      <trkpt lat="47.80117" lon="7.0986">
        <ele>393</ele>
        <time>2023-05-06T07:16:31Z</time>
      </trkpt>
      <trkpt lat="47.80122" lon="7.09858">
        <ele>393</ele>
        <time>2023-05-06T07:16:34Z</time>
      </trkpt>
      <trkpt lat="47.80162" lon="7.09866">
        <ele>390</ele>
        <time>2023-05-06T07:17:06Z</time>
      </trkpt>
      <trkpt lat="47.802" lon="7.09863">
        <ele>385</ele>
        <time>2023-05-06T07:17:39Z</time>
      </trkpt>
      <trkpt lat="47.8023" lon="7.09876">
        <ele>380</ele>
        <time>2023-05-06T07:18:06Z</time>
      </trkpt>
      <trkpt lat="47.80234" lon="7.09879">
        <ele>379</ele>
        <time>2023-05-06T07:18:10Z</time>
      </trkpt>
      <trkpt lat="47.80238" lon="7.09884">
        <ele>379</ele>
        <time>2023-05-06T07:18:14Z</time>
      </trkpt>
      <trkpt lat="47.80248" lon="7.0991">
        <ele>377</ele>
        <time>2023-05-06T07:18:30Z</time>
      </trkpt>
      <trkpt lat="47.80265" lon="7.09927">
        <ele>374</ele>
        <time>2023-05-06T07:18:46Z</time>
      </trkpt>
      <trkpt lat="47.803" lon="7.09948">
        <ele>370</ele>
        <time>2023-05-06T07:19:19Z</time>
      </trkpt>
      <trkpt lat="47.80335" lon="7.0997">
        <ele>366</ele>
        <time>2023-05-06T07:19:52Z</time>
      </trkpt>
      <trkpt lat="47.80347" lon="7.0998">
        <ele>364</ele>
        <time>2023-05-06T07:20:04Z</time>
      </trkpt>
      <trkpt lat="47.80381" lon="7.10015">
        <ele>360</ele>
        <time>2023-05-06T07:20:37Z</time>
      </trkpt>
      <trkpt lat="47.80413" lon="7.10044">
        <ele>356</ele>
        <time>2023-05-06T07:21:09Z</time>
      </trkpt>
      <trkpt lat="47.80431" lon="7.10057">
        <ele>354</ele>
        <time>2023-05-06T07:21:25Z</time>
      </trkpt>
      <trkpt lat="47.80435" lon="7.10062">
        <ele>354</ele>
        <time>2023-05-06T07:21:29Z</time>
      </trkpt>
      <trkpt lat="47.80442" lon="7.10071">
        <ele>353</ele>
        <time>2023-05-06T07:21:38Z</time>
      </trkpt>
      <trkpt lat="47.80465" lon="7.10123">
        <ele>350</ele>
        <time>2023-05-06T07:22:12Z</time>
      </trkpt>
      <trkpt lat="47.80469" lon="7.10127">
        <ele>350</ele>
        <time>2023-05-06T07:22:16Z</time>
      </trkpt>
      <trkpt lat="47.80473" lon="7.10129">
        <ele>349</ele>
        <time>2023-05-06T07:22:20Z</time>
      </trkpt>
      <trkpt lat="47.80493" lon="7.10131">
        <ele>349</ele>
        <time>2023-05-06T07:22:39Z</time>
      </trkpt>
      <trkpt lat="47.80498" lon="7.10133">
        <ele>349</ele>
        <time>2023-05-06T07:22:42Z</time>
      </trkpt>
      <trkpt lat="47.80512" lon="7.10134">
        <ele>349</ele>
        <time>2023-05-06T07:22:54Z</time>
      </trkpt>
      <trkpt lat="47.80515" lon="7.10139">
        <ele>349</ele>
        <time>2023-05-06T07:22:57Z</time>
      </trkpt>
      <trkpt lat="47.80527" lon="7.10131">
        <ele>349</ele>
        <time>2023-05-06T07:23:08Z</time>
      </trkpt>
      <trkpt lat="47.80542" lon="7.10127">
        <ele>349</ele>
        <time>2023-05-06T07:23:20Z</time>
      </trkpt>
      <trkpt lat="47.80581" lon="7.10125">
        <ele>349</ele>
        <time>2023-05-06T07:23:52Z</time>
      </trkpt>
      <trkpt lat="47.80618" lon="7.10124">
        <ele>349</ele>
        <time>2023-05-06T07:24:24Z</time>
      </trkpt>
      <trkpt lat="47.80658" lon="7.1013">
        <ele>349</ele>
        <time>2023-05-06T07:24:57Z</time>
      </trkpt>
      <trkpt lat="47.80663" lon="7.10129">
        <ele>349</ele>
        <time>2023-05-06T07:25:00Z</time>
      </trkpt>
      <trkpt lat="47.80681" lon="7.10133">
        <ele>348</ele>
        <time>2023-05-06T07:25:15Z</time>
      </trkpt>
      <trkpt lat="47.80687" lon="7.10131">
        <ele>349</ele>
        <time>2023-05-06T07:25:19Z</time>
      </trkpt>
      <trkpt lat="47.80691" lon="7.10131">
        <ele>349</ele>
        <time>2023-05-06T07:25:22Z</time>
      </trkpt>
      <trkpt lat="47.80729" lon="7.10147">
        <ele>348</ele>
        <time>2023-05-06T07:25:54Z</time>
      </trkpt>
      <trkpt lat="47.80734" lon="7.10148">
        <ele>347</ele>
        <time>2023-05-06T07:25:58Z</time>
      </trkpt>
      <trkpt lat="47.80772" lon="7.10154">
        <ele>347</ele>
        <time>2023-05-06T07:26:29Z</time>
      </trkpt>
      <trkpt lat="47.80812" lon="7.10164">
        <ele>346</ele>
        <time>2023-05-06T07:27:00Z</time>
      </trkpt>
      <trkpt lat="47.80851" lon="7.10174">
        <ele>345</ele>
        <time>2023-05-06T07:27:33Z</time>
      </trkpt>
      <trkpt lat="47.80888" lon="7.1018">
        <ele>345</ele>
        <time>2023-05-06T07:28:06Z</time>
      </trkpt>
      <trkpt lat="47.80926" lon="7.1019">
        <ele>344</ele>
        <time>2023-05-06T07:28:38Z</time>
      </trkpt>
      <trkpt lat="47.80965" lon="7.10198">
        <ele>343</ele>
        <time>2023-05-06T07:29:10Z</time>
      </trkpt>
      <trkpt lat="47.8097" lon="7.102">
        <ele>342</ele>
        <time>2023-05-06T07:29:14Z</time>
      </trkpt>
      <trkpt lat="47.80972" lon="7.10193">
        <ele>342</ele>
        <time>2023-05-06T07:29:18Z</time>
      </trkpt>
      <trkpt lat="47.80975" lon="7.10189">
        <ele>343</ele>
        <time>2023-05-06T07:29:34Z</time>
      </trkpt>
      <trkpt lat="47.80983" lon="7.10196">
        <ele>343</ele>
        <time>2023-05-06T07:29:41Z</time>
      </trkpt>
      <trkpt lat="47.80985" lon="7.10204">
        <ele>343</ele>
        <time>2023-05-06T07:29:48Z</time>
      </trkpt>
      <trkpt lat="47.81009" lon="7.10212">
        <ele>343</ele>
        <time>2023-05-06T07:30:08Z</time>
      </trkpt>
      <trkpt lat="47.81026" lon="7.10221">
        <ele>343</ele>
        <time>2023-05-06T07:30:24Z</time>
      </trkpt>
      <trkpt lat="47.81037" lon="7.10234">
        <ele>343</ele>
        <time>2023-05-06T07:30:36Z</time>
      </trkpt>
      <trkpt lat="47.81043" lon="7.10243">
        <ele>342</ele>
        <time>2023-05-06T07:30:43Z</time>
      </trkpt>
      <trkpt lat="47.81054" lon="7.10251">
        <ele>342</ele>
        <time>2023-05-06T07:30:59Z</time>
      </trkpt>
      <trkpt lat="47.81058" lon="7.10254">
        <ele>343</ele>
        <time>2023-05-06T07:31:10Z</time>
      </trkpt>
      <trkpt lat="47.81058" lon="7.10262">
        <ele>342</ele>
        <time>2023-05-06T07:31:22Z</time>
      </trkpt>
      <trkpt lat="47.81065" lon="7.10277">
        <ele>342</ele>
        <time>2023-05-06T07:31:56Z</time>
      </trkpt>
      <trkpt lat="47.81068" lon="7.10286">
        <ele>342</ele>
        <time>2023-05-06T07:32:05Z</time>
      </trkpt>
      <trkpt lat="47.8107" lon="7.10293">
        <ele>342</ele>
        <time>2023-05-06T07:32:12Z</time>
      </trkpt>
      <trkpt lat="47.8109" lon="7.10314">
        <ele>342</ele>
        <time>2023-05-06T07:32:31Z</time>
      </trkpt>
      <trkpt lat="47.81121" lon="7.10337">
        <ele>341</ele>
        <time>2023-05-06T07:32:58Z</time>
      </trkpt>
      <trkpt lat="47.81125" lon="7.10341">
        <ele>341</ele>
        <time>2023-05-06T07:33:02Z</time>
      </trkpt>
      <trkpt lat="47.81131" lon="7.10346">
        <ele>341</ele>
        <time>2023-05-06T07:33:11Z</time>
      </trkpt>
      <trkpt lat="47.81138" lon="7.10353">
        <ele>340</ele>
        <time>2023-05-06T07:33:17Z</time>
      </trkpt>
      <trkpt lat="47.81142" lon="7.1036">
        <ele>340</ele>
        <time>2023-05-06T07:33:21Z</time>
      </trkpt>
      <trkpt lat="47.81156" lon="7.10405">
        <ele>341</ele>
        <time>2023-05-06T07:33:52Z</time>
      </trkpt>
      <trkpt lat="47.81166" lon="7.10436">
        <ele>341</ele>
        <time>2023-05-06T07:34:14Z</time>
      </trkpt>
      <trkpt lat="47.8118" lon="7.10453">
        <ele>341</ele>
        <time>2023-05-06T07:34:27Z</time>
      </trkpt>
      <trkpt lat="47.81192" lon="7.10459">
        <ele>340</ele>
        <time>2023-05-06T07:34:38Z</time>
      </trkpt>
      <trkpt lat="47.81219" lon="7.10468">
        <ele>340</ele>
        <time>2023-05-06T07:35:12Z</time>
      </trkpt>
      <trkpt lat="47.81254" lon="7.10478">
        <ele>340</ele>
        <time>2023-05-06T07:35:39Z</time>
      </trkpt>
      <trkpt lat="47.81262" lon="7.10484">
        <ele>341</ele>
        <time>2023-05-06T07:35:47Z</time>
      </trkpt>
      <trkpt lat="47.81277" lon="7.10488">
        <ele>341</ele>
        <time>2023-05-06T07:35:59Z</time>
      </trkpt>
      <trkpt lat="47.813" lon="7.10487">
        <ele>342</ele>
        <time>2023-05-06T07:36:20Z</time>
      </trkpt>
      <trkpt lat="47.81303" lon="7.10482">
        <ele>342</ele>
        <time>2023-05-06T07:36:24Z</time>
      </trkpt>
      <trkpt lat="47.81339" lon="7.10451">
        <ele>344</ele>
        <time>2023-05-06T07:36:58Z</time>
      </trkpt>
      <trkpt lat="47.81355" lon="7.10436">
        <ele>345</ele>
        <time>2023-05-06T07:37:13Z</time>
      </trkpt>
      <trkpt lat="47.81356" lon="7.1043">
        <ele>345</ele>
        <time>2023-05-06T07:37:18Z</time>
      </trkpt>
      <trkpt lat="47.8136" lon="7.10433">
        <ele>346</ele>
        <time>2023-05-06T07:37:22Z</time>
      </trkpt>
      <trkpt lat="47.81362" lon="7.10423">
        <ele>347</ele>
        <time>2023-05-06T07:37:32Z</time>
      </trkpt>
      <trkpt lat="47.81363" lon="7.10416">
        <ele>347</ele>
        <time>2023-05-06T07:37:35Z</time>
      </trkpt>
      <trkpt lat="47.81373" lon="7.10384">
        <ele>349</ele>
        <time>2023-05-06T07:37:55Z</time>
      </trkpt>
      <trkpt lat="47.81378" lon="7.10381">
        <ele>349</ele>
        <time>2023-05-06T07:38:00Z</time>
      </trkpt>
      <trkpt lat="47.81395" lon="7.10375">
        <ele>351</ele>
        <time>2023-05-06T07:38:17Z</time>
      </trkpt>
      <trkpt lat="47.81404" lon="7.10375">
        <ele>352</ele>
        <time>2023-05-06T07:38:26Z</time>
      </trkpt>
      <trkpt lat="47.81409" lon="7.10373">
        <ele>353</ele>
        <time>2023-05-06T07:38:31Z</time>
      </trkpt>
      <trkpt lat="47.8141" lon="7.10367">
        <ele>353</ele>
        <time>2023-05-06T07:38:36Z</time>
      </trkpt>
      <trkpt lat="47.81413" lon="7.10362">
        <ele>354</ele>
        <time>2023-05-06T07:38:41Z</time>
      </trkpt>
      <trkpt lat="47.81426" lon="7.10346">
        <ele>358</ele>
        <time>2023-05-06T07:39:03Z</time>
      </trkpt>
      <trkpt lat="47.81431" lon="7.10346">
        <ele>359</ele>
        <time>2023-05-06T07:39:08Z</time>
      </trkpt>
      <trkpt lat="47.81451" lon="7.10333">
        <ele>363</ele>
        <time>2023-05-06T07:39:34Z</time>
      </trkpt>
      <trkpt lat="47.8148" lon="7.10323">
        <ele>369</ele>
        <time>2023-05-06T07:40:06Z</time>
      </trkpt>
      <trkpt lat="47.81508" lon="7.1032">
        <ele>374</ele>
        <time>2023-05-06T07:40:39Z</time>
      </trkpt>
      <trkpt lat="47.81538" lon="7.10319">
        <ele>379</ele>
        <time>2023-05-06T07:41:15Z</time>
      </trkpt>
      <trkpt lat="47.81564" lon="7.10321">
        <ele>385</ele>
        <time>2023-05-06T07:41:46Z</time>
      </trkpt>
      <trkpt lat="47.81569" lon="7.10321">
        <ele>386</ele>
        <time>2023-05-06T07:41:53Z</time>
      </trkpt>
      <trkpt lat="47.81572" lon="7.10325">
        <ele>387</ele>
        <time>2023-05-06T07:41:59Z</time>
      </trkpt>
      <trkpt lat="47.81584" lon="7.10325">
        <ele>389</ele>
        <time>2023-05-06T07:42:12Z</time>
      </trkpt>
      <trkpt lat="47.81594" lon="7.10329">
        <ele>390</ele>
        <time>2023-05-06T07:42:22Z</time>
      </trkpt>
      <trkpt lat="47.81598" lon="7.10333">
        <ele>391</ele>
        <time>2023-05-06T07:42:30Z</time>
      </trkpt>
      <trkpt lat="47.81602" lon="7.10337">
        <ele>392</ele>
        <time>2023-05-06T07:42:36Z</time>
      </trkpt>
      <trkpt lat="47.81611" lon="7.10342">
        <ele>394</ele>
        <time>2023-05-06T07:42:47Z</time>
      </trkpt>
      <trkpt lat="47.81615" lon="7.10335">
        <ele>397</ele>
        <time>2023-05-06T07:43:03Z</time>
      </trkpt>
      <trkpt lat="47.81613" lon="7.10324">
        <ele>399</ele>
        <time>2023-05-06T07:43:12Z</time>
      </trkpt>
      <trkpt lat="47.81612" lon="7.10305">
        <ele>401</ele>
        <time>2023-05-06T07:43:26Z</time>
      </trkpt>
      <trkpt lat="47.81607" lon="7.10293">
        <ele>402</ele>
        <time>2023-05-06T07:43:36Z</time>
      </trkpt>
      <trkpt lat="47.81582" lon="7.10265">
        <ele>408</ele>
        <time>2023-05-06T07:44:10Z</time>
      </trkpt>
      <trkpt lat="47.81577" lon="7.10261">
        <ele>409</ele>
        <time>2023-05-06T07:44:16Z</time>
      </trkpt>
      <trkpt lat="47.81568" lon="7.10243">
        <ele>412</ele>
        <time>2023-05-06T07:44:32Z</time>
      </trkpt>
      <trkpt lat="47.81545" lon="7.10207">
        <ele>416</ele>
        <time>2023-05-06T07:45:06Z</time>
      </trkpt>
      <trkpt lat="47.81528" lon="7.10185">
        <ele>419</ele>
        <time>2023-05-06T07:45:29Z</time>
      </trkpt>
      <trkpt lat="47.81524" lon="7.10183">
        <ele>420</ele>
        <time>2023-05-06T07:45:34Z</time>
      </trkpt>
      <trkpt lat="47.81512" lon="7.10186">
        <ele>421</ele>
        <time>2023-05-06T07:45:46Z</time>
      </trkpt>
      <trkpt lat="47.81509" lon="7.10181">
        <ele>422</ele>
        <time>2023-05-06T07:45:53Z</time>
      </trkpt>
      <trkpt lat="47.81527" lon="7.10158">
        <ele>424</ele>
        <time>2023-05-06T07:46:12Z</time>
      </trkpt>
      <trkpt lat="47.8153" lon="7.10143">
        <ele>425</ele>
        <time>2023-05-06T07:46:23Z</time>
      </trkpt>
      <trkpt lat="47.81526" lon="7.10147">
        <ele>429</ele>
        <time>2023-05-06T07:46:43Z</time>
      </trkpt>
      <trkpt lat="47.81521" lon="7.10144">
        <ele>431</ele>
        <time>2023-05-06T07:46:53Z</time>
      </trkpt>
      <trkpt lat="47.8152" lon="7.10137">
        <ele>433</ele>
        <time>2023-05-06T07:46:59Z</time>
      </trkpt>
      <trkpt lat="47.81521" lon="7.1013">
        <ele>434</ele>
        <time>2023-05-06T07:47:05Z</time>
      </trkpt>
      <trkpt lat="47.81524" lon="7.10117">
        <ele>434</ele>
        <time>2023-05-06T07:47:13Z</time>
      </trkpt>
      <trkpt lat="47.81519" lon="7.10114">
        <ele>435</ele>
        <time>2023-05-06T07:47:21Z</time>
      </trkpt>
      <trkpt lat="47.81508" lon="7.10091">
        <ele>440</ele>
        <time>2023-05-06T07:47:51Z</time>
      </trkpt>
      <trkpt lat="47.81502" lon="7.10084">
        <ele>442</ele>
        <time>2023-05-06T07:48:02Z</time>
      </trkpt>
      <trkpt lat="47.81503" lon="7.10095">
        <ele>443</ele>
        <time>2023-05-06T07:48:14Z</time>
      </trkpt>
      <trkpt lat="47.81502" lon="7.10106">
        <ele>442</ele>
        <time>2023-05-06T07:48:46Z</time>
      </trkpt>
      <trkpt lat="47.81498" lon="7.10107">
        <ele>442</ele>
        <time>2023-05-06T07:48:57Z</time>
      </trkpt>
      <trkpt lat="47.81494" lon="7.10108">
        <ele>443</ele>
        <time>2023-05-06T07:49:07Z</time>
      </trkpt>
      <trkpt lat="47.81497" lon="7.10114">
        <ele>444</ele>
        <time>2023-05-06T07:49:13Z</time>
      </trkpt>
      <trkpt lat="47.81495" lon="7.10112">
        <ele>444</ele>
        <time>2023-05-06T07:49:48Z</time>
      </trkpt>
      <trkpt lat="47.81491" lon="7.10115">
        <ele>445</ele>
        <time>2023-05-06T07:49:58Z</time>
      </trkpt>
      <trkpt lat="47.81491" lon="7.10123">
        <ele>446</ele>
        <time>2023-05-06T07:50:12Z</time>
      </trkpt>
      <trkpt lat="47.8148" lon="7.10131">
        <ele>446</ele>
        <time>2023-05-06T07:50:28Z</time>
      </trkpt>
      <trkpt lat="47.81482" lon="7.10092">
        <ele>437</ele>
        <time>2023-05-06T07:54:05Z</time>
      </trkpt>
      <trkpt lat="47.81483" lon="7.10092">
        <ele>437</ele>
        <time>2023-05-06T07:54:06Z</time>
      </trkpt>
      <trkpt lat="47.81488" lon="7.1009">
        <ele>437</ele>
        <time>2023-05-06T07:54:11Z</time>
      </trkpt>
      <trkpt lat="47.81493" lon="7.10086">
        <ele>437</ele>
        <time>2023-05-06T07:54:16Z</time>
      </trkpt>
      <trkpt lat="47.815" lon="7.10083">
        <ele>437</ele>
        <time>2023-05-06T07:54:25Z</time>
      </trkpt>
      <trkpt lat="47.81504" lon="7.10084">
        <ele>438</ele>
        <time>2023-05-06T07:54:31Z</time>
      </trkpt>
      <trkpt lat="47.81507" lon="7.10089">
        <ele>438</ele>
        <time>2023-05-06T07:54:36Z</time>
      </trkpt>
      <trkpt lat="47.81514" lon="7.10101">
        <ele>436</ele>
        <time>2023-05-06T07:54:45Z</time>
      </trkpt>
      <trkpt lat="47.81516" lon="7.10107">
        <ele>435</ele>
        <time>2023-05-06T07:54:49Z</time>
      </trkpt>
      <trkpt lat="47.81521" lon="7.10114">
        <ele>433</ele>
        <time>2023-05-06T07:54:56Z</time>
      </trkpt>
      <trkpt lat="47.81525" lon="7.10116">
        <ele>432</ele>
        <time>2023-05-06T07:55:00Z</time>
      </trkpt>
      <trkpt lat="47.81532" lon="7.10105">
        <ele>429</ele>
        <time>2023-05-06T07:55:11Z</time>
      </trkpt>
      <trkpt lat="47.81532" lon="7.10098">
        <ele>428</ele>
        <time>2023-05-06T07:55:15Z</time>
      </trkpt>
      <trkpt lat="47.81532" lon="7.10084">
        <ele>426</ele>
        <time>2023-05-06T07:55:23Z</time>
      </trkpt>
      <trkpt lat="47.81537" lon="7.10086">
        <ele>424</ele>
        <time>2023-05-06T07:55:31Z</time>
      </trkpt>
      <trkpt lat="47.81541" lon="7.10091">
        <ele>423</ele>
        <time>2023-05-06T07:55:45Z</time>
      </trkpt>
      <trkpt lat="47.81544" lon="7.10083">
        <ele>422</ele>
        <time>2023-05-06T07:55:56Z</time>
      </trkpt>
      <trkpt lat="47.81548" lon="7.1008">
        <ele>422</ele>
        <time>2023-05-06T07:56:01Z</time>
      </trkpt>
      <trkpt lat="47.81557" lon="7.10083">
        <ele>421</ele>
        <time>2023-05-06T07:56:11Z</time>
      </trkpt>
      <trkpt lat="47.81561" lon="7.10086">
        <ele>421</ele>
        <time>2023-05-06T07:56:15Z</time>
      </trkpt>
      <trkpt lat="47.81569" lon="7.10091">
        <ele>422</ele>
        <time>2023-05-06T07:56:23Z</time>
      </trkpt>
      <trkpt lat="47.81573" lon="7.10094">
        <ele>422</ele>
        <time>2023-05-06T07:56:27Z</time>
      </trkpt>
      <trkpt lat="47.81586" lon="7.10103">
        <ele>422</ele>
        <time>2023-05-06T07:56:39Z</time>
      </trkpt>
      <trkpt lat="47.8159" lon="7.10107">
        <ele>422</ele>
        <time>2023-05-06T07:56:42Z</time>
      </trkpt>
      <trkpt lat="47.81598" lon="7.10116">
        <ele>422</ele>
        <time>2023-05-06T07:56:48Z</time>
      </trkpt>
      <trkpt lat="47.816" lon="7.10123">
        <ele>421</ele>
        <time>2023-05-06T07:56:52Z</time>
      </trkpt>
      <trkpt lat="47.81601" lon="7.1013">
        <ele>421</ele>
        <time>2023-05-06T07:56:56Z</time>
      </trkpt>
      <trkpt lat="47.81604" lon="7.10146">
        <ele>422</ele>
        <time>2023-05-06T07:57:07Z</time>
      </trkpt>
      <trkpt lat="47.81611" lon="7.10162">
        <ele>424</ele>
        <time>2023-05-06T07:57:19Z</time>
      </trkpt>
      <trkpt lat="47.81623" lon="7.102">
        <ele>427</ele>
        <time>2023-05-06T07:57:44Z</time>
      </trkpt>
      <trkpt lat="47.81627" lon="7.10206">
        <ele>428</ele>
        <time>2023-05-06T07:57:49Z</time>
      </trkpt>
      <trkpt lat="47.81631" lon="7.1021">
        <ele>428</ele>
        <time>2023-05-06T07:57:53Z</time>
      </trkpt>
      <trkpt lat="47.81638" lon="7.10212">
        <ele>429</ele>
        <time>2023-05-06T07:58:02Z</time>
      </trkpt>
      <trkpt lat="47.81643" lon="7.1021">
        <ele>430</ele>
        <time>2023-05-06T07:58:07Z</time>
      </trkpt>
      <trkpt lat="47.81653" lon="7.102">
        <ele>431</ele>
        <time>2023-05-06T07:58:20Z</time>
      </trkpt>
      <trkpt lat="47.81666" lon="7.10192">
        <ele>435</ele>
        <time>2023-05-06T07:58:38Z</time>
      </trkpt>
      <trkpt lat="47.81679" lon="7.10174">
        <ele>438</ele>
        <time>2023-05-06T07:58:57Z</time>
      </trkpt>
      <trkpt lat="47.81685" lon="7.10176">
        <ele>440</ele>
        <time>2023-05-06T07:59:06Z</time>
      </trkpt>
      <trkpt lat="47.81696" lon="7.10179">
        <ele>443</ele>
        <time>2023-05-06T07:59:18Z</time>
      </trkpt>
      <trkpt lat="47.81701" lon="7.10183">
        <ele>445</ele>
        <time>2023-05-06T07:59:29Z</time>
      </trkpt>
      <trkpt lat="47.81709" lon="7.10183">
        <ele>447</ele>
        <time>2023-05-06T07:59:41Z</time>
      </trkpt>
      <trkpt lat="47.81714" lon="7.10185">
        <ele>448</ele>
        <time>2023-05-06T07:59:46Z</time>
      </trkpt>
      <trkpt lat="47.81718" lon="7.10188">
        <ele>449</ele>
        <time>2023-05-06T07:59:51Z</time>
      </trkpt>
      <trkpt lat="47.81729" lon="7.10183">
        <ele>452</ele>
        <time>2023-05-06T08:00:06Z</time>
      </trkpt>
      <trkpt lat="47.81733" lon="7.10179">
        <ele>453</ele>
        <time>2023-05-06T08:00:14Z</time>
      </trkpt>
      <trkpt lat="47.81739" lon="7.10176">
        <ele>456</ele>
        <time>2023-05-06T08:00:26Z</time>
      </trkpt>
      <trkpt lat="47.81741" lon="7.10181">
        <ele>457</ele>
        <time>2023-05-06T08:00:30Z</time>
      </trkpt>
      <trkpt lat="47.81744" lon="7.10186">
        <ele>457</ele>
        <time>2023-05-06T08:00:34Z</time>
      </trkpt>
      <trkpt lat="47.81748" lon="7.10184">
        <ele>459</ele>
        <time>2023-05-06T08:00:42Z</time>
      </trkpt>
      <trkpt lat="47.81755" lon="7.10167">
        <ele>463</ele>
        <time>2023-05-06T08:01:03Z</time>
      </trkpt>
      <trkpt lat="47.81761" lon="7.10179">
        <ele>465</ele>
        <time>2023-05-06T08:01:12Z</time>
      </trkpt>
      <trkpt lat="47.81765" lon="7.10175">
        <ele>466</ele>
        <time>2023-05-06T08:01:19Z</time>
      </trkpt>
      <trkpt lat="47.81769" lon="7.1016">
        <ele>467</ele>
        <time>2023-05-06T08:01:31Z</time>
      </trkpt>
      <trkpt lat="47.81772" lon="7.10139">
        <ele>469</ele>
        <time>2023-05-06T08:01:48Z</time>
      </trkpt>
      <trkpt lat="47.81787" lon="7.10095">
        <ele>474</ele>
        <time>2023-05-06T08:02:21Z</time>
      </trkpt>
      <trkpt lat="47.81799" lon="7.10048">
        <ele>478</ele>
        <time>2023-05-06T08:02:55Z</time>
      </trkpt>
      <trkpt lat="47.81814" lon="7.10012">
        <ele>483</ele>
        <time>2023-05-06T08:03:26Z</time>
      </trkpt>
      <trkpt lat="47.81816" lon="7.10005">
        <ele>483</ele>
        <time>2023-05-06T08:03:31Z</time>
      </trkpt>
      <trkpt lat="47.81817" lon="7.09999">
        <ele>484</ele>
        <time>2023-05-06T08:03:35Z</time>
      </trkpt>
      <trkpt lat="47.81827" lon="7.09971">
        <ele>487</ele>
        <time>2023-05-06T08:03:57Z</time>
      </trkpt>
      <trkpt lat="47.8183" lon="7.09977">
        <ele>488</ele>
        <time>2023-05-06T08:04:05Z</time>
      </trkpt>
      <trkpt lat="47.81833" lon="7.10005">
        <ele>491</ele>
        <time>2023-05-06T08:04:24Z</time>
      </trkpt>
      <trkpt lat="47.81832" lon="7.10013">
        <ele>492</ele>
        <time>2023-05-06T08:04:29Z</time>
      </trkpt>
      <trkpt lat="47.81834" lon="7.1002">
        <ele>492</ele>
        <time>2023-05-06T08:04:33Z</time>
      </trkpt>
      <trkpt lat="47.81833" lon="7.10028">
        <ele>493</ele>
        <time>2023-05-06T08:04:38Z</time>
      </trkpt>
      <trkpt lat="47.81834" lon="7.10037">
        <ele>494</ele>
        <time>2023-05-06T08:04:45Z</time>
      </trkpt>
      <trkpt lat="47.81834" lon="7.10048">
        <ele>495</ele>
        <time>2023-05-06T08:04:53Z</time>
      </trkpt>
      <trkpt lat="47.81836" lon="7.10069">
        <ele>496</ele>
        <time>2023-05-06T08:05:06Z</time>
      </trkpt>
      <trkpt lat="47.81838" lon="7.10075">
        <ele>497</ele>
        <time>2023-05-06T08:05:09Z</time>
      </trkpt>
      <trkpt lat="47.81841" lon="7.10096">
        <ele>499</ele>
        <time>2023-05-06T08:05:25Z</time>
      </trkpt>
      <trkpt lat="47.81848" lon="7.10121">
        <ele>501</ele>
        <time>2023-05-06T08:05:44Z</time>
      </trkpt>
      <trkpt lat="47.8185" lon="7.10111">
        <ele>504</ele>
        <time>2023-05-06T08:05:57Z</time>
      </trkpt>
      <trkpt lat="47.81856" lon="7.10061">
        <ele>510</ele>
        <time>2023-05-06T08:06:30Z</time>
      </trkpt>
      <trkpt lat="47.81863" lon="7.10019">
        <ele>513</ele>
        <time>2023-05-06T08:06:57Z</time>
      </trkpt>
      <trkpt lat="47.81867" lon="7.10005">
        <ele>514</ele>
        <time>2023-05-06T08:07:08Z</time>
      </trkpt>
      <trkpt lat="47.81871" lon="7.09986">
        <ele>516</ele>
        <time>2023-05-06T08:07:19Z</time>
      </trkpt>
      <trkpt lat="47.81887" lon="7.09946">
        <ele>520</ele>
        <time>2023-05-06T08:07:52Z</time>
      </trkpt>
      <trkpt lat="47.81894" lon="7.09932">
        <ele>522</ele>
        <time>2023-05-06T08:08:06Z</time>
      </trkpt>
      <trkpt lat="47.81896" lon="7.0992">
        <ele>524</ele>
        <time>2023-05-06T08:08:16Z</time>
      </trkpt>
      <trkpt lat="47.81899" lon="7.09907">
        <ele>526</ele>
        <time>2023-05-06T08:08:26Z</time>
      </trkpt>
      <trkpt lat="47.81904" lon="7.09898">
        <ele>527</ele>
        <time>2023-05-06T08:08:36Z</time>
      </trkpt>
      <trkpt lat="47.81906" lon="7.09889">
        <ele>528</ele>
        <time>2023-05-06T08:08:48Z</time>
      </trkpt>
      <trkpt lat="47.81908" lon="7.09882">
        <ele>528</ele>
        <time>2023-05-06T08:08:53Z</time>
      </trkpt>
      <trkpt lat="47.81908" lon="7.09875">
        <ele>529</ele>
        <time>2023-05-06T08:08:58Z</time>
      </trkpt>
      <trkpt lat="47.81916" lon="7.0984">
        <ele>532</ele>
        <time>2023-05-06T08:09:24Z</time>
      </trkpt>
      <trkpt lat="47.8192" lon="7.09793">
        <ele>535</ele>
        <time>2023-05-06T08:09:57Z</time>
      </trkpt>
      <trkpt lat="47.81923" lon="7.09764">
        <ele>538</ele>
        <time>2023-05-06T08:10:16Z</time>
      </trkpt>
      <trkpt lat="47.81923" lon="7.09774">
        <ele>538</ele>
        <time>2023-05-06T08:10:58Z</time>
      </trkpt>
      <trkpt lat="47.81928" lon="7.09766">
        <ele>538</ele>
        <time>2023-05-06T08:11:04Z</time>
      </trkpt>
      <trkpt lat="47.81936" lon="7.09755">
        <ele>540</ele>
        <time>2023-05-06T08:11:15Z</time>
      </trkpt>
      <trkpt lat="47.81944" lon="7.09762">
        <ele>540</ele>
        <time>2023-05-06T08:11:22Z</time>
      </trkpt>
      <trkpt lat="47.81978" lon="7.09786">
        <ele>542</ele>
        <time>2023-05-06T08:11:56Z</time>
      </trkpt>
      <trkpt lat="47.81996" lon="7.09797">
        <ele>544</ele>
        <time>2023-05-06T08:12:14Z</time>
      </trkpt>
      <trkpt lat="47.82009" lon="7.09813">
        <ele>545</ele>
        <time>2023-05-06T08:12:28Z</time>
      </trkpt>
      <trkpt lat="47.82033" lon="7.0986">
        <ele>547</ele>
        <time>2023-05-06T08:13:02Z</time>
      </trkpt>
      <trkpt lat="47.82052" lon="7.09903">
        <ele>549</ele>
        <time>2023-05-06T08:13:32Z</time>
      </trkpt>
      <trkpt lat="47.8206" lon="7.09918">
        <ele>550</ele>
        <time>2023-05-06T08:13:43Z</time>
      </trkpt>
      <trkpt lat="47.82086" lon="7.09948">
        <ele>551</ele>
        <time>2023-05-06T08:14:11Z</time>
      </trkpt>
      <trkpt lat="47.82108" lon="7.09962">
        <ele>553</ele>
        <time>2023-05-06T08:14:34Z</time>
      </trkpt>
      <trkpt lat="47.82112" lon="7.09964">
        <ele>553</ele>
        <time>2023-05-06T08:14:39Z</time>
      </trkpt>
      <trkpt lat="47.82143" lon="7.09953">
        <ele>556</ele>
        <time>2023-05-06T08:15:10Z</time>
      </trkpt>
      <trkpt lat="47.82147" lon="7.09952">
        <ele>556</ele>
        <time>2023-05-06T08:15:14Z</time>
      </trkpt>
      <trkpt lat="47.82151" lon="7.09948">
        <ele>556</ele>
        <time>2023-05-06T08:15:17Z</time>
      </trkpt>
      <trkpt lat="47.82177" lon="7.09934">
        <ele>558</ele>
        <time>2023-05-06T08:15:42Z</time>
      </trkpt>
      <trkpt lat="47.8219" lon="7.09924">
        <ele>559</ele>
        <time>2023-05-06T08:15:55Z</time>
      </trkpt>
      <trkpt lat="47.82194" lon="7.09923">
        <ele>560</ele>
        <time>2023-05-06T08:15:59Z</time>
      </trkpt>
      <trkpt lat="47.82204" lon="7.09917">
        <ele>561</ele>
        <time>2023-05-06T08:16:09Z</time>
      </trkpt>
      <trkpt lat="47.82221" lon="7.09911">
        <ele>562</ele>
        <time>2023-05-06T08:16:25Z</time>
      </trkpt>
      <trkpt lat="47.82226" lon="7.09913">
        <ele>562</ele>
        <time>2023-05-06T08:16:29Z</time>
      </trkpt>
      <trkpt lat="47.82243" lon="7.09928">
        <ele>563</ele>
        <time>2023-05-06T08:16:45Z</time>
      </trkpt>
      <trkpt lat="47.82251" lon="7.09937">
        <ele>563</ele>
        <time>2023-05-06T08:16:54Z</time>
      </trkpt>
      <trkpt lat="47.82281" lon="7.09957">
        <ele>565</ele>
        <time>2023-05-06T08:17:23Z</time>
      </trkpt>
      <trkpt lat="47.82291" lon="7.09961">
        <ele>566</ele>
        <time>2023-05-06T08:17:32Z</time>
      </trkpt>
      <trkpt lat="47.82298" lon="7.0997">
        <ele>567</ele>
        <time>2023-05-06T08:17:40Z</time>
      </trkpt>
      <trkpt lat="47.82301" lon="7.09977">
        <ele>567</ele>
        <time>2023-05-06T08:17:44Z</time>
      </trkpt>
      <trkpt lat="47.82303" lon="7.09985">
        <ele>568</ele>
        <time>2023-05-06T08:17:49Z</time>
      </trkpt>
      <trkpt lat="47.82307" lon="7.09998">
        <ele>568</ele>
        <time>2023-05-06T08:17:57Z</time>
      </trkpt>
      <trkpt lat="47.82305" lon="7.10018">
        <ele>569</ele>
        <time>2023-05-06T08:18:10Z</time>
      </trkpt>
      <trkpt lat="47.82302" lon="7.10023">
        <ele>570</ele>
        <time>2023-05-06T08:18:15Z</time>
      </trkpt>
      <trkpt lat="47.82287" lon="7.10064">
        <ele>572</ele>
        <time>2023-05-06T08:18:41Z</time>
      </trkpt>
      <trkpt lat="47.82286" lon="7.10077">
        <ele>574</ele>
        <time>2023-05-06T08:18:50Z</time>
      </trkpt>
      <trkpt lat="47.82286" lon="7.10103">
        <ele>576</ele>
        <time>2023-05-06T08:19:07Z</time>
      </trkpt>
      <trkpt lat="47.82294" lon="7.10139">
        <ele>579</ele>
        <time>2023-05-06T08:19:30Z</time>
      </trkpt>
      <trkpt lat="47.82296" lon="7.10144">
        <ele>579</ele>
        <time>2023-05-06T08:19:33Z</time>
      </trkpt>
      <trkpt lat="47.82297" lon="7.10164">
        <ele>581</ele>
        <time>2023-05-06T08:19:48Z</time>
      </trkpt>
      <trkpt lat="47.82293" lon="7.1021">
        <ele>585</ele>
        <time>2023-05-06T08:20:20Z</time>
      </trkpt>
      <trkpt lat="47.82286" lon="7.10255">
        <ele>588</ele>
        <time>2023-05-06T08:20:47Z</time>
      </trkpt>
      <trkpt lat="47.82278" lon="7.10287">
        <ele>591</ele>
        <time>2023-05-06T08:21:09Z</time>
      </trkpt>
      <trkpt lat="47.82277" lon="7.10294">
        <ele>591</ele>
        <time>2023-05-06T08:21:13Z</time>
      </trkpt>
      <trkpt lat="47.82275" lon="7.103">
        <ele>592</ele>
        <time>2023-05-06T08:21:17Z</time>
      </trkpt>
      <trkpt lat="47.82272" lon="7.1032">
        <ele>594</ele>
        <time>2023-05-06T08:21:30Z</time>
      </trkpt>
      <trkpt lat="47.82273" lon="7.10328">
        <ele>594</ele>
        <time>2023-05-06T08:21:36Z</time>
      </trkpt>
      <trkpt lat="47.82279" lon="7.10332">
        <ele>595</ele>
        <time>2023-05-06T08:21:42Z</time>
      </trkpt>
      <trkpt lat="47.82288" lon="7.10331">
        <ele>595</ele>
        <time>2023-05-06T08:21:49Z</time>
      </trkpt>
      <trkpt lat="47.82314" lon="7.10321">
        <ele>595</ele>
        <time>2023-05-06T08:22:15Z</time>
      </trkpt>
      <trkpt lat="47.82347" lon="7.10317">
        <ele>596</ele>
        <time>2023-05-06T08:22:44Z</time>
      </trkpt>
      <trkpt lat="47.82352" lon="7.10315">
        <ele>596</ele>
        <time>2023-05-06T08:22:48Z</time>
      </trkpt>
      <trkpt lat="47.82372" lon="7.10312">
        <ele>597</ele>
        <time>2023-05-06T08:23:07Z</time>
      </trkpt>
      <trkpt lat="47.8241" lon="7.10314">
        <ele>597</ele>
        <time>2023-05-06T08:23:40Z</time>
      </trkpt>
      <trkpt lat="47.82448" lon="7.10332">
        <ele>597</ele>
        <time>2023-05-06T08:24:12Z</time>
      </trkpt>
      <trkpt lat="47.82476" lon="7.10346">
        <ele>594</ele>
        <time>2023-05-06T08:24:40Z</time>
      </trkpt>
      <trkpt lat="47.8251" lon="7.10359">
        <ele>591</ele>
        <time>2023-05-06T08:25:11Z</time>
      </trkpt>
      <trkpt lat="47.82529" lon="7.1037">
        <ele>590</ele>
        <time>2023-05-06T08:25:30Z</time>
      </trkpt>
      <trkpt lat="47.82561" lon="7.10378">
        <ele>590</ele>
        <time>2023-05-06T08:25:58Z</time>
      </trkpt>
      <trkpt lat="47.82576" lon="7.10383">
        <ele>590</ele>
        <time>2023-05-06T08:26:09Z</time>
      </trkpt>
      <trkpt lat="47.82586" lon="7.10384">
        <ele>590</ele>
        <time>2023-05-06T08:26:17Z</time>
      </trkpt>
      <trkpt lat="47.8259" lon="7.10381">
        <ele>590</ele>
        <time>2023-05-06T08:26:22Z</time>
      </trkpt>
      <trkpt lat="47.82614" lon="7.10357">
        <ele>592</ele>
        <time>2023-05-06T08:26:53Z</time>
      </trkpt>
      <trkpt lat="47.8262" lon="7.10358">
        <ele>593</ele>
        <time>2023-05-06T08:27:00Z</time>
      </trkpt>
      <trkpt lat="47.82621" lon="7.10365">
        <ele>594</ele>
        <time>2023-05-06T08:27:04Z</time>
      </trkpt>
      <trkpt lat="47.82624" lon="7.1037">
        <ele>595</ele>
        <time>2023-05-06T08:27:08Z</time>
      </trkpt>
      <trkpt lat="47.82628" lon="7.10365">
        <ele>596</ele>
        <time>2023-05-06T08:27:13Z</time>
      </trkpt>
      <trkpt lat="47.82639" lon="7.10331">
        <ele>599</ele>
        <time>2023-05-06T08:27:39Z</time>
      </trkpt>
      <trkpt lat="47.82653" lon="7.10368">
        <ele>604</ele>
        <time>2023-05-06T08:28:07Z</time>
      </trkpt>
      <trkpt lat="47.82658" lon="7.1036">
        <ele>606</ele>
        <time>2023-05-06T08:28:19Z</time>
      </trkpt>
      <trkpt lat="47.82659" lon="7.10353">
        <ele>606</ele>
        <time>2023-05-06T08:28:24Z</time>
      </trkpt>
      <trkpt lat="47.82662" lon="7.10345">
        <ele>608</ele>
        <time>2023-05-06T08:28:32Z</time>
      </trkpt>
      <trkpt lat="47.82664" lon="7.10336">
        <ele>609</ele>
        <time>2023-05-06T08:28:40Z</time>
      </trkpt>
      <trkpt lat="47.82667" lon="7.1033">
        <ele>610</ele>
        <time>2023-05-06T08:28:46Z</time>
      </trkpt>
      <trkpt lat="47.82673" lon="7.10326">
        <ele>611</ele>
        <time>2023-05-06T08:28:53Z</time>
      </trkpt>
      <trkpt lat="47.8268" lon="7.10325">
        <ele>613</ele>
        <time>2023-05-06T08:29:02Z</time>
      </trkpt>
      <trkpt lat="47.82699" lon="7.10309">
        <ele>617</ele>
        <time>2023-05-06T08:29:30Z</time>
      </trkpt>
      <trkpt lat="47.82708" lon="7.10296">
        <ele>620</ele>
        <time>2023-05-06T08:29:44Z</time>
      </trkpt>
      <trkpt lat="47.82713" lon="7.10295">
        <ele>620</ele>
        <time>2023-05-06T08:29:48Z</time>
      </trkpt>
      <trkpt lat="47.82722" lon="7.10288">
        <ele>622</ele>
        <time>2023-05-06T08:30:00Z</time>
      </trkpt>
      <trkpt lat="47.82739" lon="7.10282">
        <ele>624</ele>
        <time>2023-05-06T08:30:18Z</time>
      </trkpt>
      <trkpt lat="47.82753" lon="7.10269">
        <ele>626</ele>
        <time>2023-05-06T08:30:36Z</time>
      </trkpt>
      <trkpt lat="47.82758" lon="7.10267">
        <ele>627</ele>
        <time>2023-05-06T08:30:42Z</time>
      </trkpt>
      <trkpt lat="47.82771" lon="7.10258">
        <ele>627</ele>
        <time>2023-05-06T08:30:55Z</time>
      </trkpt>
      <trkpt lat="47.82782" lon="7.10248">
        <ele>629</ele>
        <time>2023-05-06T08:31:07Z</time>
      </trkpt>
      <trkpt lat="47.82786" lon="7.10242">
        <ele>630</ele>
        <time>2023-05-06T08:31:15Z</time>
      </trkpt>
      <trkpt lat="47.82809" lon="7.10226">
        <ele>635</ele>
        <time>2023-05-06T08:31:42Z</time>
      </trkpt>
      <trkpt lat="47.82825" lon="7.10206">
        <ele>640</ele>
        <time>2023-05-06T08:32:11Z</time>
      </trkpt>
      <trkpt lat="47.8283" lon="7.10202">
        <ele>641</ele>
        <time>2023-05-06T08:32:16Z</time>
      </trkpt>
      <trkpt lat="47.82855" lon="7.10174">
        <ele>647</ele>
        <time>2023-05-06T08:32:50Z</time>
      </trkpt>
      <trkpt lat="47.82887" lon="7.10154">
        <ele>650</ele>
        <time>2023-05-06T08:33:20Z</time>
      </trkpt>
      <trkpt lat="47.8292" lon="7.10153">
        <ele>657</ele>
        <time>2023-05-06T08:33:58Z</time>
      </trkpt>
      <trkpt lat="47.82925" lon="7.10151">
        <ele>657</ele>
        <time>2023-05-06T08:34:02Z</time>
      </trkpt>
      <trkpt lat="47.8293" lon="7.10149">
        <ele>657</ele>
        <time>2023-05-06T08:34:06Z</time>
      </trkpt>
      <trkpt lat="47.82934" lon="7.10147">
        <ele>658</ele>
        <time>2023-05-06T08:34:10Z</time>
      </trkpt>
      <trkpt lat="47.82952" lon="7.1013">
        <ele>660</ele>
        <time>2023-05-06T08:34:33Z</time>
      </trkpt>
      <trkpt lat="47.82962" lon="7.1013">
        <ele>662</ele>
        <time>2023-05-06T08:34:43Z</time>
      </trkpt>
      <trkpt lat="47.82974" lon="7.10123">
        <ele>664</ele>
        <time>2023-05-06T08:34:58Z</time>
      </trkpt>
      <trkpt lat="47.82996" lon="7.10106">
        <ele>667</ele>
        <time>2023-05-06T08:35:24Z</time>
      </trkpt>
      <trkpt lat="47.83011" lon="7.10099">
        <ele>669</ele>
        <time>2023-05-06T08:35:42Z</time>
      </trkpt>
      <trkpt lat="47.83016" lon="7.101">
        <ele>670</ele>
        <time>2023-05-06T08:35:47Z</time>
      </trkpt>
      <trkpt lat="47.83026" lon="7.10097">
        <ele>672</ele>
        <time>2023-05-06T08:35:59Z</time>
      </trkpt>
      <trkpt lat="47.83031" lon="7.10097">
        <ele>672</ele>
        <time>2023-05-06T08:36:03Z</time>
      </trkpt>
      <trkpt lat="47.83056" lon="7.10083">
        <ele>677</ele>
        <time>2023-05-06T08:36:28Z</time>
      </trkpt>
      <trkpt lat="47.8306" lon="7.10081">
        <ele>677</ele>
        <time>2023-05-06T08:36:32Z</time>
      </trkpt>
      <trkpt lat="47.83065" lon="7.10077">
        <ele>678</ele>
        <time>2023-05-06T08:36:37Z</time>
      </trkpt>
      <trkpt lat="47.83068" lon="7.10071">
        <ele>678</ele>
        <time>2023-05-06T08:36:41Z</time>
      </trkpt>
      <trkpt lat="47.83072" lon="7.1007">
        <ele>678</ele>
        <time>2023-05-06T08:36:46Z</time>
      </trkpt>
      <trkpt lat="47.83075" lon="7.10062">
        <ele>679</ele>
        <time>2023-05-06T08:36:52Z</time>
      </trkpt>
      <trkpt lat="47.83078" lon="7.10057">
        <ele>679</ele>
        <time>2023-05-06T08:36:56Z</time>
      </trkpt>
      <trkpt lat="47.83084" lon="7.1005">
        <ele>680</ele>
        <time>2023-05-06T08:37:04Z</time>
      </trkpt>
      <trkpt lat="47.83089" lon="7.10048">
        <ele>681</ele>
        <time>2023-05-06T08:37:09Z</time>
      </trkpt>
      <trkpt lat="47.8311" lon="7.10032">
        <ele>684</ele>
        <time>2023-05-06T08:37:35Z</time>
      </trkpt>
      <trkpt lat="47.83114" lon="7.10027">
        <ele>685</ele>
        <time>2023-05-06T08:37:40Z</time>
      </trkpt>
      <trkpt lat="47.83119" lon="7.10028">
        <ele>685</ele>
        <time>2023-05-06T08:37:44Z</time>
      </trkpt>
      <trkpt lat="47.83123" lon="7.1003">
        <ele>685</ele>
        <time>2023-05-06T08:37:48Z</time>
      </trkpt>
      <trkpt lat="47.83138" lon="7.10037">
        <ele>684</ele>
        <time>2023-05-06T08:38:00Z</time>
      </trkpt>
      <trkpt lat="47.83146" lon="7.10035">
        <ele>684</ele>
        <time>2023-05-06T08:38:08Z</time>
      </trkpt>
      <trkpt lat="47.8315" lon="7.10037">
        <ele>684</ele>
        <time>2023-05-06T08:38:11Z</time>
      </trkpt>
      <trkpt lat="47.83156" lon="7.10037">
        <ele>685</ele>
        <time>2023-05-06T08:38:17Z</time>
      </trkpt>
      <trkpt lat="47.83163" lon="7.10048">
        <ele>686</ele>
        <time>2023-05-06T08:38:24Z</time>
      </trkpt>
      <trkpt lat="47.83169" lon="7.10062">
        <ele>686</ele>
        <time>2023-05-06T08:38:33Z</time>
      </trkpt>
      <trkpt lat="47.8318" lon="7.10078">
        <ele>689</ele>
        <time>2023-05-06T08:38:49Z</time>
      </trkpt>
      <trkpt lat="47.83187" lon="7.10088">
        <ele>689</ele>
        <time>2023-05-06T08:38:59Z</time>
      </trkpt>
      <trkpt lat="47.83198" lon="7.10103">
        <ele>692</ele>
        <time>2023-05-06T08:39:16Z</time>
      </trkpt>
      <trkpt lat="47.83207" lon="7.10113">
        <ele>693</ele>
        <time>2023-05-06T08:39:27Z</time>
      </trkpt>
      <trkpt lat="47.8321" lon="7.10119">
        <ele>694</ele>
        <time>2023-05-06T08:39:32Z</time>
      </trkpt>
      <trkpt lat="47.83213" lon="7.10127">
        <ele>695</ele>
        <time>2023-05-06T08:39:40Z</time>
      </trkpt>
      <trkpt lat="47.8322" lon="7.1014">
        <ele>698</ele>
        <time>2023-05-06T08:39:54Z</time>
      </trkpt>
      <trkpt lat="47.83233" lon="7.10154">
        <ele>700</ele>
        <time>2023-05-06T08:40:07Z</time>
      </trkpt>
      <trkpt lat="47.83251" lon="7.10157">
        <ele>703</ele>
        <time>2023-05-06T08:40:28Z</time>
      </trkpt>
      <trkpt lat="47.83256" lon="7.10152">
        <ele>704</ele>
        <time>2023-05-06T08:40:35Z</time>
      </trkpt>
      <trkpt lat="47.83261" lon="7.10151">
        <ele>704</ele>
        <time>2023-05-06T08:40:40Z</time>
      </trkpt>
      <trkpt lat="47.83268" lon="7.10152">
        <ele>704</ele>
        <time>2023-05-06T08:40:47Z</time>
      </trkpt>
      <trkpt lat="47.83273" lon="7.10154">
        <ele>704</ele>
        <time>2023-05-06T08:40:51Z</time>
      </trkpt>
      <trkpt lat="47.83277" lon="7.10154">
        <ele>704</ele>
        <time>2023-05-06T08:40:55Z</time>
      </trkpt>
      <trkpt lat="47.83294" lon="7.1016">
        <ele>706</ele>
        <time>2023-05-06T08:41:10Z</time>
      </trkpt>
      <trkpt lat="47.83299" lon="7.10159">
        <ele>707</ele>
        <time>2023-05-06T08:41:17Z</time>
      </trkpt>
      <trkpt lat="47.83329" lon="7.10146">
        <ele>713</ele>
        <time>2023-05-06T08:41:53Z</time>
      </trkpt>
      <trkpt lat="47.83337" lon="7.10141">
        <ele>715</ele>
        <time>2023-05-06T08:42:04Z</time>
      </trkpt>
      <trkpt lat="47.83342" lon="7.10136">
        <ele>716</ele>
        <time>2023-05-06T08:42:09Z</time>
      </trkpt>
      <trkpt lat="47.83346" lon="7.10133">
        <ele>716</ele>
        <time>2023-05-06T08:42:13Z</time>
      </trkpt>
      <trkpt lat="47.83374" lon="7.10112">
        <ele>722</ele>
        <time>2023-05-06T08:42:46Z</time>
      </trkpt>
      <trkpt lat="47.83387" lon="7.10101">
        <ele>724</ele>
        <time>2023-05-06T08:43:05Z</time>
      </trkpt>
      <trkpt lat="47.83391" lon="7.10095">
        <ele>725</ele>
        <time>2023-05-06T08:43:10Z</time>
      </trkpt>
      <trkpt lat="47.83415" lon="7.10075">
        <ele>730</ele>
        <time>2023-05-06T08:43:45Z</time>
      </trkpt>
      <trkpt lat="47.83419" lon="7.10071">
        <ele>731</ele>
        <time>2023-05-06T08:43:50Z</time>
      </trkpt>
      <trkpt lat="47.83422" lon="7.10066">
        <ele>732</ele>
        <time>2023-05-06T08:43:57Z</time>
      </trkpt>
      <trkpt lat="47.83426" lon="7.10063">
        <ele>733</ele>
        <time>2023-05-06T08:44:03Z</time>
      </trkpt>
      <trkpt lat="47.83457" lon="7.10056">
        <ele>737</ele>
        <time>2023-05-06T08:44:36Z</time>
      </trkpt>
      <trkpt lat="47.8347" lon="7.10053">
        <ele>740</ele>
        <time>2023-05-06T08:44:50Z</time>
      </trkpt>
      <trkpt lat="47.83481" lon="7.10067">
        <ele>741</ele>
        <time>2023-05-06T08:45:03Z</time>
      </trkpt>
      <trkpt lat="47.83488" lon="7.10078">
        <ele>741</ele>
        <time>2023-05-06T08:45:11Z</time>
      </trkpt>
      <trkpt lat="47.8349" lon="7.10084">
        <ele>742</ele>
        <time>2023-05-06T08:45:16Z</time>
      </trkpt>
      <trkpt lat="47.83494" lon="7.10089">
        <ele>743</ele>
        <time>2023-05-06T08:45:20Z</time>
      </trkpt>
      <trkpt lat="47.83499" lon="7.10108">
        <ele>746</ele>
        <time>2023-05-06T08:45:39Z</time>
      </trkpt>
      <trkpt lat="47.83501" lon="7.10115">
        <ele>746</ele>
        <time>2023-05-06T08:45:45Z</time>
      </trkpt>
      <trkpt lat="47.83507" lon="7.10125">
        <ele>747</ele>
        <time>2023-05-06T08:45:52Z</time>
      </trkpt>
      <trkpt lat="47.83522" lon="7.10166">
        <ele>752</ele>
        <time>2023-05-06T08:46:24Z</time>
      </trkpt>
      <trkpt lat="47.83525" lon="7.10174">
        <ele>754</ele>
        <time>2023-05-06T08:46:32Z</time>
      </trkpt>
      <trkpt lat="47.83528" lon="7.10178">
        <ele>756</ele>
        <time>2023-05-06T08:46:39Z</time>
      </trkpt>
      <trkpt lat="47.83547" lon="7.10207">
        <ele>759</ele>
        <time>2023-05-06T08:47:04Z</time>
      </trkpt>
      <trkpt lat="47.83558" lon="7.10231">
        <ele>762</ele>
        <time>2023-05-06T08:47:23Z</time>
      </trkpt>
      <trkpt lat="47.8356" lon="7.10239">
        <ele>763</ele>
        <time>2023-05-06T08:47:28Z</time>
      </trkpt>
      <trkpt lat="47.83559" lon="7.1027">
        <ele>766</ele>
        <time>2023-05-06T08:47:49Z</time>
      </trkpt>
      <trkpt lat="47.83558" lon="7.10284">
        <ele>767</ele>
        <time>2023-05-06T08:47:57Z</time>
      </trkpt>
      <trkpt lat="47.8356" lon="7.10289">
        <ele>767</ele>
        <time>2023-05-06T08:48:00Z</time>
      </trkpt>
      <trkpt lat="47.83563" lon="7.10302">
        <ele>768</ele>
        <time>2023-05-06T08:48:08Z</time>
      </trkpt>
      <trkpt lat="47.83563" lon="7.10309">
        <ele>768</ele>
        <time>2023-05-06T08:48:13Z</time>
      </trkpt>
      <trkpt lat="47.83562" lon="7.1033">
        <ele>770</ele>
        <time>2023-05-06T08:48:28Z</time>
      </trkpt>
      <trkpt lat="47.83559" lon="7.10339">
        <ele>771</ele>
        <time>2023-05-06T08:48:34Z</time>
      </trkpt>
      <trkpt lat="47.83558" lon="7.10345">
        <ele>772</ele>
        <time>2023-05-06T08:48:39Z</time>
      </trkpt>
      <trkpt lat="47.83562" lon="7.10366">
        <ele>774</ele>
        <time>2023-05-06T08:48:53Z</time>
      </trkpt>
      <trkpt lat="47.83564" lon="7.10372">
        <ele>774</ele>
        <time>2023-05-06T08:48:57Z</time>
      </trkpt>
      <trkpt lat="47.83571" lon="7.10374">
        <ele>774</ele>
        <time>2023-05-06T08:49:03Z</time>
      </trkpt>
      <trkpt lat="47.83575" lon="7.10376">
        <ele>774</ele>
        <time>2023-05-06T08:49:08Z</time>
      </trkpt>
      <trkpt lat="47.8358" lon="7.1038">
        <ele>774</ele>
        <time>2023-05-06T08:49:13Z</time>
      </trkpt>
      <trkpt lat="47.83583" lon="7.10387">
        <ele>775</ele>
        <time>2023-05-06T08:49:18Z</time>
      </trkpt>
      <trkpt lat="47.83587" lon="7.1039">
        <ele>774</ele>
        <time>2023-05-06T08:49:22Z</time>
      </trkpt>
      <trkpt lat="47.83593" lon="7.10402">
        <ele>774</ele>
        <time>2023-05-06T08:49:30Z</time>
      </trkpt>
      <trkpt lat="47.83603" lon="7.10409">
        <ele>774</ele>
        <time>2023-05-06T08:49:40Z</time>
      </trkpt>
      <trkpt lat="47.83613" lon="7.10411">
        <ele>774</ele>
        <time>2023-05-06T08:49:50Z</time>
      </trkpt>
      <trkpt lat="47.83618" lon="7.10414">
        <ele>774</ele>
        <time>2023-05-06T08:49:54Z</time>
      </trkpt>
      <trkpt lat="47.83637" lon="7.10416">
        <ele>774</ele>
        <time>2023-05-06T08:50:10Z</time>
      </trkpt>
      <trkpt lat="47.83647" lon="7.1042">
        <ele>774</ele>
        <time>2023-05-06T08:50:20Z</time>
      </trkpt>
      <trkpt lat="47.83659" lon="7.10422">
        <ele>775</ele>
        <time>2023-05-06T08:50:31Z</time>
      </trkpt>
      <trkpt lat="47.83674" lon="7.10438">
        <ele>776</ele>
        <time>2023-05-06T08:50:48Z</time>
      </trkpt>
      <trkpt lat="47.83678" lon="7.10443">
        <ele>778</ele>
        <time>2023-05-06T08:50:54Z</time>
      </trkpt>
      <trkpt lat="47.83686" lon="7.1045">
        <ele>780</ele>
        <time>2023-05-06T08:51:04Z</time>
      </trkpt>
      <trkpt lat="47.83691" lon="7.10457">
        <ele>780</ele>
        <time>2023-05-06T08:51:10Z</time>
      </trkpt>
      <trkpt lat="47.83694" lon="7.10461">
        <ele>780</ele>
        <time>2023-05-06T08:51:14Z</time>
      </trkpt>
      <trkpt lat="47.83703" lon="7.10472">
        <ele>781</ele>
        <time>2023-05-06T08:51:24Z</time>
      </trkpt>
      <trkpt lat="47.83707" lon="7.10478">
        <ele>781</ele>
        <time>2023-05-06T08:51:28Z</time>
      </trkpt>
      <trkpt lat="47.83716" lon="7.10485">
        <ele>781</ele>
        <time>2023-05-06T08:51:37Z</time>
      </trkpt>
      <trkpt lat="47.83718" lon="7.1049">
        <ele>781</ele>
        <time>2023-05-06T08:51:41Z</time>
      </trkpt>
      <trkpt lat="47.83723" lon="7.10494">
        <ele>781</ele>
        <time>2023-05-06T08:51:45Z</time>
      </trkpt>
      <trkpt lat="47.83726" lon="7.10499">
        <ele>781</ele>
        <time>2023-05-06T08:51:50Z</time>
      </trkpt>
      <trkpt lat="47.83727" lon="7.10505">
        <ele>781</ele>
        <time>2023-05-06T08:51:54Z</time>
      </trkpt>
      <trkpt lat="47.83728" lon="7.10512">
        <ele>781</ele>
        <time>2023-05-06T08:51:58Z</time>
      </trkpt>
      <trkpt lat="47.83731" lon="7.10525">
        <ele>780</ele>
        <time>2023-05-06T08:52:06Z</time>
      </trkpt>
      <trkpt lat="47.83731" lon="7.10533">
        <ele>779</ele>
        <time>2023-05-06T08:52:11Z</time>
      </trkpt>
      <trkpt lat="47.83735" lon="7.10553">
        <ele>780</ele>
        <time>2023-05-06T08:52:23Z</time>
      </trkpt>
      <trkpt lat="47.83737" lon="7.10568">
        <ele>779</ele>
        <time>2023-05-06T08:52:31Z</time>
      </trkpt>
      <trkpt lat="47.83738" lon="7.10575">
        <ele>779</ele>
        <time>2023-05-06T08:52:35Z</time>
      </trkpt>
      <trkpt lat="47.83737" lon="7.10588">
        <ele>779</ele>
        <time>2023-05-06T08:52:43Z</time>
      </trkpt>
      <trkpt lat="47.83737" lon="7.10602">
        <ele>778</ele>
        <time>2023-05-06T08:52:51Z</time>
      </trkpt>
      <trkpt lat="47.83736" lon="7.1061">
        <ele>778</ele>
        <time>2023-05-06T08:52:55Z</time>
      </trkpt>
      <trkpt lat="47.83737" lon="7.10625">
        <ele>778</ele>
        <time>2023-05-06T08:53:04Z</time>
      </trkpt>
      <trkpt lat="47.83739" lon="7.10632">
        <ele>778</ele>
        <time>2023-05-06T08:53:08Z</time>
      </trkpt>
      <trkpt lat="47.83741" lon="7.10651">
        <ele>779</ele>
        <time>2023-05-06T08:53:19Z</time>
      </trkpt>
      <trkpt lat="47.83739" lon="7.10665">
        <ele>781</ele>
        <time>2023-05-06T08:53:28Z</time>
      </trkpt>
      <trkpt lat="47.83738" lon="7.1068">
        <ele>782</ele>
        <time>2023-05-06T08:53:37Z</time>
      </trkpt>
      <trkpt lat="47.83739" lon="7.10702">
        <ele>781</ele>
        <time>2023-05-06T08:53:50Z</time>
      </trkpt>
      <trkpt lat="47.83739" lon="7.10725">
        <ele>782</ele>
        <time>2023-05-06T08:54:04Z</time>
      </trkpt>
      <trkpt lat="47.83743" lon="7.10739">
        <ele>781</ele>
        <time>2023-05-06T08:54:12Z</time>
      </trkpt>
      <trkpt lat="47.83741" lon="7.10745">
        <ele>781</ele>
        <time>2023-05-06T08:54:16Z</time>
      </trkpt>
      <trkpt lat="47.83743" lon="7.10781">
        <ele>784</ele>
        <time>2023-05-06T08:54:36Z</time>
      </trkpt>
      <trkpt lat="47.83742" lon="7.10787">
        <ele>785</ele>
        <time>2023-05-06T08:54:40Z</time>
      </trkpt>
      <trkpt lat="47.83744" lon="7.10805">
        <ele>786</ele>
        <time>2023-05-06T08:54:52Z</time>
      </trkpt>
      <trkpt lat="47.83764" lon="7.10851">
        <ele>791</ele>
        <time>2023-05-06T08:55:27Z</time>
      </trkpt>
      <trkpt lat="47.83768" lon="7.10852">
        <ele>792</ele>
        <time>2023-05-06T08:55:32Z</time>
      </trkpt>
      <trkpt lat="47.83777" lon="7.10848">
        <ele>794</ele>
        <time>2023-05-06T08:55:44Z</time>
      </trkpt>
      <trkpt lat="47.83784" lon="7.10848">
        <ele>795</ele>
        <time>2023-05-06T08:55:54Z</time>
      </trkpt>
      <trkpt lat="47.83795" lon="7.10861">
        <ele>796</ele>
        <time>2023-05-06T08:56:07Z</time>
      </trkpt>
      <trkpt lat="47.83818" lon="7.10895">
        <ele>800</ele>
        <time>2023-05-06T08:56:38Z</time>
      </trkpt>
      <trkpt lat="47.8384" lon="7.10927">
        <ele>806</ele>
        <time>2023-05-06T08:57:11Z</time>
      </trkpt>
      <trkpt lat="47.83853" lon="7.10944">
        <ele>809</ele>
        <time>2023-05-06T08:57:29Z</time>
      </trkpt>
      <trkpt lat="47.83872" lon="7.10978">
        <ele>815</ele>
        <time>2023-05-06T08:58:01Z</time>
      </trkpt>
      <trkpt lat="47.83888" lon="7.10994">
        <ele>817</ele>
        <time>2023-05-06T08:58:22Z</time>
      </trkpt>
      <trkpt lat="47.83906" lon="7.11003">
        <ele>820</ele>
        <time>2023-05-06T08:58:42Z</time>
      </trkpt>
      <trkpt lat="47.83915" lon="7.11011">
        <ele>822</ele>
        <time>2023-05-06T08:58:52Z</time>
      </trkpt>
      <trkpt lat="47.83923" lon="7.11028">
        <ele>824</ele>
        <time>2023-05-06T08:59:06Z</time>
      </trkpt>
      <trkpt lat="47.83928" lon="7.11051">
        <ele>826</ele>
        <time>2023-05-06T08:59:21Z</time>
      </trkpt>
      <trkpt lat="47.83932" lon="7.1106">
        <ele>827</ele>
        <time>2023-05-06T08:59:29Z</time>
      </trkpt>
      <trkpt lat="47.83939" lon="7.11079">
        <ele>829</ele>
        <time>2023-05-06T08:59:42Z</time>
      </trkpt>
      <trkpt lat="47.83942" lon="7.11086">
        <ele>829</ele>
        <time>2023-05-06T08:59:46Z</time>
      </trkpt>
      <trkpt lat="47.83944" lon="7.11091">
        <ele>829</ele>
        <time>2023-05-06T08:59:50Z</time>
      </trkpt>
      <trkpt lat="47.83956" lon="7.11116">
        <ele>832</ele>
        <time>2023-05-06T09:00:08Z</time>
      </trkpt>
      <trkpt lat="47.83958" lon="7.11129">
        <ele>833</ele>
        <time>2023-05-06T09:00:17Z</time>
      </trkpt>
      <trkpt lat="47.83967" lon="7.11145">
        <ele>834</ele>
        <time>2023-05-06T09:00:30Z</time>
      </trkpt>
      <trkpt lat="47.83975" lon="7.11158">
        <ele>836</ele>
        <time>2023-05-06T09:00:43Z</time>
      </trkpt>
      <trkpt lat="47.83982" lon="7.1118">
        <ele>838</ele>
        <time>2023-05-06T09:01:00Z</time>
      </trkpt>
      <trkpt lat="47.83983" lon="7.11188">
        <ele>838</ele>
        <time>2023-05-06T09:01:05Z</time>
      </trkpt>
      <trkpt lat="47.83984" lon="7.11207">
        <ele>839</ele>
        <time>2023-05-06T09:01:17Z</time>
      </trkpt>
      <trkpt lat="47.83987" lon="7.11234">
        <ele>841</ele>
        <time>2023-05-06T09:01:33Z</time>
      </trkpt>
      <trkpt lat="47.83994" lon="7.11251">
        <ele>843</ele>
        <time>2023-05-06T09:01:46Z</time>
      </trkpt>
      <trkpt lat="47.83998" lon="7.11255">
        <ele>843</ele>
        <time>2023-05-06T09:01:50Z</time>
      </trkpt>
      <trkpt lat="47.84018" lon="7.11295">
        <ele>846</ele>
        <time>2023-05-06T09:02:23Z</time>
      </trkpt>
      <trkpt lat="47.84021" lon="7.11301">
        <ele>847</ele>
        <time>2023-05-06T09:02:28Z</time>
      </trkpt>
      <trkpt lat="47.84021" lon="7.11322">
        <ele>848</ele>
        <time>2023-05-06T09:02:42Z</time>
      </trkpt>
      <trkpt lat="47.8402" lon="7.11329">
        <ele>849</ele>
        <time>2023-05-06T09:02:46Z</time>
      </trkpt>
      <trkpt lat="47.84022" lon="7.1135">
        <ele>850</ele>
        <time>2023-05-06T09:03:00Z</time>
      </trkpt>
      <trkpt lat="47.84027" lon="7.11364">
        <ele>851</ele>
        <time>2023-05-06T09:03:08Z</time>
      </trkpt>
      <trkpt lat="47.84043" lon="7.11383">
        <ele>853</ele>
        <time>2023-05-06T09:03:23Z</time>
      </trkpt>
      <trkpt lat="47.84074" lon="7.11409">
        <ele>856</ele>
        <time>2023-05-06T09:03:56Z</time>
      </trkpt>
      <trkpt lat="47.84084" lon="7.11423">
        <ele>858</ele>
        <time>2023-05-06T09:04:09Z</time>
      </trkpt>
      <trkpt lat="47.84092" lon="7.11439">
        <ele>862</ele>
        <time>2023-05-06T09:04:30Z</time>
      </trkpt>
      <trkpt lat="47.84096" lon="7.11443">
        <ele>863</ele>
        <time>2023-05-06T09:04:35Z</time>
      </trkpt>
      <trkpt lat="47.84101" lon="7.11438">
        <ele>865</ele>
        <time>2023-05-06T09:04:49Z</time>
      </trkpt>
      <trkpt lat="47.84101" lon="7.11446">
        <ele>865</ele>
        <time>2023-05-06T09:05:26Z</time>
      </trkpt>
      <trkpt lat="47.84094" lon="7.11446">
        <ele>865</ele>
        <time>2023-05-06T09:05:38Z</time>
      </trkpt>
      <trkpt lat="47.84098" lon="7.11453">
        <ele>866</ele>
        <time>2023-05-06T09:05:47Z</time>
      </trkpt>
      <trkpt lat="47.84089" lon="7.11448">
        <ele>865</ele>
        <time>2023-05-06T09:06:01Z</time>
      </trkpt>
      <trkpt lat="47.8409" lon="7.11449">
        <ele>865</ele>
        <time>2023-05-06T09:06:12Z</time>
      </trkpt>
      <trkpt lat="47.84082" lon="7.11449">
        <ele>862</ele>
        <time>2023-05-06T09:06:25Z</time>
      </trkpt>
      <trkpt lat="47.8408" lon="7.11443">
        <ele>862</ele>
        <time>2023-05-06T09:06:29Z</time>
      </trkpt>
      <trkpt lat="47.84076" lon="7.11434">
        <ele>860</ele>
        <time>2023-05-06T09:06:37Z</time>
      </trkpt>
      <trkpt lat="47.84074" lon="7.11424">
        <ele>857</ele>
        <time>2023-05-06T09:06:45Z</time>
      </trkpt>
      <trkpt lat="47.84079" lon="7.11421">
        <ele>856</ele>
        <time>2023-05-06T09:06:48Z</time>
      </trkpt>
      <trkpt lat="47.84083" lon="7.11418">
        <ele>856</ele>
        <time>2023-05-06T09:06:51Z</time>
      </trkpt>
      <trkpt lat="47.84093" lon="7.11411">
        <ele>856</ele>
        <time>2023-05-06T09:06:59Z</time>
      </trkpt>
      <trkpt lat="47.84111" lon="7.11401">
        <ele>856</ele>
        <time>2023-05-06T09:07:14Z</time>
      </trkpt>
      <trkpt lat="47.84116" lon="7.11401">
        <ele>857</ele>
        <time>2023-05-06T09:07:18Z</time>
      </trkpt>
      <trkpt lat="47.8413" lon="7.11396">
        <ele>857</ele>
        <time>2023-05-06T09:07:30Z</time>
      </trkpt>
      <trkpt lat="47.84138" lon="7.11389">
        <ele>857</ele>
        <time>2023-05-06T09:07:37Z</time>
      </trkpt>
      <trkpt lat="47.84152" lon="7.11383">
        <ele>857</ele>
        <time>2023-05-06T09:07:50Z</time>
      </trkpt>
      <trkpt lat="47.8418" lon="7.11377">
        <ele>858</ele>
        <time>2023-05-06T09:08:13Z</time>
      </trkpt>
      <trkpt lat="47.84204" lon="7.11353">
        <ele>859</ele>
        <time>2023-05-06T09:08:39Z</time>
      </trkpt>
      <trkpt lat="47.84207" lon="7.11348">
        <ele>859</ele>
        <time>2023-05-06T09:08:43Z</time>
      </trkpt>
      <trkpt lat="47.84241" lon="7.11318">
        <ele>860</ele>
        <time>2023-05-06T09:09:15Z</time>
      </trkpt>
      <trkpt lat="47.84275" lon="7.11296">
        <ele>862</ele>
        <time>2023-05-06T09:09:46Z</time>
      </trkpt>
      <trkpt lat="47.84287" lon="7.11287">
        <ele>862</ele>
        <time>2023-05-06T09:09:58Z</time>
      </trkpt>
      <trkpt lat="47.84295" lon="7.11279">
        <ele>863</ele>
        <time>2023-05-06T09:10:06Z</time>
      </trkpt>
      <trkpt lat="47.84302" lon="7.11268">
        <ele>863</ele>
        <time>2023-05-06T09:10:14Z</time>
      </trkpt>
      <trkpt lat="47.84305" lon="7.11262">
        <ele>863</ele>
        <time>2023-05-06T09:10:19Z</time>
      </trkpt>
      <trkpt lat="47.84304" lon="7.11254">
        <ele>863</ele>
        <time>2023-05-06T09:10:24Z</time>
      </trkpt>
      <trkpt lat="47.843" lon="7.11248">
        <ele>864</ele>
        <time>2023-05-06T09:10:33Z</time>
      </trkpt>
      <trkpt lat="47.84295" lon="7.11249">
        <ele>864</ele>
        <time>2023-05-06T09:11:25Z</time>
      </trkpt>
      <trkpt lat="47.84323" lon="7.11266">
        <ele>862</ele>
        <time>2023-05-06T09:13:56Z</time>
      </trkpt>
      <trkpt lat="47.84332" lon="7.11263">
        <ele>862</ele>
        <time>2023-05-06T09:14:05Z</time>
      </trkpt>
      <trkpt lat="47.84352" lon="7.11258">
        <ele>863</ele>
        <time>2023-05-06T09:14:25Z</time>
      </trkpt>
      <trkpt lat="47.84359" lon="7.11261">
        <ele>863</ele>
        <time>2023-05-06T09:14:31Z</time>
      </trkpt>
      <trkpt lat="47.84367" lon="7.11269">
        <ele>863</ele>
        <time>2023-05-06T09:14:39Z</time>
      </trkpt>
      <trkpt lat="47.8438" lon="7.11293">
        <ele>864</ele>
        <time>2023-05-06T09:14:58Z</time>
      </trkpt>
      <trkpt lat="47.84389" lon="7.11319">
        <ele>865</ele>
        <time>2023-05-06T09:15:16Z</time>
      </trkpt>
      <trkpt lat="47.8439" lon="7.11326">
        <ele>865</ele>
        <time>2023-05-06T09:15:20Z</time>
      </trkpt>
      <trkpt lat="47.84393" lon="7.11361">
        <ele>867</ele>
        <time>2023-05-06T09:15:42Z</time>
      </trkpt>
      <trkpt lat="47.8441" lon="7.11414">
        <ele>869</ele>
        <time>2023-05-06T09:16:14Z</time>
      </trkpt>
      <trkpt lat="47.84419" lon="7.11469">
        <ele>870</ele>
        <time>2023-05-06T09:16:47Z</time>
      </trkpt>
      <trkpt lat="47.84423" lon="7.11484">
        <ele>870</ele>
        <time>2023-05-06T09:16:56Z</time>
      </trkpt>
      <trkpt lat="47.84427" lon="7.11489">
        <ele>870</ele>
        <time>2023-05-06T09:17:01Z</time>
      </trkpt>
      <trkpt lat="47.84431" lon="7.11501">
        <ele>871</ele>
        <time>2023-05-06T09:17:09Z</time>
      </trkpt>
      <trkpt lat="47.84453" lon="7.11529">
        <ele>872</ele>
        <time>2023-05-06T09:17:34Z</time>
      </trkpt>
      <trkpt lat="47.84469" lon="7.11546">
        <ele>873</ele>
        <time>2023-05-06T09:17:50Z</time>
      </trkpt>
      <trkpt lat="47.84488" lon="7.11568">
        <ele>875</ele>
        <time>2023-05-06T09:18:11Z</time>
      </trkpt>
      <trkpt lat="47.84496" lon="7.11574">
        <ele>875</ele>
        <time>2023-05-06T09:18:19Z</time>
      </trkpt>
      <trkpt lat="47.84509" lon="7.1158">
        <ele>874</ele>
        <time>2023-05-06T09:18:32Z</time>
      </trkpt>
      <trkpt lat="47.84513" lon="7.1158">
        <ele>875</ele>
        <time>2023-05-06T09:18:36Z</time>
      </trkpt>
      <trkpt lat="47.8453" lon="7.11585">
        <ele>875</ele>
        <time>2023-05-06T09:18:50Z</time>
      </trkpt>
      <trkpt lat="47.84552" lon="7.11586">
        <ele>875</ele>
        <time>2023-05-06T09:19:10Z</time>
      </trkpt>
      <trkpt lat="47.84557" lon="7.11588">
        <ele>875</ele>
        <time>2023-05-06T09:19:14Z</time>
      </trkpt>
      <trkpt lat="47.84592" lon="7.1161">
        <ele>875</ele>
        <time>2023-05-06T09:19:45Z</time>
      </trkpt>
      <trkpt lat="47.84617" lon="7.11623">
        <ele>878</ele>
        <time>2023-05-06T09:20:09Z</time>
      </trkpt>
      <trkpt lat="47.84633" lon="7.11626">
        <ele>880</ele>
        <time>2023-05-06T09:20:23Z</time>
      </trkpt>
      <trkpt lat="47.84637" lon="7.11628">
        <ele>880</ele>
        <time>2023-05-06T09:20:27Z</time>
      </trkpt>
      <trkpt lat="47.84659" lon="7.11627">
        <ele>884</ele>
        <time>2023-05-06T09:20:52Z</time>
      </trkpt>
      <trkpt lat="47.84686" lon="7.11621">
        <ele>888</ele>
        <time>2023-05-06T09:21:21Z</time>
      </trkpt>
      <trkpt lat="47.84713" lon="7.11598">
        <ele>891</ele>
        <time>2023-05-06T09:21:52Z</time>
      </trkpt>
      <trkpt lat="47.84719" lon="7.11595">
        <ele>891</ele>
        <time>2023-05-06T09:21:59Z</time>
      </trkpt>
      <trkpt lat="47.84741" lon="7.1158">
        <ele>894</ele>
        <time>2023-05-06T09:22:22Z</time>
      </trkpt>
      <trkpt lat="47.84745" lon="7.11579">
        <ele>894</ele>
        <time>2023-05-06T09:22:25Z</time>
      </trkpt>
      <trkpt lat="47.84774" lon="7.11566">
        <ele>898</ele>
        <time>2023-05-06T09:22:54Z</time>
      </trkpt>
      <trkpt lat="47.84798" lon="7.11535">
        <ele>901</ele>
        <time>2023-05-06T09:23:25Z</time>
      </trkpt>
      <trkpt lat="47.84824" lon="7.1151">
        <ele>904</ele>
        <time>2023-05-06T09:23:57Z</time>
      </trkpt>
      <trkpt lat="47.84839" lon="7.11505">
        <ele>906</ele>
        <time>2023-05-06T09:24:13Z</time>
      </trkpt>
      <trkpt lat="47.84851" lon="7.11508">
        <ele>907</ele>
        <time>2023-05-06T09:24:24Z</time>
      </trkpt>
      <trkpt lat="47.84858" lon="7.11518">
        <ele>908</ele>
        <time>2023-05-06T09:24:32Z</time>
      </trkpt>
      <trkpt lat="47.84862" lon="7.11531">
        <ele>908</ele>
        <time>2023-05-06T09:24:40Z</time>
      </trkpt>
      <trkpt lat="47.84862" lon="7.11538">
        <ele>908</ele>
        <time>2023-05-06T09:24:44Z</time>
      </trkpt>
      <trkpt lat="47.84855" lon="7.11578">
        <ele>909</ele>
        <time>2023-05-06T09:25:08Z</time>
      </trkpt>
      <trkpt lat="47.84857" lon="7.11593">
        <ele>910</ele>
        <time>2023-05-06T09:25:16Z</time>
      </trkpt>
      <trkpt lat="47.84857" lon="7.11615">
        <ele>910</ele>
        <time>2023-05-06T09:25:30Z</time>
      </trkpt>
      <trkpt lat="47.84861" lon="7.11636">
        <ele>911</ele>
        <time>2023-05-06T09:25:43Z</time>
      </trkpt>
      <trkpt lat="47.84865" lon="7.11641">
        <ele>911</ele>
        <time>2023-05-06T09:25:47Z</time>
      </trkpt>
      <trkpt lat="47.84872" lon="7.11667">
        <ele>912</ele>
        <time>2023-05-06T09:26:04Z</time>
      </trkpt>
      <trkpt lat="47.84872" lon="7.11678">
        <ele>912</ele>
        <time>2023-05-06T09:26:11Z</time>
      </trkpt>
      <trkpt lat="47.84881" lon="7.11731">
        <ele>914</ele>
        <time>2023-05-06T09:26:41Z</time>
      </trkpt>
      <trkpt lat="47.84883" lon="7.11747">
        <ele>914</ele>
        <time>2023-05-06T09:26:49Z</time>
      </trkpt>
      <trkpt lat="47.84884" lon="7.11774">
        <ele>916</ele>
        <time>2023-05-06T09:27:05Z</time>
      </trkpt>
      <trkpt lat="47.84881" lon="7.11788">
        <ele>916</ele>
        <time>2023-05-06T09:27:13Z</time>
      </trkpt>
      <trkpt lat="47.84881" lon="7.11795">
        <ele>916</ele>
        <time>2023-05-06T09:27:18Z</time>
      </trkpt>
      <trkpt lat="47.84892" lon="7.11826">
        <ele>921</ele>
        <time>2023-05-06T09:27:50Z</time>
      </trkpt>
      <trkpt lat="47.84898" lon="7.11839">
        <ele>922</ele>
        <time>2023-05-06T09:28:00Z</time>
      </trkpt>
      <trkpt lat="47.84904" lon="7.11845">
        <ele>923</ele>
        <time>2023-05-06T09:28:09Z</time>
      </trkpt>
      <trkpt lat="47.84915" lon="7.11871">
        <ele>926</ele>
        <time>2023-05-06T09:28:29Z</time>
      </trkpt>
      <trkpt lat="47.84919" lon="7.11878">
        <ele>927</ele>
        <time>2023-05-06T09:28:35Z</time>
      </trkpt>
      <trkpt lat="47.84921" lon="7.11894">
        <ele>929</ele>
        <time>2023-05-06T09:28:47Z</time>
      </trkpt>
      <trkpt lat="47.84923" lon="7.11902">
        <ele>930</ele>
        <time>2023-05-06T09:28:54Z</time>
      </trkpt>
      <trkpt lat="47.84925" lon="7.11912">
        <ele>931</ele>
        <time>2023-05-06T09:29:03Z</time>
      </trkpt>
      <trkpt lat="47.84926" lon="7.1192">
        <ele>931</ele>
        <time>2023-05-06T09:29:08Z</time>
      </trkpt>
      <trkpt lat="47.84933" lon="7.11968">
        <ele>937</ele>
        <time>2023-05-06T09:29:47Z</time>
      </trkpt>
      <trkpt lat="47.84934" lon="7.11974">
        <ele>937</ele>
        <time>2023-05-06T09:29:52Z</time>
      </trkpt>
      <trkpt lat="47.84934" lon="7.11982">
        <ele>939</ele>
        <time>2023-05-06T09:29:59Z</time>
      </trkpt>
      <trkpt lat="47.84936" lon="7.11992">
        <ele>940</ele>
        <time>2023-05-06T09:30:07Z</time>
      </trkpt>
      <trkpt lat="47.84947" lon="7.12013">
        <ele>943</ele>
        <time>2023-05-06T09:30:28Z</time>
      </trkpt>
      <trkpt lat="47.84948" lon="7.12019">
        <ele>944</ele>
        <time>2023-05-06T09:30:32Z</time>
      </trkpt>
      <trkpt lat="47.84947" lon="7.12026">
        <ele>944</ele>
        <time>2023-05-06T09:30:36Z</time>
      </trkpt>
      <trkpt lat="47.84948" lon="7.12032">
        <ele>944</ele>
        <time>2023-05-06T09:30:39Z</time>
      </trkpt>
      <trkpt lat="47.84948" lon="7.12039">
        <ele>944</ele>
        <time>2023-05-06T09:30:43Z</time>
      </trkpt>
      <trkpt lat="47.84949" lon="7.1205">
        <ele>945</ele>
        <time>2023-05-06T09:30:50Z</time>
      </trkpt>
      <trkpt lat="47.84949" lon="7.12068">
        <ele>947</ele>
        <time>2023-05-06T09:31:02Z</time>
      </trkpt>
      <trkpt lat="47.84947" lon="7.12075">
        <ele>947</ele>
        <time>2023-05-06T09:31:06Z</time>
      </trkpt>
      <trkpt lat="47.84945" lon="7.1208">
        <ele>948</ele>
        <time>2023-05-06T09:31:11Z</time>
      </trkpt>
      <trkpt lat="47.84944" lon="7.12099">
        <ele>950</ele>
        <time>2023-05-06T09:31:24Z</time>
      </trkpt>
      <trkpt lat="47.84945" lon="7.12113">
        <ele>952</ele>
        <time>2023-05-06T09:31:34Z</time>
      </trkpt>
      <trkpt lat="47.84953" lon="7.12144">
        <ele>956</ele>
        <time>2023-05-06T09:32:03Z</time>
      </trkpt>
      <trkpt lat="47.84958" lon="7.12138">
        <ele>959</ele>
        <time>2023-05-06T09:32:21Z</time>
      </trkpt>
      <trkpt lat="47.8496" lon="7.12131">
        <ele>960</ele>
        <time>2023-05-06T09:32:26Z</time>
      </trkpt>
      <trkpt lat="47.84963" lon="7.12123">
        <ele>961</ele>
        <time>2023-05-06T09:32:32Z</time>
      </trkpt>
      <trkpt lat="47.84968" lon="7.12121">
        <ele>963</ele>
        <time>2023-05-06T09:32:41Z</time>
      </trkpt>
      <trkpt lat="47.84971" lon="7.12124">
        <ele>964</ele>
        <time>2023-05-06T09:32:44Z</time>
      </trkpt>
      <trkpt lat="47.84979" lon="7.12135">
        <ele>966</ele>
        <time>2023-05-06T09:32:57Z</time>
      </trkpt>
      <trkpt lat="47.84987" lon="7.12139">
        <ele>968</ele>
        <time>2023-05-06T09:33:06Z</time>
      </trkpt>
      <trkpt lat="47.85003" lon="7.12153">
        <ele>971</ele>
        <time>2023-05-06T09:33:26Z</time>
      </trkpt>
      <trkpt lat="47.85006" lon="7.12158">
        <ele>971</ele>
        <time>2023-05-06T09:33:31Z</time>
      </trkpt>
      <trkpt lat="47.85012" lon="7.12158">
        <ele>973</ele>
        <time>2023-05-06T09:33:39Z</time>
      </trkpt>
      <trkpt lat="47.85015" lon="7.12164">
        <ele>974</ele>
        <time>2023-05-06T09:33:44Z</time>
      </trkpt>
      <trkpt lat="47.85018" lon="7.12176">
        <ele>974</ele>
        <time>2023-05-06T09:33:53Z</time>
      </trkpt>
      <trkpt lat="47.85019" lon="7.12182">
        <ele>975</ele>
        <time>2023-05-06T09:33:58Z</time>
      </trkpt>
      <trkpt lat="47.85021" lon="7.12199">
        <ele>977</ele>
        <time>2023-05-06T09:34:10Z</time>
      </trkpt>
      <trkpt lat="47.85024" lon="7.12206">
        <ele>978</ele>
        <time>2023-05-06T09:34:18Z</time>
      </trkpt>
      <trkpt lat="47.85028" lon="7.12227">
        <ele>981</ele>
        <time>2023-05-06T09:34:34Z</time>
      </trkpt>
      <trkpt lat="47.8505" lon="7.12257">
        <ele>985</ele>
        <time>2023-05-06T09:35:06Z</time>
      </trkpt>
      <trkpt lat="47.85052" lon="7.12262">
        <ele>986</ele>
        <time>2023-05-06T09:35:11Z</time>
      </trkpt>
      <trkpt lat="47.85055" lon="7.12268">
        <ele>986</ele>
        <time>2023-05-06T09:35:15Z</time>
      </trkpt>
      <trkpt lat="47.85059" lon="7.12274">
        <ele>987</ele>
        <time>2023-05-06T09:35:22Z</time>
      </trkpt>
      <trkpt lat="47.8506" lon="7.12283">
        <ele>988</ele>
        <time>2023-05-06T09:35:28Z</time>
      </trkpt>
      <trkpt lat="47.85064" lon="7.12291">
        <ele>989</ele>
        <time>2023-05-06T09:35:35Z</time>
      </trkpt>
      <trkpt lat="47.85066" lon="7.12306">
        <ele>990</ele>
        <time>2023-05-06T09:35:44Z</time>
      </trkpt>
      <trkpt lat="47.85065" lon="7.12319">
        <ele>992</ele>
        <time>2023-05-06T09:35:53Z</time>
      </trkpt>
      <trkpt lat="47.85061" lon="7.12326">
        <ele>992</ele>
        <time>2023-05-06T09:36:01Z</time>
      </trkpt>
      <trkpt lat="47.85058" lon="7.12331">
        <ele>991</ele>
        <time>2023-05-06T09:36:05Z</time>
      </trkpt>
      <trkpt lat="47.85054" lon="7.12338">
        <ele>991</ele>
        <time>2023-05-06T09:36:11Z</time>
      </trkpt>
      <trkpt lat="47.85049" lon="7.12342">
        <ele>991</ele>
        <time>2023-05-06T09:36:16Z</time>
      </trkpt>
      <trkpt lat="47.85046" lon="7.12351">
        <ele>990</ele>
        <time>2023-05-06T09:36:24Z</time>
      </trkpt>
      <trkpt lat="47.85048" lon="7.12355">
        <ele>992</ele>
        <time>2023-05-06T09:37:29Z</time>
      </trkpt>
      <trkpt lat="47.85055" lon="7.12356">
        <ele>993</ele>
        <time>2023-05-06T09:37:36Z</time>
      </trkpt>
      <trkpt lat="47.8506" lon="7.12367">
        <ele>994</ele>
        <time>2023-05-06T09:37:39Z</time>
      </trkpt>
      <trkpt lat="47.85062" lon="7.12368">
        <ele>996</ele>
        <time>2023-05-06T09:38:07Z</time>
      </trkpt>
      <trkpt lat="47.85064" lon="7.12379">
        <ele>998</ele>
        <time>2023-05-06T09:38:20Z</time>
      </trkpt>
      <trkpt lat="47.85064" lon="7.12386">
        <ele>999</ele>
        <time>2023-05-06T09:38:26Z</time>
      </trkpt>
      <trkpt lat="47.85066" lon="7.12392">
        <ele>1000</ele>
        <time>2023-05-06T09:38:32Z</time>
      </trkpt>
      <trkpt lat="47.85069" lon="7.12421">
        <ele>1003</ele>
        <time>2023-05-06T09:38:52Z</time>
      </trkpt>
      <trkpt lat="47.85072" lon="7.12436">
        <ele>1004</ele>
        <time>2023-05-06T09:39:04Z</time>
      </trkpt>
      <trkpt lat="47.85074" lon="7.12455">
        <ele>1006</ele>
        <time>2023-05-06T09:39:17Z</time>
      </trkpt>
      <trkpt lat="47.85075" lon="7.12461">
        <ele>1006</ele>
        <time>2023-05-06T09:39:21Z</time>
      </trkpt>
      <trkpt lat="47.85075" lon="7.12467">
        <ele>1007</ele>
        <time>2023-05-06T09:39:26Z</time>
      </trkpt>
      <trkpt lat="47.85076" lon="7.1249">
        <ele>1010</ele>
        <time>2023-05-06T09:39:45Z</time>
      </trkpt>
      <trkpt lat="47.85079" lon="7.12498">
        <ele>1011</ele>
        <time>2023-05-06T09:39:50Z</time>
      </trkpt>
      <trkpt lat="47.85085" lon="7.12541">
        <ele>1014</ele>
        <time>2023-05-06T09:40:22Z</time>
      </trkpt>
      <trkpt lat="47.85087" lon="7.12551">
        <ele>1015</ele>
        <time>2023-05-06T09:40:29Z</time>
      </trkpt>
      <trkpt lat="47.85089" lon="7.1258">
        <ele>1018</ele>
        <time>2023-05-06T09:40:52Z</time>
      </trkpt>
      <trkpt lat="47.85091" lon="7.12586">
        <ele>1019</ele>
        <time>2023-05-06T09:40:56Z</time>
      </trkpt>
      <trkpt lat="47.85092" lon="7.12595">
        <ele>1020</ele>
        <time>2023-05-06T09:41:03Z</time>
      </trkpt>
      <trkpt lat="47.85097" lon="7.12641">
        <ele>1026</ele>
        <time>2023-05-06T09:41:36Z</time>
      </trkpt>
      <trkpt lat="47.85098" lon="7.12649">
        <ele>1026</ele>
        <time>2023-05-06T09:41:41Z</time>
      </trkpt>
      <trkpt lat="47.85102" lon="7.12663">
        <ele>1027</ele>
        <time>2023-05-06T09:41:52Z</time>
      </trkpt>
      <trkpt lat="47.85103" lon="7.12671">
        <ele>1028</ele>
        <time>2023-05-06T09:41:56Z</time>
      </trkpt>
      <trkpt lat="47.85109" lon="7.12693">
        <ele>1030</ele>
        <time>2023-05-06T09:42:15Z</time>
      </trkpt>
      <trkpt lat="47.85113" lon="7.12716">
        <ele>1032</ele>
        <time>2023-05-06T09:42:32Z</time>
      </trkpt>
      <trkpt lat="47.85116" lon="7.12721">
        <ele>1033</ele>
        <time>2023-05-06T09:42:37Z</time>
      </trkpt>
      <trkpt lat="47.8512" lon="7.12739">
        <ele>1036</ele>
        <time>2023-05-06T09:42:52Z</time>
      </trkpt>
      <trkpt lat="47.85124" lon="7.12765">
        <ele>1039</ele>
        <time>2023-05-06T09:43:12Z</time>
      </trkpt>
      <trkpt lat="47.85133" lon="7.12808">
        <ele>1044</ele>
        <time>2023-05-06T09:43:42Z</time>
      </trkpt>
      <trkpt lat="47.85135" lon="7.12826">
        <ele>1046</ele>
        <time>2023-05-06T09:43:57Z</time>
      </trkpt>
      <trkpt lat="47.85135" lon="7.12833">
        <ele>1047</ele>
        <time>2023-05-06T09:44:03Z</time>
      </trkpt>
      <trkpt lat="47.85139" lon="7.12863">
        <ele>1051</ele>
        <time>2023-05-06T09:44:26Z</time>
      </trkpt>
      <trkpt lat="47.8514" lon="7.12909">
        <ele>1056</ele>
        <time>2023-05-06T09:45:03Z</time>
      </trkpt>
      <trkpt lat="47.85141" lon="7.12915">
        <ele>1057</ele>
        <time>2023-05-06T09:45:08Z</time>
      </trkpt>
      <trkpt lat="47.85143" lon="7.12921">
        <ele>1058</ele>
        <time>2023-05-06T09:45:14Z</time>
      </trkpt>
      <trkpt lat="47.85145" lon="7.12956">
        <ele>1062</ele>
        <time>2023-05-06T09:45:41Z</time>
      </trkpt>
      <trkpt lat="47.85143" lon="7.12964">
        <ele>1062</ele>
        <time>2023-05-06T09:45:47Z</time>
      </trkpt>
      <trkpt lat="47.85145" lon="7.12987">
        <ele>1065</ele>
        <time>2023-05-06T09:46:08Z</time>
      </trkpt>
      <trkpt lat="47.85145" lon="7.12994">
        <ele>1066</ele>
        <time>2023-05-06T09:46:14Z</time>
      </trkpt>
      <trkpt lat="47.85146" lon="7.13016">
        <ele>1069</ele>
        <time>2023-05-06T09:46:32Z</time>
      </trkpt>
      <trkpt lat="47.85148" lon="7.13022">
        <ele>1069</ele>
        <time>2023-05-06T09:46:37Z</time>
      </trkpt>
      <trkpt lat="47.85149" lon="7.13031">
        <ele>1071</ele>
        <time>2023-05-06T09:46:44Z</time>
      </trkpt>
      <trkpt lat="47.85155" lon="7.13056">
        <ele>1074</ele>
        <time>2023-05-06T09:47:04Z</time>
      </trkpt>
      <trkpt lat="47.85163" lon="7.13098">
        <ele>1078</ele>
        <time>2023-05-06T09:47:36Z</time>
      </trkpt>
      <trkpt lat="47.85163" lon="7.13109">
        <ele>1080</ele>
        <time>2023-05-06T09:47:44Z</time>
      </trkpt>
      <trkpt lat="47.85165" lon="7.13115">
        <ele>1080</ele>
        <time>2023-05-06T09:47:50Z</time>
      </trkpt>
      <trkpt lat="47.85166" lon="7.1313">
        <ele>1082</ele>
        <time>2023-05-06T09:48:02Z</time>
      </trkpt>
      <trkpt lat="47.85168" lon="7.13135">
        <ele>1083</ele>
        <time>2023-05-06T09:48:06Z</time>
      </trkpt>
      <trkpt lat="47.85172" lon="7.13191">
        <ele>1086</ele>
        <time>2023-05-06T09:48:43Z</time>
      </trkpt>
      <trkpt lat="47.85171" lon="7.13215">
        <ele>1088</ele>
        <time>2023-05-06T09:48:59Z</time>
      </trkpt>
      <trkpt lat="47.85168" lon="7.1322">
        <ele>1089</ele>
        <time>2023-05-06T09:49:04Z</time>
      </trkpt>
      <trkpt lat="47.85168" lon="7.13227">
        <ele>1089</ele>
        <time>2023-05-06T09:49:08Z</time>
      </trkpt>
      <trkpt lat="47.85168" lon="7.13243">
        <ele>1090</ele>
        <time>2023-05-06T09:49:20Z</time>
      </trkpt>
      <trkpt lat="47.85166" lon="7.13248">
        <ele>1091</ele>
        <time>2023-05-06T09:50:09Z</time>
      </trkpt>
      <trkpt lat="47.85162" lon="7.1325">
        <ele>1090</ele>
        <time>2023-05-06T09:50:56Z</time>
      </trkpt>
      <trkpt lat="47.85158" lon="7.13256">
        <ele>1090</ele>
        <time>2023-05-06T09:51:08Z</time>
      </trkpt>
      <trkpt lat="47.8515" lon="7.13261">
        <ele>1090</ele>
        <time>2023-05-06T09:51:16Z</time>
      </trkpt>
      <trkpt lat="47.85143" lon="7.13271">
        <ele>1090</ele>
        <time>2023-05-06T09:51:23Z</time>
      </trkpt>
      <trkpt lat="47.85147" lon="7.13279">
        <ele>1090</ele>
        <time>2023-05-06T09:51:33Z</time>
      </trkpt>
      <trkpt lat="47.8514" lon="7.13282">
        <ele>1091</ele>
        <time>2023-05-06T09:51:45Z</time>
      </trkpt>
      <trkpt lat="47.85157" lon="7.13249">
        <ele>1092</ele>
        <time>2023-05-06T10:36:53Z</time>
      </trkpt>
      <trkpt lat="47.85167" lon="7.13247">
        <ele>1092</ele>
        <time>2023-05-06T10:37:30Z</time>
      </trkpt>
      <trkpt lat="47.85187" lon="7.13276">
        <ele>1097</ele>
        <time>2023-05-06T10:39:59Z</time>
      </trkpt>
      <trkpt lat="47.85198" lon="7.13304">
        <ele>1099</ele>
        <time>2023-05-06T10:40:20Z</time>
      </trkpt>
      <trkpt lat="47.852" lon="7.13309">
        <ele>1099</ele>
        <time>2023-05-06T10:40:25Z</time>
      </trkpt>
      <trkpt lat="47.85204" lon="7.13314">
        <ele>1100</ele>
        <time>2023-05-06T10:40:30Z</time>
      </trkpt>
      <trkpt lat="47.85209" lon="7.13314">
        <ele>1100</ele>
        <time>2023-05-06T10:40:35Z</time>
      </trkpt>
      <trkpt lat="47.85215" lon="7.13325">
        <ele>1099</ele>
        <time>2023-05-06T10:40:47Z</time>
      </trkpt>
      <trkpt lat="47.85238" lon="7.13336">
        <ele>1098</ele>
        <time>2023-05-06T10:41:10Z</time>
      </trkpt>
      <trkpt lat="47.85243" lon="7.13341">
        <ele>1097</ele>
        <time>2023-05-06T10:41:17Z</time>
      </trkpt>
      <trkpt lat="47.85248" lon="7.13343">
        <ele>1096</ele>
        <time>2023-05-06T10:41:22Z</time>
      </trkpt>
      <trkpt lat="47.85257" lon="7.13352">
        <ele>1094</ele>
        <time>2023-05-06T10:41:34Z</time>
      </trkpt>
      <trkpt lat="47.85259" lon="7.13359">
        <ele>1093</ele>
        <time>2023-05-06T10:41:47Z</time>
      </trkpt>
      <trkpt lat="47.85266" lon="7.13375">
        <ele>1091</ele>
        <time>2023-05-06T10:42:00Z</time>
      </trkpt>
      <trkpt lat="47.85282" lon="7.13413">
        <ele>1082</ele>
        <time>2023-05-06T10:42:31Z</time>
      </trkpt>
      <trkpt lat="47.85296" lon="7.1345">
        <ele>1073</ele>
        <time>2023-05-06T10:43:03Z</time>
      </trkpt>
      <trkpt lat="47.85313" lon="7.13489">
        <ele>1063</ele>
        <time>2023-05-06T10:43:35Z</time>
      </trkpt>
      <trkpt lat="47.85321" lon="7.13507">
        <ele>1058</ele>
        <time>2023-05-06T10:43:49Z</time>
      </trkpt>
      <trkpt lat="47.85323" lon="7.13515">
        <ele>1057</ele>
        <time>2023-05-06T10:43:54Z</time>
      </trkpt>
      <trkpt lat="47.85325" lon="7.1352">
        <ele>1056</ele>
        <time>2023-05-06T10:43:58Z</time>
      </trkpt>
      <trkpt lat="47.85329" lon="7.13529">
        <ele>1053</ele>
        <time>2023-05-06T10:44:06Z</time>
      </trkpt>
      <trkpt lat="47.85332" lon="7.13537">
        <ele>1051</ele>
        <time>2023-05-06T10:44:11Z</time>
      </trkpt>
      <trkpt lat="47.85332" lon="7.13544">
        <ele>1050</ele>
        <time>2023-05-06T10:44:15Z</time>
      </trkpt>
      <trkpt lat="47.8533" lon="7.13552">
        <ele>1049</ele>
        <time>2023-05-06T10:44:19Z</time>
      </trkpt>
      <trkpt lat="47.85327" lon="7.13558">
        <ele>1049</ele>
        <time>2023-05-06T10:44:23Z</time>
      </trkpt>
      <trkpt lat="47.85325" lon="7.13564">
        <ele>1049</ele>
        <time>2023-05-06T10:44:27Z</time>
      </trkpt>
      <trkpt lat="47.85325" lon="7.13579">
        <ele>1047</ele>
        <time>2023-05-06T10:44:41Z</time>
      </trkpt>
      <trkpt lat="47.85324" lon="7.13585">
        <ele>1046</ele>
        <time>2023-05-06T10:44:46Z</time>
      </trkpt>
      <trkpt lat="47.85329" lon="7.13587">
        <ele>1045</ele>
        <time>2023-05-06T10:44:54Z</time>
      </trkpt>
      <trkpt lat="47.85333" lon="7.13585">
        <ele>1044</ele>
        <time>2023-05-06T10:44:58Z</time>
      </trkpt>
      <trkpt lat="47.8535" lon="7.1357">
        <ele>1043</ele>
        <time>2023-05-06T10:45:16Z</time>
      </trkpt>
      <trkpt lat="47.85366" lon="7.13555">
        <ele>1043</ele>
        <time>2023-05-06T10:45:32Z</time>
      </trkpt>
      <trkpt lat="47.85403" lon="7.13536">
        <ele>1039</ele>
        <time>2023-05-06T10:46:04Z</time>
      </trkpt>
      <trkpt lat="47.8544" lon="7.13522">
        <ele>1034</ele>
        <time>2023-05-06T10:46:35Z</time>
      </trkpt>
      <trkpt lat="47.8546" lon="7.13515">
        <ele>1031</ele>
        <time>2023-05-06T10:46:51Z</time>
      </trkpt>
      <trkpt lat="47.85475" lon="7.13516">
        <ele>1029</ele>
        <time>2023-05-06T10:47:03Z</time>
      </trkpt>
      <trkpt lat="47.85502" lon="7.13531">
        <ele>1026</ele>
        <time>2023-05-06T10:47:28Z</time>
      </trkpt>
      <trkpt lat="47.85513" lon="7.13539">
        <ele>1024</ele>
        <time>2023-05-06T10:47:37Z</time>
      </trkpt>
      <trkpt lat="47.85517" lon="7.13543">
        <ele>1024</ele>
        <time>2023-05-06T10:47:41Z</time>
      </trkpt>
      <trkpt lat="47.8555" lon="7.13574">
        <ele>1018</ele>
        <time>2023-05-06T10:48:13Z</time>
      </trkpt>
      <trkpt lat="47.8557" lon="7.13592">
        <ele>1016</ele>
        <time>2023-05-06T10:48:32Z</time>
      </trkpt>
      <trkpt lat="47.85583" lon="7.136">
        <ele>1014</ele>
        <time>2023-05-06T10:48:43Z</time>
      </trkpt>
      <trkpt lat="47.85587" lon="7.13602">
        <ele>1013</ele>
        <time>2023-05-06T10:48:47Z</time>
      </trkpt>
      <trkpt lat="47.8562" lon="7.13622">
        <ele>1011</ele>
        <time>2023-05-06T10:49:19Z</time>
      </trkpt>
      <trkpt lat="47.85634" lon="7.13629">
        <ele>1010</ele>
        <time>2023-05-06T10:49:32Z</time>
      </trkpt>
      <trkpt lat="47.85654" lon="7.13662">
        <ele>1007</ele>
        <time>2023-05-06T10:49:56Z</time>
      </trkpt>
      <trkpt lat="47.85669" lon="7.13696">
        <ele>1005</ele>
        <time>2023-05-06T10:50:21Z</time>
      </trkpt>
      <trkpt lat="47.8568" lon="7.1371">
        <ele>1003</ele>
        <time>2023-05-06T10:50:38Z</time>
      </trkpt>
      <trkpt lat="47.85686" lon="7.13719">
        <ele>1003</ele>
        <time>2023-05-06T10:50:46Z</time>
      </trkpt>
      <trkpt lat="47.85694" lon="7.13753">
        <ele>999</ele>
        <time>2023-05-06T10:51:07Z</time>
      </trkpt>
      <trkpt lat="47.85698" lon="7.13758">
        <ele>999</ele>
        <time>2023-05-06T10:51:11Z</time>
      </trkpt>
      <trkpt lat="47.85702" lon="7.13762">
        <ele>999</ele>
        <time>2023-05-06T10:51:14Z</time>
      </trkpt>
      <trkpt lat="47.85712" lon="7.13775">
        <ele>999</ele>
        <time>2023-05-06T10:51:25Z</time>
      </trkpt>
      <trkpt lat="47.85718" lon="7.13789">
        <ele>1000</ele>
        <time>2023-05-06T10:51:36Z</time>
      </trkpt>
      <trkpt lat="47.85726" lon="7.13801">
        <ele>1002</ele>
        <time>2023-05-06T10:51:48Z</time>
      </trkpt>
      <trkpt lat="47.85731" lon="7.13812">
        <ele>1003</ele>
        <time>2023-05-06T10:51:57Z</time>
      </trkpt>
      <trkpt lat="47.85746" lon="7.13831">
        <ele>1007</ele>
        <time>2023-05-06T10:52:16Z</time>
      </trkpt>
      <trkpt lat="47.85748" lon="7.13837">
        <ele>1007</ele>
        <time>2023-05-06T10:52:20Z</time>
      </trkpt>
      <trkpt lat="47.8577" lon="7.13867">
        <ele>1007</ele>
        <time>2023-05-06T10:52:43Z</time>
      </trkpt>
      <trkpt lat="47.85773" lon="7.13873">
        <ele>1007</ele>
        <time>2023-05-06T10:52:47Z</time>
      </trkpt>
      <trkpt lat="47.85764" lon="7.1389">
        <ele>1006</ele>
        <time>2023-05-06T10:52:56Z</time>
      </trkpt>
      <trkpt lat="47.85762" lon="7.13897">
        <ele>1005</ele>
        <time>2023-05-06T10:52:59Z</time>
      </trkpt>
      <trkpt lat="47.85755" lon="7.13899">
        <ele>1005</ele>
        <time>2023-05-06T10:53:34Z</time>
      </trkpt>
      <trkpt lat="47.85755" lon="7.1391">
        <ele>1004</ele>
        <time>2023-05-06T10:53:59Z</time>
      </trkpt>
      <trkpt lat="47.85755" lon="7.13916">
        <ele>1004</ele>
        <time>2023-05-06T10:54:04Z</time>
      </trkpt>
      <trkpt lat="47.85752" lon="7.13922">
        <ele>1003</ele>
        <time>2023-05-06T10:54:07Z</time>
      </trkpt>
      <trkpt lat="47.85751" lon="7.13929">
        <ele>1003</ele>
        <time>2023-05-06T10:54:11Z</time>
      </trkpt>
      <trkpt lat="47.85751" lon="7.13938">
        <ele>1002</ele>
        <time>2023-05-06T10:54:17Z</time>
      </trkpt>
      <trkpt lat="47.8575" lon="7.13947">
        <ele>1002</ele>
        <time>2023-05-06T10:54:21Z</time>
      </trkpt>
      <trkpt lat="47.85752" lon="7.1396">
        <ele>1001</ele>
        <time>2023-05-06T10:54:29Z</time>
      </trkpt>
      <trkpt lat="47.85751" lon="7.1399">
        <ele>998</ele>
        <time>2023-05-06T10:54:46Z</time>
      </trkpt>
      <trkpt lat="47.85755" lon="7.14003">
        <ele>997</ele>
        <time>2023-05-06T10:54:55Z</time>
      </trkpt>
      <trkpt lat="47.85755" lon="7.14012">
        <ele>996</ele>
        <time>2023-05-06T10:55:01Z</time>
      </trkpt>
      <trkpt lat="47.85755" lon="7.14019">
        <ele>995</ele>
        <time>2023-05-06T10:55:05Z</time>
      </trkpt>
      <trkpt lat="47.85755" lon="7.14026">
        <ele>995</ele>
        <time>2023-05-06T10:55:09Z</time>
      </trkpt>
      <trkpt lat="47.85754" lon="7.14034">
        <ele>995</ele>
        <time>2023-05-06T10:55:14Z</time>
      </trkpt>
      <trkpt lat="47.85752" lon="7.1404">
        <ele>994</ele>
        <time>2023-05-06T10:55:17Z</time>
      </trkpt>
      <trkpt lat="47.85743" lon="7.14065">
        <ele>993</ele>
        <time>2023-05-06T10:55:32Z</time>
      </trkpt>
      <trkpt lat="47.85738" lon="7.14094">
        <ele>990</ele>
        <time>2023-05-06T10:55:51Z</time>
      </trkpt>
      <trkpt lat="47.85735" lon="7.14101">
        <ele>990</ele>
        <time>2023-05-06T10:55:56Z</time>
      </trkpt>
      <trkpt lat="47.85735" lon="7.14109">
        <ele>989</ele>
        <time>2023-05-06T10:56:01Z</time>
      </trkpt>
      <trkpt lat="47.85729" lon="7.14122">
        <ele>988</ele>
        <time>2023-05-06T10:56:10Z</time>
      </trkpt>
      <trkpt lat="47.85725" lon="7.14128">
        <ele>987</ele>
        <time>2023-05-06T10:56:14Z</time>
      </trkpt>
      <trkpt lat="47.85709" lon="7.14171">
        <ele>983</ele>
        <time>2023-05-06T10:56:46Z</time>
      </trkpt>
      <trkpt lat="47.85709" lon="7.14181">
        <ele>982</ele>
        <time>2023-05-06T10:56:53Z</time>
      </trkpt>
      <trkpt lat="47.85707" lon="7.14186">
        <ele>981</ele>
        <time>2023-05-06T10:56:57Z</time>
      </trkpt>
      <trkpt lat="47.85707" lon="7.14208">
        <ele>979</ele>
        <time>2023-05-06T10:57:09Z</time>
      </trkpt>
      <trkpt lat="47.85712" lon="7.14247">
        <ele>975</ele>
        <time>2023-05-06T10:57:34Z</time>
      </trkpt>
      <trkpt lat="47.85711" lon="7.14254">
        <ele>975</ele>
        <time>2023-05-06T10:57:38Z</time>
      </trkpt>
      <trkpt lat="47.85714" lon="7.14268">
        <ele>974</ele>
        <time>2023-05-06T10:57:47Z</time>
      </trkpt>
      <trkpt lat="47.85716" lon="7.14275">
        <ele>973</ele>
        <time>2023-05-06T10:57:52Z</time>
      </trkpt>
      <trkpt lat="47.85717" lon="7.1429">
        <ele>972</ele>
        <time>2023-05-06T10:58:00Z</time>
      </trkpt>
      <trkpt lat="47.85717" lon="7.14297">
        <ele>971</ele>
        <time>2023-05-06T10:58:04Z</time>
      </trkpt>
      <trkpt lat="47.85718" lon="7.1431">
        <ele>970</ele>
        <time>2023-05-06T10:58:12Z</time>
      </trkpt>
      <trkpt lat="47.85721" lon="7.14322">
        <ele>969</ele>
        <time>2023-05-06T10:58:20Z</time>
      </trkpt>
      <trkpt lat="47.8572" lon="7.14329">
        <ele>969</ele>
        <time>2023-05-06T10:58:24Z</time>
      </trkpt>
      <trkpt lat="47.8572" lon="7.14337">
        <ele>968</ele>
        <time>2023-05-06T10:58:28Z</time>
      </trkpt>
      <trkpt lat="47.85725" lon="7.14364">
        <ele>966</ele>
        <time>2023-05-06T10:58:44Z</time>
      </trkpt>
      <trkpt lat="47.85725" lon="7.14371">
        <ele>965</ele>
        <time>2023-05-06T10:58:48Z</time>
      </trkpt>
      <trkpt lat="47.85725" lon="7.14414">
        <ele>962</ele>
        <time>2023-05-06T10:59:11Z</time>
      </trkpt>
      <trkpt lat="47.85723" lon="7.14435">
        <ele>960</ele>
        <time>2023-05-06T10:59:24Z</time>
      </trkpt>
      <trkpt lat="47.85723" lon="7.14451">
        <ele>959</ele>
        <time>2023-05-06T10:59:35Z</time>
      </trkpt>
      <trkpt lat="47.85723" lon="7.14461">
        <ele>958</ele>
        <time>2023-05-06T10:59:43Z</time>
      </trkpt>
      <trkpt lat="47.85723" lon="7.14469">
        <ele>957</ele>
        <time>2023-05-06T10:59:47Z</time>
      </trkpt>
      <trkpt lat="47.85724" lon="7.14476">
        <ele>957</ele>
        <time>2023-05-06T10:59:51Z</time>
      </trkpt>
      <trkpt lat="47.85724" lon="7.1449">
        <ele>955</ele>
        <time>2023-05-06T11:00:00Z</time>
      </trkpt>
      <trkpt lat="47.8573" lon="7.14531">
        <ele>952</ele>
        <time>2023-05-06T11:00:23Z</time>
      </trkpt>
      <trkpt lat="47.85729" lon="7.14542">
        <ele>951</ele>
        <time>2023-05-06T11:00:30Z</time>
      </trkpt>
      <trkpt lat="47.8573" lon="7.14549">
        <ele>950</ele>
        <time>2023-05-06T11:00:34Z</time>
      </trkpt>
      <trkpt lat="47.85739" lon="7.14581">
        <ele>948</ele>
        <time>2023-05-06T11:00:54Z</time>
      </trkpt>
      <trkpt lat="47.85754" lon="7.14606">
        <ele>945</ele>
        <time>2023-05-06T11:01:13Z</time>
      </trkpt>
      <trkpt lat="47.85765" lon="7.14637">
        <ele>941</ele>
        <time>2023-05-06T11:01:33Z</time>
      </trkpt>
      <trkpt lat="47.85768" lon="7.14641">
        <ele>941</ele>
        <time>2023-05-06T11:01:36Z</time>
      </trkpt>
      <trkpt lat="47.85769" lon="7.14652">
        <ele>940</ele>
        <time>2023-05-06T11:01:42Z</time>
      </trkpt>
      <trkpt lat="47.85778" lon="7.14662">
        <ele>938</ele>
        <time>2023-05-06T11:01:51Z</time>
      </trkpt>
      <trkpt lat="47.85779" lon="7.14668">
        <ele>938</ele>
        <time>2023-05-06T11:01:55Z</time>
      </trkpt>
      <trkpt lat="47.85788" lon="7.14678">
        <ele>936</ele>
        <time>2023-05-06T11:02:04Z</time>
      </trkpt>
      <trkpt lat="47.8579" lon="7.14686">
        <ele>935</ele>
        <time>2023-05-06T11:02:08Z</time>
      </trkpt>
      <trkpt lat="47.85789" lon="7.14692">
        <ele>935</ele>
        <time>2023-05-06T11:02:11Z</time>
      </trkpt>
      <trkpt lat="47.85783" lon="7.14694">
        <ele>934</ele>
        <time>2023-05-06T11:02:15Z</time>
      </trkpt>
      <trkpt lat="47.85778" lon="7.14695">
        <ele>933</ele>
        <time>2023-05-06T11:02:18Z</time>
      </trkpt>
      <trkpt lat="47.85768" lon="7.147">
        <ele>932</ele>
        <time>2023-05-06T11:02:26Z</time>
      </trkpt>
      <trkpt lat="47.85763" lon="7.147">
        <ele>931</ele>
        <time>2023-05-06T11:02:30Z</time>
      </trkpt>
      <trkpt lat="47.85734" lon="7.14709">
        <ele>926</ele>
        <time>2023-05-06T11:02:54Z</time>
      </trkpt>
      <trkpt lat="47.85725" lon="7.1471">
        <ele>924</ele>
        <time>2023-05-06T11:03:01Z</time>
      </trkpt>
      <trkpt lat="47.85722" lon="7.14714">
        <ele>924</ele>
        <time>2023-05-06T11:03:05Z</time>
      </trkpt>
      <trkpt lat="47.85722" lon="7.14721">
        <ele>923</ele>
        <time>2023-05-06T11:03:08Z</time>
      </trkpt>
      <trkpt lat="47.85748" lon="7.14766">
        <ele>918</ele>
        <time>2023-05-06T11:03:41Z</time>
      </trkpt>
      <trkpt lat="47.85774" lon="7.14803">
        <ele>914</ele>
        <time>2023-05-06T11:04:13Z</time>
      </trkpt>
      <trkpt lat="47.85787" lon="7.14814">
        <ele>913</ele>
        <time>2023-05-06T11:04:24Z</time>
      </trkpt>
      <trkpt lat="47.8579" lon="7.14821">
        <ele>912</ele>
        <time>2023-05-06T11:04:28Z</time>
      </trkpt>
      <trkpt lat="47.8579" lon="7.14828">
        <ele>912</ele>
        <time>2023-05-06T11:04:31Z</time>
      </trkpt>
      <trkpt lat="47.85793" lon="7.14834">
        <ele>912</ele>
        <time>2023-05-06T11:04:35Z</time>
      </trkpt>
      <trkpt lat="47.85792" lon="7.14842">
        <ele>911</ele>
        <time>2023-05-06T11:04:39Z</time>
      </trkpt>
      <trkpt lat="47.85791" lon="7.1485">
        <ele>912</ele>
        <time>2023-05-06T11:04:43Z</time>
      </trkpt>
      <trkpt lat="47.85786" lon="7.14852">
        <ele>912</ele>
        <time>2023-05-06T11:04:46Z</time>
      </trkpt>
      <trkpt lat="47.85781" lon="7.14853">
        <ele>912</ele>
        <time>2023-05-06T11:04:49Z</time>
      </trkpt>
      <trkpt lat="47.85777" lon="7.14854">
        <ele>911</ele>
        <time>2023-05-06T11:04:53Z</time>
      </trkpt>
      <trkpt lat="47.85773" lon="7.14858">
        <ele>911</ele>
        <time>2023-05-06T11:04:56Z</time>
      </trkpt>
      <trkpt lat="47.85775" lon="7.14865">
        <ele>910</ele>
        <time>2023-05-06T11:05:00Z</time>
      </trkpt>
      <trkpt lat="47.85788" lon="7.14884">
        <ele>910</ele>
        <time>2023-05-06T11:05:15Z</time>
      </trkpt>
      <trkpt lat="47.85804" lon="7.1492">
        <ele>910</ele>
        <time>2023-05-06T11:05:39Z</time>
      </trkpt>
      <trkpt lat="47.85803" lon="7.14909">
        <ele>910</ele>
        <time>2023-05-06T11:05:51Z</time>
      </trkpt>
      <trkpt lat="47.85807" lon="7.14906">
        <ele>910</ele>
        <time>2023-05-06T11:05:55Z</time>
      </trkpt>
      <trkpt lat="47.85825" lon="7.1492">
        <ele>913</ele>
        <time>2023-05-06T11:06:17Z</time>
      </trkpt>
      <trkpt lat="47.85847" lon="7.14933">
        <ele>917</ele>
        <time>2023-05-06T11:06:39Z</time>
      </trkpt>
      <trkpt lat="47.85855" lon="7.14941">
        <ele>917</ele>
        <time>2023-05-06T11:06:47Z</time>
      </trkpt>
      <trkpt lat="47.85854" lon="7.14955">
        <ele>917</ele>
        <time>2023-05-06T11:07:14Z</time>
      </trkpt>
      <trkpt lat="47.85859" lon="7.14988">
        <ele>917</ele>
        <time>2023-05-06T11:07:33Z</time>
      </trkpt>
      <trkpt lat="47.85862" lon="7.14998">
        <ele>917</ele>
        <time>2023-05-06T11:07:41Z</time>
      </trkpt>
      <trkpt lat="47.85865" lon="7.15003">
        <ele>917</ele>
        <time>2023-05-06T11:07:45Z</time>
      </trkpt>
      <trkpt lat="47.85868" lon="7.15007">
        <ele>918</ele>
        <time>2023-05-06T11:07:49Z</time>
      </trkpt>
      <trkpt lat="47.85873" lon="7.15017">
        <ele>917</ele>
        <time>2023-05-06T11:07:58Z</time>
      </trkpt>
      <trkpt lat="47.85878" lon="7.15017">
        <ele>918</ele>
        <time>2023-05-06T11:08:12Z</time>
      </trkpt>
      <trkpt lat="47.85884" lon="7.15011">
        <ele>919</ele>
        <time>2023-05-06T11:08:24Z</time>
      </trkpt>
      <trkpt lat="47.85891" lon="7.15012">
        <ele>919</ele>
        <time>2023-05-06T11:08:54Z</time>
      </trkpt>
      <trkpt lat="47.85893" lon="7.15018">
        <ele>919</ele>
        <time>2023-05-06T11:09:08Z</time>
      </trkpt>
      <trkpt lat="47.85895" lon="7.15035">
        <ele>917</ele>
        <time>2023-05-06T11:09:42Z</time>
      </trkpt>
      <trkpt lat="47.85895" lon="7.15042">
        <ele>916</ele>
        <time>2023-05-06T11:09:46Z</time>
      </trkpt>
      <trkpt lat="47.85896" lon="7.1505">
        <ele>916</ele>
        <time>2023-05-06T11:09:51Z</time>
      </trkpt>
      <trkpt lat="47.85898" lon="7.15056">
        <ele>916</ele>
        <time>2023-05-06T11:09:55Z</time>
      </trkpt>
      <trkpt lat="47.859" lon="7.15061">
        <ele>915</ele>
        <time>2023-05-06T11:10:03Z</time>
      </trkpt>
      <trkpt lat="47.85904" lon="7.15065">
        <ele>914</ele>
        <time>2023-05-06T11:10:08Z</time>
      </trkpt>
      <trkpt lat="47.85913" lon="7.15107">
        <ele>910</ele>
        <time>2023-05-06T11:10:41Z</time>
      </trkpt>
      <trkpt lat="47.85924" lon="7.15155">
        <ele>903</ele>
        <time>2023-05-06T11:11:14Z</time>
      </trkpt>
      <trkpt lat="47.85933" lon="7.15198">
        <ele>897</ele>
        <time>2023-05-06T11:11:44Z</time>
      </trkpt>
      <trkpt lat="47.85941" lon="7.15242">
        <ele>892</ele>
        <time>2023-05-06T11:12:17Z</time>
      </trkpt>
      <trkpt lat="47.85938" lon="7.15253">
        <ele>891</ele>
        <time>2023-05-06T11:12:25Z</time>
      </trkpt>
      <trkpt lat="47.85935" lon="7.15258">
        <ele>890</ele>
        <time>2023-05-06T11:12:29Z</time>
      </trkpt>
      <trkpt lat="47.85939" lon="7.15264">
        <ele>889</ele>
        <time>2023-05-06T11:12:38Z</time>
      </trkpt>
      <trkpt lat="47.85947" lon="7.15269">
        <ele>888</ele>
        <time>2023-05-06T11:12:49Z</time>
      </trkpt>
      <trkpt lat="47.85951" lon="7.15273">
        <ele>888</ele>
        <time>2023-05-06T11:12:53Z</time>
      </trkpt>
      <trkpt lat="47.85955" lon="7.1528">
        <ele>888</ele>
        <time>2023-05-06T11:13:01Z</time>
      </trkpt>
      <trkpt lat="47.85958" lon="7.15284">
        <ele>888</ele>
        <time>2023-05-06T11:13:05Z</time>
      </trkpt>
      <trkpt lat="47.85961" lon="7.15281">
        <ele>888</ele>
        <time>2023-05-06T11:13:47Z</time>
      </trkpt>
      <trkpt lat="47.85965" lon="7.15275">
        <ele>889</ele>
        <time>2023-05-06T11:14:00Z</time>
      </trkpt>
      <trkpt lat="47.85973" lon="7.1527">
        <ele>889</ele>
        <time>2023-05-06T11:14:09Z</time>
      </trkpt>
      <trkpt lat="47.85977" lon="7.15269">
        <ele>890</ele>
        <time>2023-05-06T11:14:13Z</time>
      </trkpt>
      <trkpt lat="47.85983" lon="7.15267">
        <ele>891</ele>
        <time>2023-05-06T11:14:20Z</time>
      </trkpt>
      <trkpt lat="47.85989" lon="7.15267">
        <ele>891</ele>
        <time>2023-05-06T11:14:27Z</time>
      </trkpt>
      <trkpt lat="47.85994" lon="7.15279">
        <ele>891</ele>
        <time>2023-05-06T11:14:34Z</time>
      </trkpt>
      <trkpt lat="47.86001" lon="7.15288">
        <ele>892</ele>
        <time>2023-05-06T11:14:43Z</time>
      </trkpt>
      <trkpt lat="47.86006" lon="7.15292">
        <ele>892</ele>
        <time>2023-05-06T11:14:48Z</time>
      </trkpt>
      <trkpt lat="47.86008" lon="7.15301">
        <ele>893</ele>
        <time>2023-05-06T11:14:54Z</time>
      </trkpt>
      <trkpt lat="47.86026" lon="7.15348">
        <ele>898</ele>
        <time>2023-05-06T11:15:33Z</time>
      </trkpt>
      <trkpt lat="47.86029" lon="7.15357">
        <ele>899</ele>
        <time>2023-05-06T11:15:40Z</time>
      </trkpt>
      <trkpt lat="47.86041" lon="7.15356">
        <ele>902</ele>
        <time>2023-05-06T11:16:04Z</time>
      </trkpt>
      <trkpt lat="47.86038" lon="7.15362">
        <ele>902</ele>
        <time>2023-05-06T11:16:23Z</time>
      </trkpt>
      <trkpt lat="47.86034" lon="7.15361">
        <ele>902</ele>
        <time>2023-05-06T11:16:28Z</time>
      </trkpt>
      <trkpt lat="47.86031" lon="7.15372">
        <ele>900</ele>
        <time>2023-05-06T11:16:37Z</time>
      </trkpt>
      <trkpt lat="47.86036" lon="7.1538">
        <ele>901</ele>
        <time>2023-05-06T11:17:08Z</time>
      </trkpt>
      <trkpt lat="47.86044" lon="7.15398">
        <ele>902</ele>
        <time>2023-05-06T11:17:23Z</time>
      </trkpt>
      <trkpt lat="47.86045" lon="7.15407">
        <ele>904</ele>
        <time>2023-05-06T11:17:30Z</time>
      </trkpt>
      <trkpt lat="47.86045" lon="7.15413">
        <ele>904</ele>
        <time>2023-05-06T11:17:34Z</time>
      </trkpt>
      <trkpt lat="47.86047" lon="7.1542">
        <ele>903</ele>
        <time>2023-05-06T11:17:38Z</time>
      </trkpt>
      <trkpt lat="47.86059" lon="7.15445">
        <ele>905</ele>
        <time>2023-05-06T11:17:58Z</time>
      </trkpt>
      <trkpt lat="47.86063" lon="7.15459">
        <ele>906</ele>
        <time>2023-05-06T11:18:08Z</time>
      </trkpt>
      <trkpt lat="47.86069" lon="7.1547">
        <ele>906</ele>
        <time>2023-05-06T11:18:16Z</time>
      </trkpt>
      <trkpt lat="47.86069" lon="7.15477">
        <ele>907</ele>
        <time>2023-05-06T11:18:21Z</time>
      </trkpt>
      <trkpt lat="47.86067" lon="7.15506">
        <ele>907</ele>
        <time>2023-05-06T11:18:38Z</time>
      </trkpt>
      <trkpt lat="47.86069" lon="7.15512">
        <ele>907</ele>
        <time>2023-05-06T11:18:42Z</time>
      </trkpt>
      <trkpt lat="47.86067" lon="7.15518">
        <ele>907</ele>
        <time>2023-05-06T11:18:46Z</time>
      </trkpt>
      <trkpt lat="47.86067" lon="7.15525">
        <ele>907</ele>
        <time>2023-05-06T11:18:51Z</time>
      </trkpt>
      <trkpt lat="47.86069" lon="7.15533">
        <ele>907</ele>
        <time>2023-05-06T11:18:58Z</time>
      </trkpt>
      <trkpt lat="47.86068" lon="7.1554">
        <ele>907</ele>
        <time>2023-05-06T11:19:03Z</time>
      </trkpt>
      <trkpt lat="47.86066" lon="7.15546">
        <ele>907</ele>
        <time>2023-05-06T11:19:07Z</time>
      </trkpt>
      <trkpt lat="47.86067" lon="7.15553">
        <ele>907</ele>
        <time>2023-05-06T11:19:11Z</time>
      </trkpt>
      <trkpt lat="47.86068" lon="7.15561">
        <ele>907</ele>
        <time>2023-05-06T11:19:20Z</time>
      </trkpt>
      <trkpt lat="47.86072" lon="7.15566">
        <ele>908</ele>
        <time>2023-05-06T11:19:27Z</time>
      </trkpt>
      <trkpt lat="47.86076" lon="7.15568">
        <ele>909</ele>
        <time>2023-05-06T11:19:30Z</time>
      </trkpt>
      <trkpt lat="47.86081" lon="7.15581">
        <ele>910</ele>
        <time>2023-05-06T11:19:42Z</time>
      </trkpt>
      <trkpt lat="47.86083" lon="7.1559">
        <ele>910</ele>
        <time>2023-05-06T11:19:48Z</time>
      </trkpt>
      <trkpt lat="47.86084" lon="7.15596">
        <ele>911</ele>
        <time>2023-05-06T11:19:52Z</time>
      </trkpt>
      <trkpt lat="47.86085" lon="7.15603">
        <ele>911</ele>
        <time>2023-05-06T11:19:56Z</time>
      </trkpt>
      <trkpt lat="47.86089" lon="7.15626">
        <ele>912</ele>
        <time>2023-05-06T11:20:10Z</time>
      </trkpt>
      <trkpt lat="47.86092" lon="7.15631">
        <ele>912</ele>
        <time>2023-05-06T11:20:13Z</time>
      </trkpt>
      <trkpt lat="47.86098" lon="7.15635">
        <ele>912</ele>
        <time>2023-05-06T11:20:20Z</time>
      </trkpt>
      <trkpt lat="47.86102" lon="7.1564">
        <ele>912</ele>
        <time>2023-05-06T11:20:27Z</time>
      </trkpt>
      <trkpt lat="47.86105" lon="7.15653">
        <ele>913</ele>
        <time>2023-05-06T11:20:36Z</time>
      </trkpt>
      <trkpt lat="47.86119" lon="7.15673">
        <ele>915</ele>
        <time>2023-05-06T11:20:53Z</time>
      </trkpt>
      <trkpt lat="47.86124" lon="7.15678">
        <ele>915</ele>
        <time>2023-05-06T11:21:00Z</time>
      </trkpt>
      <trkpt lat="47.86129" lon="7.1568">
        <ele>915</ele>
        <time>2023-05-06T11:21:05Z</time>
      </trkpt>
      <trkpt lat="47.86137" lon="7.15691">
        <ele>915</ele>
        <time>2023-05-06T11:21:17Z</time>
      </trkpt>
      <trkpt lat="47.86143" lon="7.15697">
        <ele>915</ele>
        <time>2023-05-06T11:21:25Z</time>
      </trkpt>
      <trkpt lat="47.86145" lon="7.15703">
        <ele>915</ele>
        <time>2023-05-06T11:21:30Z</time>
      </trkpt>
      <trkpt lat="47.86148" lon="7.15706">
        <ele>916</ele>
        <time>2023-05-06T11:21:38Z</time>
      </trkpt>
      <trkpt lat="47.86153" lon="7.15708">
        <ele>917</ele>
        <time>2023-05-06T11:22:01Z</time>
      </trkpt>
      <trkpt lat="47.86153" lon="7.15707">
        <ele>915</ele>
        <time>2023-05-06T11:22:43Z</time>
      </trkpt>
      <trkpt lat="47.86152" lon="7.15715">
        <ele>916</ele>
        <time>2023-05-06T11:22:55Z</time>
      </trkpt>
      <trkpt lat="47.86153" lon="7.15721">
        <ele>918</ele>
        <time>2023-05-06T11:23:07Z</time>
      </trkpt>
      <trkpt lat="47.86156" lon="7.15728">
        <ele>918</ele>
        <time>2023-05-06T11:23:55Z</time>
      </trkpt>
      <trkpt lat="47.86145" lon="7.15735">
        <ele>920</ele>
        <time>2023-05-06T11:24:12Z</time>
      </trkpt>
      <trkpt lat="47.8614" lon="7.15733">
        <ele>921</ele>
        <time>2023-05-06T11:24:21Z</time>
      </trkpt>
      <trkpt lat="47.86135" lon="7.15725">
        <ele>920</ele>
        <time>2023-05-06T11:24:33Z</time>
      </trkpt>
      <trkpt lat="47.86132" lon="7.15719">
        <ele>919</ele>
        <time>2023-05-06T11:24:39Z</time>
      </trkpt>
      <trkpt lat="47.86125" lon="7.15714">
        <ele>919</ele>
        <time>2023-05-06T11:25:31Z</time>
      </trkpt>
      <trkpt lat="47.86121" lon="7.15713">
        <ele>919</ele>
        <time>2023-05-06T11:25:37Z</time>
      </trkpt>
      <trkpt lat="47.86114" lon="7.15713">
        <ele>919</ele>
        <time>2023-05-06T11:25:46Z</time>
      </trkpt>
      <trkpt lat="47.86108" lon="7.15718">
        <ele>920</ele>
        <time>2023-05-06T11:25:53Z</time>
      </trkpt>
      <trkpt lat="47.86106" lon="7.15725">
        <ele>921</ele>
        <time>2023-05-06T11:26:02Z</time>
      </trkpt>
      <trkpt lat="47.86112" lon="7.15744">
        <ele>926</ele>
        <time>2023-05-06T11:26:26Z</time>
      </trkpt>
      <trkpt lat="47.86111" lon="7.1576">
        <ele>928</ele>
        <time>2023-05-06T11:26:50Z</time>
      </trkpt>
      <trkpt lat="47.86107" lon="7.15765">
        <ele>929</ele>
        <time>2023-05-06T11:26:55Z</time>
      </trkpt>
      <trkpt lat="47.86104" lon="7.15775">
        <ele>930</ele>
        <time>2023-05-06T11:27:05Z</time>
      </trkpt>
      <trkpt lat="47.86104" lon="7.15783">
        <ele>932</ele>
        <time>2023-05-06T11:27:13Z</time>
      </trkpt>
      <trkpt lat="47.86106" lon="7.15796">
        <ele>933</ele>
        <time>2023-05-06T11:27:25Z</time>
      </trkpt>
      <trkpt lat="47.86105" lon="7.1581">
        <ele>935</ele>
        <time>2023-05-06T11:27:37Z</time>
      </trkpt>
      <trkpt lat="47.86106" lon="7.15816">
        <ele>935</ele>
        <time>2023-05-06T11:27:43Z</time>
      </trkpt>
      <trkpt lat="47.86106" lon="7.15828">
        <ele>937</ele>
        <time>2023-05-06T11:27:55Z</time>
      </trkpt>
      <trkpt lat="47.86106" lon="7.1586">
        <ele>940</ele>
        <time>2023-05-06T11:28:24Z</time>
      </trkpt>
      <trkpt lat="47.86108" lon="7.15867">
        <ele>941</ele>
        <time>2023-05-06T11:28:30Z</time>
      </trkpt>
      <trkpt lat="47.86113" lon="7.15881">
        <ele>942</ele>
        <time>2023-05-06T11:28:44Z</time>
      </trkpt>
      <trkpt lat="47.86112" lon="7.15888">
        <ele>942</ele>
        <time>2023-05-06T11:28:49Z</time>
      </trkpt>
      <trkpt lat="47.86117" lon="7.15902">
        <ele>943</ele>
        <time>2023-05-06T11:29:01Z</time>
      </trkpt>
      <trkpt lat="47.86117" lon="7.15911">
        <ele>944</ele>
        <time>2023-05-06T11:29:09Z</time>
      </trkpt>
      <trkpt lat="47.86122" lon="7.15913">
        <ele>944</ele>
        <time>2023-05-06T11:29:15Z</time>
      </trkpt>
      <trkpt lat="47.8613" lon="7.15899">
        <ele>941</ele>
        <time>2023-05-06T11:29:31Z</time>
      </trkpt>
      <trkpt lat="47.86135" lon="7.15898">
        <ele>940</ele>
        <time>2023-05-06T11:29:37Z</time>
      </trkpt>
      <trkpt lat="47.8614" lon="7.15905">
        <ele>939</ele>
        <time>2023-05-06T11:29:55Z</time>
      </trkpt>
      <trkpt lat="47.86146" lon="7.15925">
        <ele>939</ele>
        <time>2023-05-06T11:30:07Z</time>
      </trkpt>
      <trkpt lat="47.86148" lon="7.1593">
        <ele>940</ele>
        <time>2023-05-06T11:30:11Z</time>
      </trkpt>
      <trkpt lat="47.86148" lon="7.15936">
        <ele>940</ele>
        <time>2023-05-06T11:30:15Z</time>
      </trkpt>
      <trkpt lat="47.86153" lon="7.15953">
        <ele>940</ele>
        <time>2023-05-06T11:30:24Z</time>
      </trkpt>
      <trkpt lat="47.86154" lon="7.15962">
        <ele>941</ele>
        <time>2023-05-06T11:30:31Z</time>
      </trkpt>
      <trkpt lat="47.86158" lon="7.1597">
        <ele>941</ele>
        <time>2023-05-06T11:30:41Z</time>
      </trkpt>
      <trkpt lat="47.8616" lon="7.15977">
        <ele>941</ele>
        <time>2023-05-06T11:30:46Z</time>
      </trkpt>
      <trkpt lat="47.86163" lon="7.15984">
        <ele>942</ele>
        <time>2023-05-06T11:30:53Z</time>
      </trkpt>
      <trkpt lat="47.86164" lon="7.15991">
        <ele>942</ele>
        <time>2023-05-06T11:30:58Z</time>
      </trkpt>
      <trkpt lat="47.86166" lon="7.15997">
        <ele>942</ele>
        <time>2023-05-06T11:31:02Z</time>
      </trkpt>
      <trkpt lat="47.86168" lon="7.16005">
        <ele>943</ele>
        <time>2023-05-06T11:31:09Z</time>
      </trkpt>
      <trkpt lat="47.86171" lon="7.16013">
        <ele>943</ele>
        <time>2023-05-06T11:31:16Z</time>
      </trkpt>
      <trkpt lat="47.86171" lon="7.1602">
        <ele>943</ele>
        <time>2023-05-06T11:31:21Z</time>
      </trkpt>
      <trkpt lat="47.86171" lon="7.16031">
        <ele>945</ele>
        <time>2023-05-06T11:31:34Z</time>
      </trkpt>
      <trkpt lat="47.8617" lon="7.16045">
        <ele>945</ele>
        <time>2023-05-06T11:31:43Z</time>
      </trkpt>
      <trkpt lat="47.86173" lon="7.16055">
        <ele>946</ele>
        <time>2023-05-06T11:31:52Z</time>
      </trkpt>
      <trkpt lat="47.86176" lon="7.16066">
        <ele>946</ele>
        <time>2023-05-06T11:32:23Z</time>
      </trkpt>
      <trkpt lat="47.8618" lon="7.16073">
        <ele>945</ele>
        <time>2023-05-06T11:32:27Z</time>
      </trkpt>
      <trkpt lat="47.86178" lon="7.16079">
        <ele>945</ele>
        <time>2023-05-06T11:32:32Z</time>
      </trkpt>
      <trkpt lat="47.86173" lon="7.16089">
        <ele>947</ele>
        <time>2023-05-06T11:32:42Z</time>
      </trkpt>
      <trkpt lat="47.86171" lon="7.16103">
        <ele>949</ele>
        <time>2023-05-06T11:33:00Z</time>
      </trkpt>
      <trkpt lat="47.86166" lon="7.16122">
        <ele>951</ele>
        <time>2023-05-06T11:33:25Z</time>
      </trkpt>
      <trkpt lat="47.8616" lon="7.1613">
        <ele>953</ele>
        <time>2023-05-06T11:33:38Z</time>
      </trkpt>
      <trkpt lat="47.86155" lon="7.16131">
        <ele>954</ele>
        <time>2023-05-06T11:33:50Z</time>
      </trkpt>
      <trkpt lat="47.86149" lon="7.16135">
        <ele>954</ele>
        <time>2023-05-06T11:34:02Z</time>
      </trkpt>
      <trkpt lat="47.86148" lon="7.16142">
        <ele>955</ele>
        <time>2023-05-06T11:34:08Z</time>
      </trkpt>
      <trkpt lat="47.86144" lon="7.16143">
        <ele>955</ele>
        <time>2023-05-06T11:34:20Z</time>
      </trkpt>
      <trkpt lat="47.8614" lon="7.16141">
        <ele>955</ele>
        <time>2023-05-06T11:34:25Z</time>
      </trkpt>
      <trkpt lat="47.86137" lon="7.16131">
        <ele>954</ele>
        <time>2023-05-06T11:34:37Z</time>
      </trkpt>
      <trkpt lat="47.86133" lon="7.16137">
        <ele>955</ele>
        <time>2023-05-06T11:34:55Z</time>
      </trkpt>
      <trkpt lat="47.86135" lon="7.16145">
        <ele>954</ele>
        <time>2023-05-06T11:35:07Z</time>
      </trkpt>
      <trkpt lat="47.86132" lon="7.16149">
        <ele>954</ele>
        <time>2023-05-06T11:35:13Z</time>
      </trkpt>
      <trkpt lat="47.86124" lon="7.1617">
        <ele>952</ele>
        <time>2023-05-06T11:35:32Z</time>
      </trkpt>
      <trkpt lat="47.86124" lon="7.16177">
        <ele>952</ele>
        <time>2023-05-06T11:35:37Z</time>
      </trkpt>
      <trkpt lat="47.86128" lon="7.16185">
        <ele>950</ele>
        <time>2023-05-06T11:35:47Z</time>
      </trkpt>
      <trkpt lat="47.86125" lon="7.16193">
        <ele>950</ele>
        <time>2023-05-06T11:35:59Z</time>
      </trkpt>
      <trkpt lat="47.86115" lon="7.16198">
        <ele>948</ele>
        <time>2023-05-06T11:36:13Z</time>
      </trkpt>
      <trkpt lat="47.86106" lon="7.16205">
        <ele>948</ele>
        <time>2023-05-06T11:36:22Z</time>
      </trkpt>
      <trkpt lat="47.86099" lon="7.16208">
        <ele>949</ele>
        <time>2023-05-06T11:36:30Z</time>
      </trkpt>
      <trkpt lat="47.86094" lon="7.1621">
        <ele>949</ele>
        <time>2023-05-06T11:36:34Z</time>
      </trkpt>
      <trkpt lat="47.86088" lon="7.1621">
        <ele>949</ele>
        <time>2023-05-06T11:36:41Z</time>
      </trkpt>
      <trkpt lat="47.86083" lon="7.16206">
        <ele>950</ele>
        <time>2023-05-06T11:36:52Z</time>
      </trkpt>
      <trkpt lat="47.86079" lon="7.16197">
        <ele>950</ele>
        <time>2023-05-06T11:37:01Z</time>
      </trkpt>
      <trkpt lat="47.86075" lon="7.1619">
        <ele>952</ele>
        <time>2023-05-06T11:37:09Z</time>
      </trkpt>
      <trkpt lat="47.86068" lon="7.1619">
        <ele>953</ele>
        <time>2023-05-06T11:37:28Z</time>
      </trkpt>
      <trkpt lat="47.86057" lon="7.16206">
        <ele>952</ele>
        <time>2023-05-06T11:37:49Z</time>
      </trkpt>
      <trkpt lat="47.86056" lon="7.16214">
        <ele>951</ele>
        <time>2023-05-06T11:37:55Z</time>
      </trkpt>
      <trkpt lat="47.86054" lon="7.16219">
        <ele>951</ele>
        <time>2023-05-06T11:37:59Z</time>
      </trkpt>
      <trkpt lat="47.8605" lon="7.16224">
        <ele>950</ele>
        <time>2023-05-06T11:38:03Z</time>
      </trkpt>
      <trkpt lat="47.86045" lon="7.16236">
        <ele>949</ele>
        <time>2023-05-06T11:38:11Z</time>
      </trkpt>
      <trkpt lat="47.86039" lon="7.1624">
        <ele>949</ele>
        <time>2023-05-06T11:38:18Z</time>
      </trkpt>
      <trkpt lat="47.86034" lon="7.16241">
        <ele>948</ele>
        <time>2023-05-06T11:38:22Z</time>
      </trkpt>
      <trkpt lat="47.86032" lon="7.16246">
        <ele>948</ele>
        <time>2023-05-06T11:38:26Z</time>
      </trkpt>
      <trkpt lat="47.86033" lon="7.16255">
        <ele>948</ele>
        <time>2023-05-06T11:38:37Z</time>
      </trkpt>
      <trkpt lat="47.86029" lon="7.16267">
        <ele>947</ele>
        <time>2023-05-06T11:38:45Z</time>
      </trkpt>
      <trkpt lat="47.86026" lon="7.16274">
        <ele>946</ele>
        <time>2023-05-06T11:38:49Z</time>
      </trkpt>
      <trkpt lat="47.86024" lon="7.16287">
        <ele>945</ele>
        <time>2023-05-06T11:38:58Z</time>
      </trkpt>
      <trkpt lat="47.86017" lon="7.16306">
        <ele>943</ele>
        <time>2023-05-06T11:39:12Z</time>
      </trkpt>
      <trkpt lat="47.86011" lon="7.1631">
        <ele>942</ele>
        <time>2023-05-06T11:39:24Z</time>
      </trkpt>
      <trkpt lat="47.85999" lon="7.1631">
        <ele>940</ele>
        <time>2023-05-06T11:39:35Z</time>
      </trkpt>
      <trkpt lat="47.85995" lon="7.16308">
        <ele>940</ele>
        <time>2023-05-06T11:39:39Z</time>
      </trkpt>
      <trkpt lat="47.8599" lon="7.1631">
        <ele>939</ele>
        <time>2023-05-06T11:39:43Z</time>
      </trkpt>
      <trkpt lat="47.85987" lon="7.16317">
        <ele>938</ele>
        <time>2023-05-06T11:39:47Z</time>
      </trkpt>
      <trkpt lat="47.85978" lon="7.16319">
        <ele>937</ele>
        <time>2023-05-06T11:39:56Z</time>
      </trkpt>
      <trkpt lat="47.85971" lon="7.16319">
        <ele>937</ele>
        <time>2023-05-06T11:40:05Z</time>
      </trkpt>
      <trkpt lat="47.85969" lon="7.16326">
        <ele>936</ele>
        <time>2023-05-06T11:40:13Z</time>
      </trkpt>
      <trkpt lat="47.85975" lon="7.1633">
        <ele>935</ele>
        <time>2023-05-06T11:40:23Z</time>
      </trkpt>
      <trkpt lat="47.85979" lon="7.16337">
        <ele>935</ele>
        <time>2023-05-06T11:40:30Z</time>
      </trkpt>
      <trkpt lat="47.85986" lon="7.16339">
        <ele>936</ele>
        <time>2023-05-06T11:40:43Z</time>
      </trkpt>
      <trkpt lat="47.85988" lon="7.16345">
        <ele>936</ele>
        <time>2023-05-06T11:40:47Z</time>
      </trkpt>
      <trkpt lat="47.85989" lon="7.16352">
        <ele>937</ele>
        <time>2023-05-06T11:40:51Z</time>
      </trkpt>
      <trkpt lat="47.85991" lon="7.16357">
        <ele>937</ele>
        <time>2023-05-06T11:40:54Z</time>
      </trkpt>
      <trkpt lat="47.85998" lon="7.16369">
        <ele>936</ele>
        <time>2023-05-06T11:41:04Z</time>
      </trkpt>
      <trkpt lat="47.85999" lon="7.16377">
        <ele>935</ele>
        <time>2023-05-06T11:41:14Z</time>
      </trkpt>
      <trkpt lat="47.85997" lon="7.16383">
        <ele>934</ele>
        <time>2023-05-06T11:41:19Z</time>
      </trkpt>
      <trkpt lat="47.86" lon="7.1639">
        <ele>933</ele>
        <time>2023-05-06T11:41:31Z</time>
      </trkpt>
      <trkpt lat="47.86005" lon="7.16399">
        <ele>932</ele>
        <time>2023-05-06T11:42:23Z</time>
      </trkpt>
      <trkpt lat="47.86007" lon="7.16405">
        <ele>931</ele>
        <time>2023-05-06T11:42:31Z</time>
      </trkpt>
      <trkpt lat="47.86002" lon="7.16405">
        <ele>931</ele>
        <time>2023-05-06T11:42:37Z</time>
      </trkpt>
      <trkpt lat="47.85994" lon="7.16408">
        <ele>933</ele>
        <time>2023-05-06T11:42:48Z</time>
      </trkpt>
      <trkpt lat="47.85989" lon="7.16406">
        <ele>934</ele>
        <time>2023-05-06T11:42:56Z</time>
      </trkpt>
      <trkpt lat="47.85986" lon="7.1641">
        <ele>934</ele>
        <time>2023-05-06T11:43:01Z</time>
      </trkpt>
      <trkpt lat="47.85984" lon="7.16418">
        <ele>934</ele>
        <time>2023-05-06T11:43:18Z</time>
      </trkpt>
      <trkpt lat="47.85985" lon="7.16425">
        <ele>934</ele>
        <time>2023-05-06T11:43:23Z</time>
      </trkpt>
      <trkpt lat="47.85986" lon="7.16443">
        <ele>932</ele>
        <time>2023-05-06T11:43:35Z</time>
      </trkpt>
      <trkpt lat="47.85979" lon="7.16478">
        <ele>927</ele>
        <time>2023-05-06T11:43:58Z</time>
      </trkpt>
      <trkpt lat="47.85976" lon="7.16485">
        <ele>926</ele>
        <time>2023-05-06T11:44:08Z</time>
      </trkpt>
      <trkpt lat="47.85975" lon="7.16492">
        <ele>926</ele>
        <time>2023-05-06T11:44:14Z</time>
      </trkpt>
      <trkpt lat="47.85966" lon="7.16501">
        <ele>930</ele>
        <time>2023-05-06T11:44:32Z</time>
      </trkpt>
      <trkpt lat="47.85966" lon="7.16508">
        <ele>930</ele>
        <time>2023-05-06T11:44:37Z</time>
      </trkpt>
      <trkpt lat="47.85966" lon="7.16528">
        <ele>927</ele>
        <time>2023-05-06T11:44:50Z</time>
      </trkpt>
      <trkpt lat="47.85965" lon="7.16534">
        <ele>927</ele>
        <time>2023-05-06T11:44:54Z</time>
      </trkpt>
      <trkpt lat="47.85966" lon="7.16541">
        <ele>927</ele>
        <time>2023-05-06T11:44:59Z</time>
      </trkpt>
      <trkpt lat="47.85971" lon="7.16546">
        <ele>927</ele>
        <time>2023-05-06T11:45:12Z</time>
      </trkpt>
      <trkpt lat="47.8598" lon="7.16549">
        <ele>923</ele>
        <time>2023-05-06T11:45:25Z</time>
      </trkpt>
      <trkpt lat="47.85977" lon="7.16549">
        <ele>922</ele>
        <time>2023-05-06T11:46:19Z</time>
      </trkpt>
      <trkpt lat="47.85965" lon="7.16545">
        <ele>926</ele>
        <time>2023-05-06T11:46:33Z</time>
      </trkpt>
      <trkpt lat="47.85961" lon="7.16547">
        <ele>926</ele>
        <time>2023-05-06T11:46:38Z</time>
      </trkpt>
      <trkpt lat="47.85953" lon="7.16547">
        <ele>927</ele>
        <time>2023-05-06T11:46:48Z</time>
      </trkpt>
      <trkpt lat="47.85948" lon="7.16548">
        <ele>927</ele>
        <time>2023-05-06T11:46:57Z</time>
      </trkpt>
      <trkpt lat="47.85959" lon="7.16502">
        <ele>929</ele>
        <time>2023-05-06T11:50:03Z</time>
      </trkpt>
      <trkpt lat="47.8596" lon="7.16501">
        <ele>929</ele>
        <time>2023-05-06T11:50:04Z</time>
      </trkpt>
      <trkpt lat="47.85962" lon="7.16492">
        <ele>929</ele>
        <time>2023-05-06T11:50:12Z</time>
      </trkpt>
      <trkpt lat="47.85964" lon="7.16482">
        <ele>931</ele>
        <time>2023-05-06T11:50:30Z</time>
      </trkpt>
      <trkpt lat="47.85966" lon="7.1647">
        <ele>932</ele>
        <time>2023-05-06T11:50:42Z</time>
      </trkpt>
      <trkpt lat="47.85966" lon="7.1645">
        <ele>931</ele>
        <time>2023-05-06T11:50:59Z</time>
      </trkpt>
      <trkpt lat="47.85966" lon="7.16444">
        <ele>930</ele>
        <time>2023-05-06T11:51:04Z</time>
      </trkpt>
      <trkpt lat="47.85969" lon="7.1644">
        <ele>930</ele>
        <time>2023-05-06T11:51:09Z</time>
      </trkpt>
      <trkpt lat="47.8597" lon="7.16431">
        <ele>931</ele>
        <time>2023-05-06T11:51:16Z</time>
      </trkpt>
      <trkpt lat="47.85972" lon="7.16412">
        <ele>934</ele>
        <time>2023-05-06T11:51:32Z</time>
      </trkpt>
      <trkpt lat="47.85975" lon="7.16407">
        <ele>935</ele>
        <time>2023-05-06T11:51:37Z</time>
      </trkpt>
      <trkpt lat="47.85979" lon="7.164">
        <ele>935</ele>
        <time>2023-05-06T11:51:48Z</time>
      </trkpt>
      <trkpt lat="47.85983" lon="7.16398">
        <ele>934</ele>
        <time>2023-05-06T11:51:53Z</time>
      </trkpt>
      <trkpt lat="47.85988" lon="7.16391">
        <ele>935</ele>
        <time>2023-05-06T11:52:04Z</time>
      </trkpt>
      <trkpt lat="47.85988" lon="7.16384">
        <ele>935</ele>
        <time>2023-05-06T11:52:08Z</time>
      </trkpt>
      <trkpt lat="47.85988" lon="7.16377">
        <ele>935</ele>
        <time>2023-05-06T11:52:12Z</time>
      </trkpt>
      <trkpt lat="47.85985" lon="7.16363">
        <ele>937</ele>
        <time>2023-05-06T11:52:21Z</time>
      </trkpt>
      <trkpt lat="47.85984" lon="7.16356">
        <ele>937</ele>
        <time>2023-05-06T11:52:27Z</time>
      </trkpt>
      <trkpt lat="47.85979" lon="7.1635">
        <ele>936</ele>
        <time>2023-05-06T11:52:35Z</time>
      </trkpt>
      <trkpt lat="47.85974" lon="7.16348">
        <ele>935</ele>
        <time>2023-05-06T11:52:41Z</time>
      </trkpt>
      <trkpt lat="47.85971" lon="7.16344">
        <ele>934</ele>
        <time>2023-05-06T11:52:45Z</time>
      </trkpt>
      <trkpt lat="47.85969" lon="7.16337">
        <ele>934</ele>
        <time>2023-05-06T11:52:50Z</time>
      </trkpt>
      <trkpt lat="47.85967" lon="7.16332">
        <ele>934</ele>
        <time>2023-05-06T11:52:55Z</time>
      </trkpt>
      <trkpt lat="47.85969" lon="7.1632">
        <ele>933</ele>
        <time>2023-05-06T11:53:05Z</time>
      </trkpt>
      <trkpt lat="47.85974" lon="7.16315">
        <ele>935</ele>
        <time>2023-05-06T11:53:13Z</time>
      </trkpt>
      <trkpt lat="47.85977" lon="7.16306">
        <ele>936</ele>
        <time>2023-05-06T11:53:20Z</time>
      </trkpt>
      <trkpt lat="47.85976" lon="7.16298">
        <ele>936</ele>
        <time>2023-05-06T11:53:24Z</time>
      </trkpt>
      <trkpt lat="47.85977" lon="7.16292">
        <ele>937</ele>
        <time>2023-05-06T11:53:28Z</time>
      </trkpt>
      <trkpt lat="47.85975" lon="7.16285">
        <ele>937</ele>
        <time>2023-05-06T11:53:32Z</time>
      </trkpt>
      <trkpt lat="47.85985" lon="7.1626">
        <ele>940</ele>
        <time>2023-05-06T11:53:52Z</time>
      </trkpt>
      <trkpt lat="47.85988" lon="7.16248">
        <ele>942</ele>
        <time>2023-05-06T11:54:01Z</time>
      </trkpt>
      <trkpt lat="47.85984" lon="7.16235">
        <ele>941</ele>
        <time>2023-05-06T11:54:09Z</time>
      </trkpt>
      <trkpt lat="47.85985" lon="7.16229">
        <ele>942</ele>
        <time>2023-05-06T11:54:13Z</time>
      </trkpt>
      <trkpt lat="47.85988" lon="7.16223">
        <ele>942</ele>
        <time>2023-05-06T11:54:18Z</time>
      </trkpt>
      <trkpt lat="47.85988" lon="7.16216">
        <ele>943</ele>
        <time>2023-05-06T11:54:22Z</time>
      </trkpt>
      <trkpt lat="47.85987" lon="7.16208">
        <ele>943</ele>
        <time>2023-05-06T11:54:27Z</time>
      </trkpt>
      <trkpt lat="47.85989" lon="7.16202">
        <ele>943</ele>
        <time>2023-05-06T11:54:32Z</time>
      </trkpt>
      <trkpt lat="47.85987" lon="7.16194">
        <ele>942</ele>
        <time>2023-05-06T11:54:37Z</time>
      </trkpt>
      <trkpt lat="47.85982" lon="7.16197">
        <ele>942</ele>
        <time>2023-05-06T11:54:44Z</time>
      </trkpt>
      <trkpt lat="47.85978" lon="7.16193">
        <ele>941</ele>
        <time>2023-05-06T11:54:48Z</time>
      </trkpt>
      <trkpt lat="47.85975" lon="7.16176">
        <ele>940</ele>
        <time>2023-05-06T11:55:00Z</time>
      </trkpt>
      <trkpt lat="47.85976" lon="7.16166">
        <ele>939</ele>
        <time>2023-05-06T11:55:06Z</time>
      </trkpt>
      <trkpt lat="47.85974" lon="7.1616">
        <ele>938</ele>
        <time>2023-05-06T11:55:10Z</time>
      </trkpt>
      <trkpt lat="47.85973" lon="7.16152">
        <ele>937</ele>
        <time>2023-05-06T11:55:14Z</time>
      </trkpt>
      <trkpt lat="47.85971" lon="7.16146">
        <ele>937</ele>
        <time>2023-05-06T11:55:18Z</time>
      </trkpt>
      <trkpt lat="47.85969" lon="7.16124">
        <ele>935</ele>
        <time>2023-05-06T11:55:30Z</time>
      </trkpt>
      <trkpt lat="47.85961" lon="7.16107">
        <ele>932</ele>
        <time>2023-05-06T11:55:43Z</time>
      </trkpt>
      <trkpt lat="47.85961" lon="7.16099">
        <ele>931</ele>
        <time>2023-05-06T11:55:47Z</time>
      </trkpt>
      <trkpt lat="47.85962" lon="7.16093">
        <ele>931</ele>
        <time>2023-05-06T11:55:51Z</time>
      </trkpt>
      <trkpt lat="47.85963" lon="7.16086">
        <ele>931</ele>
        <time>2023-05-06T11:55:55Z</time>
      </trkpt>
      <trkpt lat="47.85963" lon="7.16078">
        <ele>931</ele>
        <time>2023-05-06T11:55:59Z</time>
      </trkpt>
      <trkpt lat="47.85959" lon="7.1607">
        <ele>931</ele>
        <time>2023-05-06T11:56:05Z</time>
      </trkpt>
      <trkpt lat="47.85952" lon="7.16058">
        <ele>928</ele>
        <time>2023-05-06T11:56:13Z</time>
      </trkpt>
      <trkpt lat="47.85953" lon="7.16052">
        <ele>928</ele>
        <time>2023-05-06T11:56:17Z</time>
      </trkpt>
      <trkpt lat="47.85955" lon="7.16045">
        <ele>928</ele>
        <time>2023-05-06T11:56:21Z</time>
      </trkpt>
      <trkpt lat="47.8596" lon="7.1602">
        <ele>928</ele>
        <time>2023-05-06T11:56:38Z</time>
      </trkpt>
      <trkpt lat="47.85959" lon="7.16014">
        <ele>928</ele>
        <time>2023-05-06T11:56:41Z</time>
      </trkpt>
      <trkpt lat="47.85961" lon="7.16008">
        <ele>928</ele>
        <time>2023-05-06T11:56:45Z</time>
      </trkpt>
      <trkpt lat="47.85962" lon="7.16001">
        <ele>927</ele>
        <time>2023-05-06T11:56:49Z</time>
      </trkpt>
      <trkpt lat="47.85959" lon="7.15994">
        <ele>927</ele>
        <time>2023-05-06T11:56:53Z</time>
      </trkpt>
      <trkpt lat="47.85962" lon="7.15986">
        <ele>926</ele>
        <time>2023-05-06T11:56:59Z</time>
      </trkpt>
      <trkpt lat="47.85965" lon="7.15977">
        <ele>926</ele>
        <time>2023-05-06T11:57:06Z</time>
      </trkpt>
      <trkpt lat="47.85969" lon="7.15956">
        <ele>925</ele>
        <time>2023-05-06T11:57:18Z</time>
      </trkpt>
      <trkpt lat="47.8597" lon="7.1595">
        <ele>924</ele>
        <time>2023-05-06T11:57:21Z</time>
      </trkpt>
      <trkpt lat="47.85972" lon="7.15944">
        <ele>924</ele>
        <time>2023-05-06T11:57:25Z</time>
      </trkpt>
      <trkpt lat="47.85974" lon="7.15939">
        <ele>923</ele>
        <time>2023-05-06T11:57:29Z</time>
      </trkpt>
      <trkpt lat="47.85981" lon="7.1593">
        <ele>924</ele>
        <time>2023-05-06T11:57:37Z</time>
      </trkpt>
      <trkpt lat="47.85983" lon="7.15924">
        <ele>924</ele>
        <time>2023-05-06T11:57:41Z</time>
      </trkpt>
      <trkpt lat="47.85984" lon="7.15909">
        <ele>924</ele>
        <time>2023-05-06T11:57:49Z</time>
      </trkpt>
      <trkpt lat="47.85986" lon="7.15903">
        <ele>924</ele>
        <time>2023-05-06T11:57:53Z</time>
      </trkpt>
      <trkpt lat="47.85988" lon="7.15897">
        <ele>924</ele>
        <time>2023-05-06T11:57:57Z</time>
      </trkpt>
      <trkpt lat="47.8599" lon="7.15883">
        <ele>924</ele>
        <time>2023-05-06T11:58:04Z</time>
      </trkpt>
      <trkpt lat="47.85993" lon="7.1587">
        <ele>923</ele>
        <time>2023-05-06T11:58:12Z</time>
      </trkpt>
      <trkpt lat="47.85996" lon="7.15865">
        <ele>923</ele>
        <time>2023-05-06T11:58:16Z</time>
      </trkpt>
      <trkpt lat="47.85999" lon="7.15859">
        <ele>924</ele>
        <time>2023-05-06T11:58:21Z</time>
      </trkpt>
      <trkpt lat="47.85999" lon="7.15853">
        <ele>924</ele>
        <time>2023-05-06T11:58:24Z</time>
      </trkpt>
      <trkpt lat="47.86003" lon="7.1585">
        <ele>924</ele>
        <time>2023-05-06T11:58:28Z</time>
      </trkpt>
      <trkpt lat="47.86006" lon="7.15844">
        <ele>925</ele>
        <time>2023-05-06T11:58:32Z</time>
      </trkpt>
      <trkpt lat="47.86008" lon="7.15837">
        <ele>925</ele>
        <time>2023-05-06T11:58:36Z</time>
      </trkpt>
      <trkpt lat="47.86014" lon="7.15818">
        <ele>924</ele>
        <time>2023-05-06T11:58:49Z</time>
      </trkpt>
      <trkpt lat="47.86016" lon="7.15797">
        <ele>922</ele>
        <time>2023-05-06T11:59:01Z</time>
      </trkpt>
      <trkpt lat="47.86021" lon="7.15786">
        <ele>921</ele>
        <time>2023-05-06T11:59:09Z</time>
      </trkpt>
      <trkpt lat="47.86022" lon="7.15772">
        <ele>920</ele>
        <time>2023-05-06T11:59:18Z</time>
      </trkpt>
      <trkpt lat="47.86016" lon="7.15753">
        <ele>917</ele>
        <time>2023-05-06T11:59:31Z</time>
      </trkpt>
      <trkpt lat="47.86015" lon="7.15742">
        <ele>916</ele>
        <time>2023-05-06T11:59:38Z</time>
      </trkpt>
      <trkpt lat="47.86016" lon="7.15729">
        <ele>915</ele>
        <time>2023-05-06T11:59:46Z</time>
      </trkpt>
      <trkpt lat="47.86019" lon="7.15716">
        <ele>914</ele>
        <time>2023-05-06T11:59:54Z</time>
      </trkpt>
      <trkpt lat="47.86019" lon="7.15708">
        <ele>913</ele>
        <time>2023-05-06T11:59:58Z</time>
      </trkpt>
      <trkpt lat="47.86022" lon="7.15674">
        <ele>909</ele>
        <time>2023-05-06T12:00:23Z</time>
      </trkpt>
      <trkpt lat="47.86022" lon="7.15651">
        <ele>907</ele>
        <time>2023-05-06T12:00:39Z</time>
      </trkpt>
      <trkpt lat="47.86019" lon="7.15639">
        <ele>906</ele>
        <time>2023-05-06T12:00:47Z</time>
      </trkpt>
      <trkpt lat="47.86019" lon="7.15604">
        <ele>903</ele>
        <time>2023-05-06T12:01:11Z</time>
      </trkpt>
      <trkpt lat="47.86017" lon="7.15593">
        <ele>902</ele>
        <time>2023-05-06T12:01:18Z</time>
      </trkpt>
      <trkpt lat="47.86014" lon="7.15543">
        <ele>899</ele>
        <time>2023-05-06T12:01:51Z</time>
      </trkpt>
      <trkpt lat="47.86011" lon="7.15509">
        <ele>898</ele>
        <time>2023-05-06T12:02:13Z</time>
      </trkpt>
      <trkpt lat="47.86008" lon="7.15494">
        <ele>897</ele>
        <time>2023-05-06T12:02:23Z</time>
      </trkpt>
      <trkpt lat="47.86002" lon="7.1545">
        <ele>896</ele>
        <time>2023-05-06T12:02:50Z</time>
      </trkpt>
      <trkpt lat="47.86" lon="7.15443">
        <ele>896</ele>
        <time>2023-05-06T12:02:55Z</time>
      </trkpt>
      <trkpt lat="47.85998" lon="7.15429">
        <ele>896</ele>
        <time>2023-05-06T12:03:03Z</time>
      </trkpt>
      <trkpt lat="47.8599" lon="7.15391">
        <ele>895</ele>
        <time>2023-05-06T12:03:26Z</time>
      </trkpt>
      <trkpt lat="47.85989" lon="7.15377">
        <ele>895</ele>
        <time>2023-05-06T12:03:35Z</time>
      </trkpt>
      <trkpt lat="47.85983" lon="7.15358">
        <ele>894</ele>
        <time>2023-05-06T12:03:47Z</time>
      </trkpt>
      <trkpt lat="47.85965" lon="7.15316">
        <ele>891</ele>
        <time>2023-05-06T12:04:19Z</time>
      </trkpt>
      <trkpt lat="47.85959" lon="7.15305">
        <ele>891</ele>
        <time>2023-05-06T12:04:26Z</time>
      </trkpt>
      <trkpt lat="47.85954" lon="7.15291">
        <ele>891</ele>
        <time>2023-05-06T12:04:34Z</time>
      </trkpt>
      <trkpt lat="47.85951" lon="7.15286">
        <ele>891</ele>
        <time>2023-05-06T12:04:38Z</time>
      </trkpt>
      <trkpt lat="47.85947" lon="7.15282">
        <ele>891</ele>
        <time>2023-05-06T12:04:42Z</time>
      </trkpt>
      <trkpt lat="47.85913" lon="7.15283">
        <ele>889</ele>
        <time>2023-05-06T12:05:13Z</time>
      </trkpt>
      <trkpt lat="47.8588" lon="7.15276">
        <ele>889</ele>
        <time>2023-05-06T12:05:42Z</time>
      </trkpt>
      <trkpt lat="47.85868" lon="7.15263">
        <ele>890</ele>
        <time>2023-05-06T12:05:54Z</time>
      </trkpt>
      <trkpt lat="47.85865" lon="7.15257">
        <ele>890</ele>
        <time>2023-05-06T12:05:59Z</time>
      </trkpt>
      <trkpt lat="47.85855" lon="7.15225">
        <ele>893</ele>
        <time>2023-05-06T12:06:25Z</time>
      </trkpt>
      <trkpt lat="47.85845" lon="7.15184">
        <ele>898</ele>
        <time>2023-05-06T12:06:58Z</time>
      </trkpt>
      <trkpt lat="47.85836" lon="7.15146">
        <ele>902</ele>
        <time>2023-05-06T12:07:29Z</time>
      </trkpt>
      <trkpt lat="47.85832" lon="7.15119">
        <ele>903</ele>
        <time>2023-05-06T12:07:47Z</time>
      </trkpt>
      <trkpt lat="47.85828" lon="7.15105">
        <ele>904</ele>
        <time>2023-05-06T12:07:57Z</time>
      </trkpt>
      <trkpt lat="47.85826" lon="7.15071">
        <ele>906</ele>
        <time>2023-05-06T12:08:21Z</time>
      </trkpt>
      <trkpt lat="47.85829" lon="7.1506">
        <ele>907</ele>
        <time>2023-05-06T12:08:30Z</time>
      </trkpt>
      <trkpt lat="47.85829" lon="7.15052">
        <ele>907</ele>
        <time>2023-05-06T12:08:36Z</time>
      </trkpt>
      <trkpt lat="47.85829" lon="7.15032">
        <ele>909</ele>
        <time>2023-05-06T12:08:50Z</time>
      </trkpt>
      <trkpt lat="47.85827" lon="7.15022">
        <ele>909</ele>
        <time>2023-05-06T12:08:58Z</time>
      </trkpt>
      <trkpt lat="47.85814" lon="7.14987">
        <ele>909</ele>
        <time>2023-05-06T12:09:24Z</time>
      </trkpt>
      <trkpt lat="47.85813" lon="7.1498">
        <ele>909</ele>
        <time>2023-05-06T12:09:28Z</time>
      </trkpt>
      <trkpt lat="47.8581" lon="7.14973">
        <ele>909</ele>
        <time>2023-05-06T12:09:32Z</time>
      </trkpt>
      <trkpt lat="47.85807" lon="7.14958">
        <ele>909</ele>
        <time>2023-05-06T12:09:42Z</time>
      </trkpt>
      <trkpt lat="47.85807" lon="7.14951">
        <ele>909</ele>
        <time>2023-05-06T12:09:47Z</time>
      </trkpt>
      <trkpt lat="47.85797" lon="7.14915">
        <ele>908</ele>
        <time>2023-05-06T12:10:12Z</time>
      </trkpt>
      <trkpt lat="47.85778" lon="7.14875">
        <ele>908</ele>
        <time>2023-05-06T12:10:43Z</time>
      </trkpt>
      <trkpt lat="47.85775" lon="7.14869">
        <ele>908</ele>
        <time>2023-05-06T12:10:48Z</time>
      </trkpt>
      <trkpt lat="47.8577" lon="7.14865">
        <ele>908</ele>
        <time>2023-05-06T12:10:53Z</time>
      </trkpt>
      <trkpt lat="47.85767" lon="7.14859">
        <ele>908</ele>
        <time>2023-05-06T12:10:57Z</time>
      </trkpt>
      <trkpt lat="47.8577" lon="7.14849">
        <ele>909</ele>
        <time>2023-05-06T12:11:04Z</time>
      </trkpt>
      <trkpt lat="47.85774" lon="7.14849">
        <ele>909</ele>
        <time>2023-05-06T12:11:08Z</time>
      </trkpt>
      <trkpt lat="47.85806" lon="7.14869">
        <ele>911</ele>
        <time>2023-05-06T12:11:34Z</time>
      </trkpt>
      <trkpt lat="47.8581" lon="7.14873">
        <ele>911</ele>
        <time>2023-05-06T12:11:39Z</time>
      </trkpt>
      <trkpt lat="47.85815" lon="7.14875">
        <ele>911</ele>
        <time>2023-05-06T12:11:43Z</time>
      </trkpt>
      <trkpt lat="47.85821" lon="7.14877">
        <ele>912</ele>
        <time>2023-05-06T12:11:51Z</time>
      </trkpt>
      <trkpt lat="47.85855" lon="7.1486">
        <ele>914</ele>
        <time>2023-05-06T12:12:26Z</time>
      </trkpt>
      <trkpt lat="47.85865" lon="7.14853">
        <ele>914</ele>
        <time>2023-05-06T12:12:35Z</time>
      </trkpt>
      <trkpt lat="47.8587" lon="7.14841">
        <ele>914</ele>
        <time>2023-05-06T12:12:45Z</time>
      </trkpt>
      <trkpt lat="47.8588" lon="7.14788">
        <ele>913</ele>
        <time>2023-05-06T12:13:19Z</time>
      </trkpt>
      <trkpt lat="47.85882" lon="7.14782">
        <ele>913</ele>
        <time>2023-05-06T12:13:23Z</time>
      </trkpt>
      <trkpt lat="47.85888" lon="7.14734">
        <ele>913</ele>
        <time>2023-05-06T12:13:55Z</time>
      </trkpt>
      <trkpt lat="47.85888" lon="7.14728">
        <ele>913</ele>
        <time>2023-05-06T12:13:59Z</time>
      </trkpt>
      <trkpt lat="47.85888" lon="7.14721">
        <ele>913</ele>
        <time>2023-05-06T12:14:03Z</time>
      </trkpt>
      <trkpt lat="47.85893" lon="7.14724">
        <ele>912</ele>
        <time>2023-05-06T12:14:10Z</time>
      </trkpt>
      <trkpt lat="47.85901" lon="7.14735">
        <ele>910</ele>
        <time>2023-05-06T12:14:20Z</time>
      </trkpt>
      <trkpt lat="47.85899" lon="7.14708">
        <ele>905</ele>
        <time>2023-05-06T12:14:39Z</time>
      </trkpt>
      <trkpt lat="47.85899" lon="7.147">
        <ele>905</ele>
        <time>2023-05-06T12:14:43Z</time>
      </trkpt>
      <trkpt lat="47.85897" lon="7.1467">
        <ele>905</ele>
        <time>2023-05-06T12:15:00Z</time>
      </trkpt>
      <trkpt lat="47.85898" lon="7.14664">
        <ele>905</ele>
        <time>2023-05-06T12:15:04Z</time>
      </trkpt>
      <trkpt lat="47.859" lon="7.14658">
        <ele>905</ele>
        <time>2023-05-06T12:15:09Z</time>
      </trkpt>
      <trkpt lat="47.85902" lon="7.14646">
        <ele>905</ele>
        <time>2023-05-06T12:15:18Z</time>
      </trkpt>
      <trkpt lat="47.85907" lon="7.14644">
        <ele>906</ele>
        <time>2023-05-06T12:15:22Z</time>
      </trkpt>
      <trkpt lat="47.85911" lon="7.14638">
        <ele>906</ele>
        <time>2023-05-06T12:15:31Z</time>
      </trkpt>
      <trkpt lat="47.85913" lon="7.14632">
        <ele>906</ele>
        <time>2023-05-06T12:15:35Z</time>
      </trkpt>
      <trkpt lat="47.85919" lon="7.14625">
        <ele>906</ele>
        <time>2023-05-06T12:15:42Z</time>
      </trkpt>
      <trkpt lat="47.85919" lon="7.14618">
        <ele>906</ele>
        <time>2023-05-06T12:15:47Z</time>
      </trkpt>
      <trkpt lat="47.85929" lon="7.14594">
        <ele>905</ele>
        <time>2023-05-06T12:16:11Z</time>
      </trkpt>
      <trkpt lat="47.85933" lon="7.14591">
        <ele>905</ele>
        <time>2023-05-06T12:16:15Z</time>
      </trkpt>
      <trkpt lat="47.85936" lon="7.14584">
        <ele>905</ele>
        <time>2023-05-06T12:16:22Z</time>
      </trkpt>
      <trkpt lat="47.8594" lon="7.14581">
        <ele>905</ele>
        <time>2023-05-06T12:16:25Z</time>
      </trkpt>
      <trkpt lat="47.85956" lon="7.14548">
        <ele>902</ele>
        <time>2023-05-06T12:16:50Z</time>
      </trkpt>
      <trkpt lat="47.85959" lon="7.14543">
        <ele>902</ele>
        <time>2023-05-06T12:16:56Z</time>
      </trkpt>
      <trkpt lat="47.85967" lon="7.14516">
        <ele>901</ele>
        <time>2023-05-06T12:17:29Z</time>
      </trkpt>
      <trkpt lat="47.8597" lon="7.14511">
        <ele>900</ele>
        <time>2023-05-06T12:17:34Z</time>
      </trkpt>
      <trkpt lat="47.85972" lon="7.14504">
        <ele>899</ele>
        <time>2023-05-06T12:17:40Z</time>
      </trkpt>
      <trkpt lat="47.8598" lon="7.14489">
        <ele>897</ele>
        <time>2023-05-06T12:17:55Z</time>
      </trkpt>
      <trkpt lat="47.85984" lon="7.14485">
        <ele>896</ele>
        <time>2023-05-06T12:18:00Z</time>
      </trkpt>
      <trkpt lat="47.85988" lon="7.14479">
        <ele>895</ele>
        <time>2023-05-06T12:18:07Z</time>
      </trkpt>
      <trkpt lat="47.85989" lon="7.14473">
        <ele>894</ele>
        <time>2023-05-06T12:18:11Z</time>
      </trkpt>
      <trkpt lat="47.85991" lon="7.14467">
        <ele>894</ele>
        <time>2023-05-06T12:18:15Z</time>
      </trkpt>
      <trkpt lat="47.85994" lon="7.1445">
        <ele>893</ele>
        <time>2023-05-06T12:18:27Z</time>
      </trkpt>
      <trkpt lat="47.85995" lon="7.14439">
        <ele>891</ele>
        <time>2023-05-06T12:18:35Z</time>
      </trkpt>
      <trkpt lat="47.85997" lon="7.14429">
        <ele>891</ele>
        <time>2023-05-06T12:18:41Z</time>
      </trkpt>
      <trkpt lat="47.85998" lon="7.14421">
        <ele>890</ele>
        <time>2023-05-06T12:18:46Z</time>
      </trkpt>
      <trkpt lat="47.86009" lon="7.14398">
        <ele>887</ele>
        <time>2023-05-06T12:19:04Z</time>
      </trkpt>
      <trkpt lat="47.86009" lon="7.14382">
        <ele>884</ele>
        <time>2023-05-06T12:19:16Z</time>
      </trkpt>
      <trkpt lat="47.86012" lon="7.14388">
        <ele>882</ele>
        <time>2023-05-06T12:19:47Z</time>
      </trkpt>
      <trkpt lat="47.86015" lon="7.14375">
        <ele>880</ele>
        <time>2023-05-06T12:20:28Z</time>
      </trkpt>
      <trkpt lat="47.86014" lon="7.14369">
        <ele>880</ele>
        <time>2023-05-06T12:20:31Z</time>
      </trkpt>
      <trkpt lat="47.86014" lon="7.14346">
        <ele>877</ele>
        <time>2023-05-06T12:20:48Z</time>
      </trkpt>
      <trkpt lat="47.86012" lon="7.1434">
        <ele>877</ele>
        <time>2023-05-06T12:20:53Z</time>
      </trkpt>
      <trkpt lat="47.8601" lon="7.14326">
        <ele>876</ele>
        <time>2023-05-06T12:21:00Z</time>
      </trkpt>
      <trkpt lat="47.86011" lon="7.14319">
        <ele>874</ele>
        <time>2023-05-06T12:21:05Z</time>
      </trkpt>
      <trkpt lat="47.8601" lon="7.14313">
        <ele>874</ele>
        <time>2023-05-06T12:21:09Z</time>
      </trkpt>
      <trkpt lat="47.86011" lon="7.14306">
        <ele>873</ele>
        <time>2023-05-06T12:21:14Z</time>
      </trkpt>
      <trkpt lat="47.86009" lon="7.14299">
        <ele>873</ele>
        <time>2023-05-06T12:21:17Z</time>
      </trkpt>
      <trkpt lat="47.86011" lon="7.14293">
        <ele>872</ele>
        <time>2023-05-06T12:21:21Z</time>
      </trkpt>
      <trkpt lat="47.86009" lon="7.14285">
        <ele>871</ele>
        <time>2023-05-06T12:21:27Z</time>
      </trkpt>
      <trkpt lat="47.86009" lon="7.14277">
        <ele>871</ele>
        <time>2023-05-06T12:21:31Z</time>
      </trkpt>
      <trkpt lat="47.8601" lon="7.14271">
        <ele>870</ele>
        <time>2023-05-06T12:21:35Z</time>
      </trkpt>
      <trkpt lat="47.86007" lon="7.14265">
        <ele>870</ele>
        <time>2023-05-06T12:21:40Z</time>
      </trkpt>
      <trkpt lat="47.86008" lon="7.14258">
        <ele>870</ele>
        <time>2023-05-06T12:21:45Z</time>
      </trkpt>
      <trkpt lat="47.8601" lon="7.14253">
        <ele>868</ele>
        <time>2023-05-06T12:21:51Z</time>
      </trkpt>
      <trkpt lat="47.86009" lon="7.14235">
        <ele>866</ele>
        <time>2023-05-06T12:22:03Z</time>
      </trkpt>
      <trkpt lat="47.86012" lon="7.14217">
        <ele>863</ele>
        <time>2023-05-06T12:22:16Z</time>
      </trkpt>
      <trkpt lat="47.86011" lon="7.14202">
        <ele>862</ele>
        <time>2023-05-06T12:22:24Z</time>
      </trkpt>
      <trkpt lat="47.86009" lon="7.14195">
        <ele>862</ele>
        <time>2023-05-06T12:22:28Z</time>
      </trkpt>
      <trkpt lat="47.86008" lon="7.14188">
        <ele>862</ele>
        <time>2023-05-06T12:22:32Z</time>
      </trkpt>
      <trkpt lat="47.8601" lon="7.1417">
        <ele>861</ele>
        <time>2023-05-06T12:22:43Z</time>
      </trkpt>
      <trkpt lat="47.8601" lon="7.14162">
        <ele>859</ele>
        <time>2023-05-06T12:22:50Z</time>
      </trkpt>
      <trkpt lat="47.86011" lon="7.14155">
        <ele>858</ele>
        <time>2023-05-06T12:22:54Z</time>
      </trkpt>
      <trkpt lat="47.86009" lon="7.14147">
        <ele>858</ele>
        <time>2023-05-06T12:23:00Z</time>
      </trkpt>
      <trkpt lat="47.86014" lon="7.14144">
        <ele>857</ele>
        <time>2023-05-06T12:23:06Z</time>
      </trkpt>
      <trkpt lat="47.86013" lon="7.14133">
        <ele>856</ele>
        <time>2023-05-06T12:23:12Z</time>
      </trkpt>
      <trkpt lat="47.86011" lon="7.1412">
        <ele>856</ele>
        <time>2023-05-06T12:23:19Z</time>
      </trkpt>
      <trkpt lat="47.8601" lon="7.14112">
        <ele>856</ele>
        <time>2023-05-06T12:23:23Z</time>
      </trkpt>
      <trkpt lat="47.86007" lon="7.14107">
        <ele>855</ele>
        <time>2023-05-06T12:23:33Z</time>
      </trkpt>
      <trkpt lat="47.86007" lon="7.141">
        <ele>855</ele>
        <time>2023-05-06T12:23:40Z</time>
      </trkpt>
      <trkpt lat="47.86002" lon="7.14087">
        <ele>855</ele>
        <time>2023-05-06T12:23:48Z</time>
      </trkpt>
      <trkpt lat="47.86005" lon="7.14072">
        <ele>855</ele>
        <time>2023-05-06T12:23:59Z</time>
      </trkpt>
      <trkpt lat="47.86006" lon="7.14044">
        <ele>855</ele>
        <time>2023-05-06T12:24:13Z</time>
      </trkpt>
      <trkpt lat="47.86006" lon="7.14035">
        <ele>855</ele>
        <time>2023-05-06T12:24:20Z</time>
      </trkpt>
      <trkpt lat="47.86003" lon="7.14029">
        <ele>854</ele>
        <time>2023-05-06T12:24:24Z</time>
      </trkpt>
      <trkpt lat="47.86001" lon="7.14022">
        <ele>854</ele>
        <time>2023-05-06T12:24:29Z</time>
      </trkpt>
      <trkpt lat="47.86" lon="7.14016">
        <ele>854</ele>
        <time>2023-05-06T12:24:33Z</time>
      </trkpt>
      <trkpt lat="47.85997" lon="7.14007">
        <ele>855</ele>
        <time>2023-05-06T12:24:39Z</time>
      </trkpt>
      <trkpt lat="47.85997" lon="7.13994">
        <ele>855</ele>
        <time>2023-05-06T12:24:48Z</time>
      </trkpt>
      <trkpt lat="47.85996" lon="7.13985">
        <ele>854</ele>
        <time>2023-05-06T12:24:51Z</time>
      </trkpt>
      <trkpt lat="47.85998" lon="7.13964">
        <ele>853</ele>
        <time>2023-05-06T12:25:02Z</time>
      </trkpt>
      <trkpt lat="47.86002" lon="7.13959">
        <ele>853</ele>
        <time>2023-05-06T12:25:06Z</time>
      </trkpt>
      <trkpt lat="47.86006" lon="7.13956">
        <ele>853</ele>
        <time>2023-05-06T12:25:10Z</time>
      </trkpt>
      <trkpt lat="47.8601" lon="7.13953">
        <ele>853</ele>
        <time>2023-05-06T12:25:13Z</time>
      </trkpt>
      <trkpt lat="47.86018" lon="7.13948">
        <ele>853</ele>
        <time>2023-05-06T12:25:20Z</time>
      </trkpt>
      <trkpt lat="47.8602" lon="7.13942">
        <ele>852</ele>
        <time>2023-05-06T12:25:24Z</time>
      </trkpt>
      <trkpt lat="47.86022" lon="7.13936">
        <ele>853</ele>
        <time>2023-05-06T12:25:29Z</time>
      </trkpt>
      <trkpt lat="47.86027" lon="7.13933">
        <ele>853</ele>
        <time>2023-05-06T12:25:32Z</time>
      </trkpt>
      <trkpt lat="47.8603" lon="7.13927">
        <ele>852</ele>
        <time>2023-05-06T12:25:36Z</time>
      </trkpt>
      <trkpt lat="47.86029" lon="7.13916">
        <ele>854</ele>
        <time>2023-05-06T12:25:47Z</time>
      </trkpt>
      <trkpt lat="47.86035" lon="7.13913">
        <ele>853</ele>
        <time>2023-05-06T12:25:51Z</time>
      </trkpt>
      <trkpt lat="47.86044" lon="7.1391">
        <ele>853</ele>
        <time>2023-05-06T12:25:57Z</time>
      </trkpt>
      <trkpt lat="47.86049" lon="7.13906">
        <ele>853</ele>
        <time>2023-05-06T12:26:06Z</time>
      </trkpt>
      <trkpt lat="47.86053" lon="7.139">
        <ele>853</ele>
        <time>2023-05-06T12:26:29Z</time>
      </trkpt>
      <trkpt lat="47.86056" lon="7.13906">
        <ele>854</ele>
        <time>2023-05-06T12:26:59Z</time>
      </trkpt>
      <trkpt lat="47.86059" lon="7.13901">
        <ele>854</ele>
        <time>2023-05-06T12:27:04Z</time>
      </trkpt>
      <trkpt lat="47.86067" lon="7.13905">
        <ele>856</ele>
        <time>2023-05-06T12:27:17Z</time>
      </trkpt>
      <trkpt lat="47.86074" lon="7.13906">
        <ele>856</ele>
        <time>2023-05-06T12:27:24Z</time>
      </trkpt>
      <trkpt lat="47.86077" lon="7.1391">
        <ele>855</ele>
        <time>2023-05-06T12:27:29Z</time>
      </trkpt>
      <trkpt lat="47.8608" lon="7.13916">
        <ele>855</ele>
        <time>2023-05-06T12:27:34Z</time>
      </trkpt>
      <trkpt lat="47.86084" lon="7.1392">
        <ele>855</ele>
        <time>2023-05-06T12:27:39Z</time>
      </trkpt>
      <trkpt lat="47.86089" lon="7.13917">
        <ele>856</ele>
        <time>2023-05-06T12:27:44Z</time>
      </trkpt>
      <trkpt lat="47.86092" lon="7.13903">
        <ele>856</ele>
        <time>2023-05-06T12:27:53Z</time>
      </trkpt>
      <trkpt lat="47.86094" lon="7.13897">
        <ele>857</ele>
        <time>2023-05-06T12:27:58Z</time>
      </trkpt>
      <trkpt lat="47.86097" lon="7.13892">
        <ele>856</ele>
        <time>2023-05-06T12:28:02Z</time>
      </trkpt>
      <trkpt lat="47.86099" lon="7.13884">
        <ele>856</ele>
        <time>2023-05-06T12:28:07Z</time>
      </trkpt>
      <trkpt lat="47.86098" lon="7.13871">
        <ele>856</ele>
        <time>2023-05-06T12:28:15Z</time>
      </trkpt>
      <trkpt lat="47.86099" lon="7.13864">
        <ele>856</ele>
        <time>2023-05-06T12:28:20Z</time>
      </trkpt>
      <trkpt lat="47.861" lon="7.13856">
        <ele>856</ele>
        <time>2023-05-06T12:28:24Z</time>
      </trkpt>
      <trkpt lat="47.86099" lon="7.13843">
        <ele>856</ele>
        <time>2023-05-06T12:28:32Z</time>
      </trkpt>
      <trkpt lat="47.86097" lon="7.1383">
        <ele>858</ele>
        <time>2023-05-06T12:28:46Z</time>
      </trkpt>
      <trkpt lat="47.86094" lon="7.13822">
        <ele>859</ele>
        <time>2023-05-06T12:28:53Z</time>
      </trkpt>
      <trkpt lat="47.86093" lon="7.13812">
        <ele>860</ele>
        <time>2023-05-06T12:29:00Z</time>
      </trkpt>
      <trkpt lat="47.86093" lon="7.13801">
        <ele>862</ele>
        <time>2023-05-06T12:29:10Z</time>
      </trkpt>
      <trkpt lat="47.8609" lon="7.13784">
        <ele>864</ele>
        <time>2023-05-06T12:29:27Z</time>
      </trkpt>
      <trkpt lat="47.86086" lon="7.13775">
        <ele>865</ele>
        <time>2023-05-06T12:29:39Z</time>
      </trkpt>
      <trkpt lat="47.86085" lon="7.13769">
        <ele>865</ele>
        <time>2023-05-06T12:29:45Z</time>
      </trkpt>
      <trkpt lat="47.86083" lon="7.13762">
        <ele>866</ele>
        <time>2023-05-06T12:29:50Z</time>
      </trkpt>
      <trkpt lat="47.86076" lon="7.13757">
        <ele>867</ele>
        <time>2023-05-06T12:30:04Z</time>
      </trkpt>
      <trkpt lat="47.86073" lon="7.1375">
        <ele>867</ele>
        <time>2023-05-06T12:30:11Z</time>
      </trkpt>
      <trkpt lat="47.86066" lon="7.13745">
        <ele>866</ele>
        <time>2023-05-06T12:30:22Z</time>
      </trkpt>
      <trkpt lat="47.86061" lon="7.13741">
        <ele>867</ele>
        <time>2023-05-06T12:30:30Z</time>
      </trkpt>
      <trkpt lat="47.86058" lon="7.13734">
        <ele>867</ele>
        <time>2023-05-06T12:30:34Z</time>
      </trkpt>
      <trkpt lat="47.86055" lon="7.13729">
        <ele>866</ele>
        <time>2023-05-06T12:30:38Z</time>
      </trkpt>
      <trkpt lat="47.86051" lon="7.13725">
        <ele>866</ele>
        <time>2023-05-06T12:30:42Z</time>
      </trkpt>
      <trkpt lat="47.86045" lon="7.1372">
        <ele>867</ele>
        <time>2023-05-06T12:30:50Z</time>
      </trkpt>
      <trkpt lat="47.86041" lon="7.13711">
        <ele>869</ele>
        <time>2023-05-06T12:31:00Z</time>
      </trkpt>
      <trkpt lat="47.86037" lon="7.13705">
        <ele>870</ele>
        <time>2023-05-06T12:31:07Z</time>
      </trkpt>
      <trkpt lat="47.86034" lon="7.13696">
        <ele>870</ele>
        <time>2023-05-06T12:31:26Z</time>
      </trkpt>
      <trkpt lat="47.86029" lon="7.13697">
        <ele>872</ele>
        <time>2023-05-06T12:31:38Z</time>
      </trkpt>
      <trkpt lat="47.86026" lon="7.13687">
        <ele>874</ele>
        <time>2023-05-06T12:31:49Z</time>
      </trkpt>
      <trkpt lat="47.86026" lon="7.13673">
        <ele>873</ele>
        <time>2023-05-06T12:31:59Z</time>
      </trkpt>
      <trkpt lat="47.86026" lon="7.13666">
        <ele>873</ele>
        <time>2023-05-06T12:32:03Z</time>
      </trkpt>
      <trkpt lat="47.86024" lon="7.1365">
        <ele>875</ele>
        <time>2023-05-06T12:32:14Z</time>
      </trkpt>
      <trkpt lat="47.86023" lon="7.13643">
        <ele>875</ele>
        <time>2023-05-06T12:32:19Z</time>
      </trkpt>
      <trkpt lat="47.86024" lon="7.13636">
        <ele>875</ele>
        <time>2023-05-06T12:32:28Z</time>
      </trkpt>
      <trkpt lat="47.86023" lon="7.13627">
        <ele>876</ele>
        <time>2023-05-06T12:32:51Z</time>
      </trkpt>
      <trkpt lat="47.86024" lon="7.1362">
        <ele>874</ele>
        <time>2023-05-06T12:32:58Z</time>
      </trkpt>
      <trkpt lat="47.8602" lon="7.13606">
        <ele>873</ele>
        <time>2023-05-06T12:33:06Z</time>
      </trkpt>
      <trkpt lat="47.86018" lon="7.13601">
        <ele>873</ele>
        <time>2023-05-06T12:33:10Z</time>
      </trkpt>
      <trkpt lat="47.86016" lon="7.13592">
        <ele>874</ele>
        <time>2023-05-06T12:33:17Z</time>
      </trkpt>
      <trkpt lat="47.86012" lon="7.13583">
        <ele>876</ele>
        <time>2023-05-06T12:33:30Z</time>
      </trkpt>
      <trkpt lat="47.86005" lon="7.13583">
        <ele>879</ele>
        <time>2023-05-06T12:33:54Z</time>
      </trkpt>
      <trkpt lat="47.86005" lon="7.13575">
        <ele>881</ele>
        <time>2023-05-06T12:34:06Z</time>
      </trkpt>
      <trkpt lat="47.86011" lon="7.13575">
        <ele>880</ele>
        <time>2023-05-06T12:34:18Z</time>
      </trkpt>
      <trkpt lat="47.86013" lon="7.13569">
        <ele>879</ele>
        <time>2023-05-06T12:34:25Z</time>
      </trkpt>
      <trkpt lat="47.86018" lon="7.13565">
        <ele>878</ele>
        <time>2023-05-06T12:34:31Z</time>
      </trkpt>
      <trkpt lat="47.86017" lon="7.13563">
        <ele>876</ele>
        <time>2023-05-06T12:35:03Z</time>
      </trkpt>
      <trkpt lat="47.86017" lon="7.13555">
        <ele>875</ele>
        <time>2023-05-06T12:35:06Z</time>
      </trkpt>
      <trkpt lat="47.86016" lon="7.13549">
        <ele>875</ele>
        <time>2023-05-06T12:35:09Z</time>
      </trkpt>
      <trkpt lat="47.86016" lon="7.13543">
        <ele>875</ele>
        <time>2023-05-06T12:35:13Z</time>
      </trkpt>
      <trkpt lat="47.86017" lon="7.13536">
        <ele>875</ele>
        <time>2023-05-06T12:35:17Z</time>
      </trkpt>
      <trkpt lat="47.86018" lon="7.13527">
        <ele>875</ele>
        <time>2023-05-06T12:35:25Z</time>
      </trkpt>
      <trkpt lat="47.86018" lon="7.1352">
        <ele>875</ele>
        <time>2023-05-06T12:35:29Z</time>
      </trkpt>
      <trkpt lat="47.86021" lon="7.13516">
        <ele>874</ele>
        <time>2023-05-06T12:35:34Z</time>
      </trkpt>
      <trkpt lat="47.86021" lon="7.13509">
        <ele>873</ele>
        <time>2023-05-06T12:35:39Z</time>
      </trkpt>
      <trkpt lat="47.8602" lon="7.13501">
        <ele>874</ele>
        <time>2023-05-06T12:35:47Z</time>
      </trkpt>
      <trkpt lat="47.86022" lon="7.13495">
        <ele>873</ele>
        <time>2023-05-06T12:35:52Z</time>
      </trkpt>
      <trkpt lat="47.86023" lon="7.1349">
        <ele>874</ele>
        <time>2023-05-06T12:36:04Z</time>
      </trkpt>
      <trkpt lat="47.86026" lon="7.13483">
        <ele>875</ele>
        <time>2023-05-06T12:36:22Z</time>
      </trkpt>
      <trkpt lat="47.86031" lon="7.13475">
        <ele>873</ele>
        <time>2023-05-06T12:36:45Z</time>
      </trkpt>
      <trkpt lat="47.86032" lon="7.13468">
        <ele>872</ele>
        <time>2023-05-06T12:36:50Z</time>
      </trkpt>
      <trkpt lat="47.86035" lon="7.13461">
        <ele>873</ele>
        <time>2023-05-06T12:36:55Z</time>
      </trkpt>
      <trkpt lat="47.86037" lon="7.13454">
        <ele>872</ele>
        <time>2023-05-06T12:37:00Z</time>
      </trkpt>
      <trkpt lat="47.86036" lon="7.13444">
        <ele>874</ele>
        <time>2023-05-06T12:37:08Z</time>
      </trkpt>
      <trkpt lat="47.86041" lon="7.13433">
        <ele>873</ele>
        <time>2023-05-06T12:37:20Z</time>
      </trkpt>
      <trkpt lat="47.86042" lon="7.13426">
        <ele>873</ele>
        <time>2023-05-06T12:37:24Z</time>
      </trkpt>
      <trkpt lat="47.86044" lon="7.13411">
        <ele>874</ele>
        <time>2023-05-06T12:37:38Z</time>
      </trkpt>
      <trkpt lat="47.86047" lon="7.13404">
        <ele>874</ele>
        <time>2023-05-06T12:37:43Z</time>
      </trkpt>
      <trkpt lat="47.86047" lon="7.13397">
        <ele>874</ele>
        <time>2023-05-06T12:37:47Z</time>
      </trkpt>
      <trkpt lat="47.86051" lon="7.13387">
        <ele>875</ele>
        <time>2023-05-06T12:38:02Z</time>
      </trkpt>
      <trkpt lat="47.86058" lon="7.13374">
        <ele>875</ele>
        <time>2023-05-06T12:38:14Z</time>
      </trkpt>
      <trkpt lat="47.86065" lon="7.1336">
        <ele>873</ele>
        <time>2023-05-06T12:38:32Z</time>
      </trkpt>
      <trkpt lat="47.86065" lon="7.13352">
        <ele>873</ele>
        <time>2023-05-06T12:38:39Z</time>
      </trkpt>
      <trkpt lat="47.86067" lon="7.13345">
        <ele>873</ele>
        <time>2023-05-06T12:38:47Z</time>
      </trkpt>
      <trkpt lat="47.8607" lon="7.13333">
        <ele>875</ele>
        <time>2023-05-06T12:38:58Z</time>
      </trkpt>
      <trkpt lat="47.86075" lon="7.13328">
        <ele>875</ele>
        <time>2023-05-06T12:39:05Z</time>
      </trkpt>
      <trkpt lat="47.86077" lon="7.13322">
        <ele>875</ele>
        <time>2023-05-06T12:39:09Z</time>
      </trkpt>
      <trkpt lat="47.86078" lon="7.13315">
        <ele>875</ele>
        <time>2023-05-06T12:39:13Z</time>
      </trkpt>
      <trkpt lat="47.86081" lon="7.133">
        <ele>874</ele>
        <time>2023-05-06T12:39:24Z</time>
      </trkpt>
      <trkpt lat="47.86082" lon="7.13303">
        <ele>875</ele>
        <time>2023-05-06T12:39:58Z</time>
      </trkpt>
      <trkpt lat="47.86087" lon="7.13302">
        <ele>875</ele>
        <time>2023-05-06T12:40:01Z</time>
      </trkpt>
      <trkpt lat="47.86093" lon="7.13299">
        <ele>876</ele>
        <time>2023-05-06T12:40:10Z</time>
      </trkpt>
      <trkpt lat="47.86098" lon="7.1331">
        <ele>873</ele>
        <time>2023-05-06T12:40:27Z</time>
      </trkpt>
      <trkpt lat="47.86102" lon="7.13311">
        <ele>871</ele>
        <time>2023-05-06T12:40:35Z</time>
      </trkpt>
      <trkpt lat="47.86107" lon="7.13311">
        <ele>871</ele>
        <time>2023-05-06T12:40:43Z</time>
      </trkpt>
      <trkpt lat="47.86111" lon="7.13308">
        <ele>870</ele>
        <time>2023-05-06T12:40:46Z</time>
      </trkpt>
      <trkpt lat="47.86128" lon="7.13305">
        <ele>870</ele>
        <time>2023-05-06T12:41:07Z</time>
      </trkpt>
      <trkpt lat="47.86144" lon="7.13307">
        <ele>871</ele>
        <time>2023-05-06T12:41:22Z</time>
      </trkpt>
      <trkpt lat="47.86148" lon="7.13309">
        <ele>871</ele>
        <time>2023-05-06T12:41:27Z</time>
      </trkpt>
      <trkpt lat="47.86155" lon="7.1331">
        <ele>872</ele>
        <time>2023-05-06T12:41:34Z</time>
      </trkpt>
      <trkpt lat="47.8616" lon="7.13309">
        <ele>872</ele>
        <time>2023-05-06T12:41:38Z</time>
      </trkpt>
      <trkpt lat="47.86165" lon="7.13307">
        <ele>872</ele>
        <time>2023-05-06T12:41:42Z</time>
      </trkpt>
      <trkpt lat="47.86178" lon="7.13306">
        <ele>871</ele>
        <time>2023-05-06T12:41:53Z</time>
      </trkpt>
      <trkpt lat="47.86187" lon="7.13305">
        <ele>871</ele>
        <time>2023-05-06T12:42:00Z</time>
      </trkpt>
      <trkpt lat="47.86191" lon="7.13307">
        <ele>871</ele>
        <time>2023-05-06T12:42:05Z</time>
      </trkpt>
      <trkpt lat="47.86196" lon="7.13306">
        <ele>871</ele>
        <time>2023-05-06T12:42:17Z</time>
      </trkpt>
      <trkpt lat="47.86201" lon="7.13305">
        <ele>871</ele>
        <time>2023-05-06T12:42:23Z</time>
      </trkpt>
      <trkpt lat="47.86205" lon="7.13307">
        <ele>871</ele>
        <time>2023-05-06T12:42:28Z</time>
      </trkpt>
      <trkpt lat="47.86209" lon="7.13311">
        <ele>870</ele>
        <time>2023-05-06T12:42:33Z</time>
      </trkpt>
      <trkpt lat="47.86214" lon="7.13312">
        <ele>870</ele>
        <time>2023-05-06T12:42:43Z</time>
      </trkpt>
      <trkpt lat="47.8622" lon="7.1331">
        <ele>871</ele>
        <time>2023-05-06T12:43:00Z</time>
      </trkpt>
      <trkpt lat="47.8623" lon="7.13314">
        <ele>871</ele>
        <time>2023-05-06T12:43:09Z</time>
      </trkpt>
      <trkpt lat="47.86238" lon="7.13322">
        <ele>871</ele>
        <time>2023-05-06T12:43:16Z</time>
      </trkpt>
      <trkpt lat="47.86255" lon="7.13332">
        <ele>870</ele>
        <time>2023-05-06T12:43:31Z</time>
      </trkpt>
      <trkpt lat="47.86261" lon="7.13333">
        <ele>868</ele>
        <time>2023-05-06T12:43:36Z</time>
      </trkpt>
      <trkpt lat="47.8627" lon="7.13339">
        <ele>867</ele>
        <time>2023-05-06T12:43:43Z</time>
      </trkpt>
      <trkpt lat="47.86275" lon="7.1334">
        <ele>866</ele>
        <time>2023-05-06T12:43:47Z</time>
      </trkpt>
      <trkpt lat="47.86287" lon="7.13343">
        <ele>870</ele>
        <time>2023-05-06T12:44:12Z</time>
      </trkpt>
      <trkpt lat="47.86294" lon="7.13342">
        <ele>872</ele>
        <time>2023-05-06T12:44:24Z</time>
      </trkpt>
      <trkpt lat="47.86301" lon="7.13345">
        <ele>873</ele>
        <time>2023-05-06T12:44:33Z</time>
      </trkpt>
      <trkpt lat="47.86305" lon="7.13348">
        <ele>872</ele>
        <time>2023-05-06T12:44:38Z</time>
      </trkpt>
      <trkpt lat="47.8631" lon="7.13346">
        <ele>872</ele>
        <time>2023-05-06T12:44:42Z</time>
      </trkpt>
      <trkpt lat="47.86315" lon="7.13345">
        <ele>872</ele>
        <time>2023-05-06T12:44:46Z</time>
      </trkpt>
      <trkpt lat="47.86324" lon="7.13337">
        <ele>872</ele>
        <time>2023-05-06T12:44:57Z</time>
      </trkpt>
      <trkpt lat="47.86327" lon="7.13334">
        <ele>872</ele>
        <time>2023-05-06T12:45:01Z</time>
      </trkpt>
      <trkpt lat="47.86331" lon="7.13328">
        <ele>871</ele>
        <time>2023-05-06T12:45:08Z</time>
      </trkpt>
      <trkpt lat="47.8634" lon="7.1332">
        <ele>870</ele>
        <time>2023-05-06T12:45:16Z</time>
      </trkpt>
      <trkpt lat="47.86343" lon="7.13312">
        <ele>870</ele>
        <time>2023-05-06T12:45:21Z</time>
      </trkpt>
      <trkpt lat="47.86347" lon="7.13308">
        <ele>870</ele>
        <time>2023-05-06T12:45:24Z</time>
      </trkpt>
      <trkpt lat="47.8635" lon="7.13299">
        <ele>870</ele>
        <time>2023-05-06T12:45:31Z</time>
      </trkpt>
      <trkpt lat="47.86359" lon="7.13289">
        <ele>871</ele>
        <time>2023-05-06T12:45:49Z</time>
      </trkpt>
      <trkpt lat="47.86363" lon="7.13283">
        <ele>870</ele>
        <time>2023-05-06T12:45:55Z</time>
      </trkpt>
      <trkpt lat="47.86374" lon="7.13279">
        <ele>870</ele>
        <time>2023-05-06T12:46:02Z</time>
      </trkpt>
      <trkpt lat="47.86384" lon="7.13275">
        <ele>870</ele>
        <time>2023-05-06T12:46:10Z</time>
      </trkpt>
      <trkpt lat="47.86388" lon="7.13276">
        <ele>870</ele>
        <time>2023-05-06T12:46:14Z</time>
      </trkpt>
      <trkpt lat="47.86393" lon="7.13279">
        <ele>870</ele>
        <time>2023-05-06T12:46:18Z</time>
      </trkpt>
      <trkpt lat="47.86397" lon="7.13273">
        <ele>871</ele>
        <time>2023-05-06T12:46:27Z</time>
      </trkpt>
      <trkpt lat="47.86401" lon="7.1327">
        <ele>871</ele>
        <time>2023-05-06T12:46:31Z</time>
      </trkpt>
      <trkpt lat="47.86409" lon="7.13254">
        <ele>872</ele>
        <time>2023-05-06T12:46:43Z</time>
      </trkpt>
      <trkpt lat="47.86409" lon="7.13247">
        <ele>872</ele>
        <time>2023-05-06T12:46:47Z</time>
      </trkpt>
      <trkpt lat="47.86411" lon="7.1324">
        <ele>872</ele>
        <time>2023-05-06T12:46:51Z</time>
      </trkpt>
      <trkpt lat="47.86416" lon="7.13226">
        <ele>873</ele>
        <time>2023-05-06T12:47:02Z</time>
      </trkpt>
      <trkpt lat="47.8642" lon="7.13223">
        <ele>872</ele>
        <time>2023-05-06T12:47:06Z</time>
      </trkpt>
      <trkpt lat="47.86424" lon="7.13209">
        <ele>871</ele>
        <time>2023-05-06T12:47:14Z</time>
      </trkpt>
      <trkpt lat="47.86429" lon="7.13198">
        <ele>871</ele>
        <time>2023-05-06T12:47:23Z</time>
      </trkpt>
      <trkpt lat="47.8643" lon="7.13192">
        <ele>872</ele>
        <time>2023-05-06T12:47:27Z</time>
      </trkpt>
      <trkpt lat="47.86433" lon="7.13186">
        <ele>872</ele>
        <time>2023-05-06T12:47:31Z</time>
      </trkpt>
      <trkpt lat="47.86432" lon="7.13177">
        <ele>872</ele>
        <time>2023-05-06T12:47:39Z</time>
      </trkpt>
      <trkpt lat="47.86439" lon="7.13131">
        <ele>872</ele>
        <time>2023-05-06T12:48:03Z</time>
      </trkpt>
      <trkpt lat="47.86441" lon="7.13123">
        <ele>872</ele>
        <time>2023-05-06T12:48:09Z</time>
      </trkpt>
      <trkpt lat="47.86446" lon="7.1312">
        <ele>872</ele>
        <time>2023-05-06T12:48:12Z</time>
      </trkpt>
      <trkpt lat="47.86445" lon="7.13114">
        <ele>872</ele>
        <time>2023-05-06T12:48:17Z</time>
      </trkpt>
      <trkpt lat="47.86442" lon="7.131">
        <ele>873</ele>
        <time>2023-05-06T12:48:28Z</time>
      </trkpt>
      <trkpt lat="47.86443" lon="7.13093">
        <ele>873</ele>
        <time>2023-05-06T12:48:32Z</time>
      </trkpt>
      <trkpt lat="47.86443" lon="7.13086">
        <ele>873</ele>
        <time>2023-05-06T12:48:37Z</time>
      </trkpt>
      <trkpt lat="47.86442" lon="7.13074">
        <ele>873</ele>
        <time>2023-05-06T12:48:46Z</time>
      </trkpt>
      <trkpt lat="47.86436" lon="7.13072">
        <ele>874</ele>
        <time>2023-05-06T12:48:53Z</time>
      </trkpt>
      <trkpt lat="47.86433" lon="7.13066">
        <ele>876</ele>
        <time>2023-05-06T12:49:00Z</time>
      </trkpt>
      <trkpt lat="47.86438" lon="7.13059">
        <ele>876</ele>
        <time>2023-05-06T12:49:08Z</time>
      </trkpt>
      <trkpt lat="47.86443" lon="7.13058">
        <ele>876</ele>
        <time>2023-05-06T12:49:12Z</time>
      </trkpt>
      <trkpt lat="47.86447" lon="7.13056">
        <ele>874</ele>
        <time>2023-05-06T12:49:17Z</time>
      </trkpt>
      <trkpt lat="47.86451" lon="7.13048">
        <ele>873</ele>
        <time>2023-05-06T12:49:28Z</time>
      </trkpt>
      <trkpt lat="47.86452" lon="7.13041">
        <ele>873</ele>
        <time>2023-05-06T12:49:32Z</time>
      </trkpt>
      <trkpt lat="47.86451" lon="7.13027">
        <ele>873</ele>
        <time>2023-05-06T12:49:39Z</time>
      </trkpt>
      <trkpt lat="47.86454" lon="7.1302">
        <ele>873</ele>
        <time>2023-05-06T12:49:43Z</time>
      </trkpt>
      <trkpt lat="47.86458" lon="7.13016">
        <ele>873</ele>
        <time>2023-05-06T12:49:46Z</time>
      </trkpt>
      <trkpt lat="47.86462" lon="7.1301">
        <ele>873</ele>
        <time>2023-05-06T12:49:50Z</time>
      </trkpt>
      <trkpt lat="47.86468" lon="7.13011">
        <ele>872</ele>
        <time>2023-05-06T12:49:59Z</time>
      </trkpt>
      <trkpt lat="47.86472" lon="7.13008">
        <ele>872</ele>
        <time>2023-05-06T12:50:04Z</time>
      </trkpt>
      <trkpt lat="47.86478" lon="7.1301">
        <ele>872</ele>
        <time>2023-05-06T12:50:09Z</time>
      </trkpt>
      <trkpt lat="47.86484" lon="7.13005">
        <ele>872</ele>
        <time>2023-05-06T12:50:21Z</time>
      </trkpt>
      <trkpt lat="47.86487" lon="7.13">
        <ele>871</ele>
        <time>2023-05-06T12:50:24Z</time>
      </trkpt>
      <trkpt lat="47.86491" lon="7.13002">
        <ele>871</ele>
        <time>2023-05-06T12:50:27Z</time>
      </trkpt>
      <trkpt lat="47.86491" lon="7.12994">
        <ele>871</ele>
        <time>2023-05-06T12:50:34Z</time>
      </trkpt>
      <trkpt lat="47.86498" lon="7.1299">
        <ele>872</ele>
        <time>2023-05-06T12:50:41Z</time>
      </trkpt>
      <trkpt lat="47.86502" lon="7.12986">
        <ele>871</ele>
        <time>2023-05-06T12:50:51Z</time>
      </trkpt>
      <trkpt lat="47.86502" lon="7.12979">
        <ele>871</ele>
        <time>2023-05-06T12:50:57Z</time>
      </trkpt>
      <trkpt lat="47.86502" lon="7.12968">
        <ele>873</ele>
        <time>2023-05-06T12:51:05Z</time>
      </trkpt>
      <trkpt lat="47.86508" lon="7.12964">
        <ele>873</ele>
        <time>2023-05-06T12:51:16Z</time>
      </trkpt>
      <trkpt lat="47.86514" lon="7.12954">
        <ele>873</ele>
        <time>2023-05-06T12:51:24Z</time>
      </trkpt>
      <trkpt lat="47.86518" lon="7.12951">
        <ele>873</ele>
        <time>2023-05-06T12:51:29Z</time>
      </trkpt>
      <trkpt lat="47.86522" lon="7.12948">
        <ele>873</ele>
        <time>2023-05-06T12:51:36Z</time>
      </trkpt>
      <trkpt lat="47.86523" lon="7.12941">
        <ele>873</ele>
        <time>2023-05-06T12:51:48Z</time>
      </trkpt>
      <trkpt lat="47.86525" lon="7.12934">
        <ele>872</ele>
        <time>2023-05-06T12:51:53Z</time>
      </trkpt>
      <trkpt lat="47.86527" lon="7.12926">
        <ele>873</ele>
        <time>2023-05-06T12:52:01Z</time>
      </trkpt>
      <trkpt lat="47.86523" lon="7.12901">
        <ele>873</ele>
        <time>2023-05-06T12:52:16Z</time>
      </trkpt>
      <trkpt lat="47.86522" lon="7.12895">
        <ele>873</ele>
        <time>2023-05-06T12:52:20Z</time>
      </trkpt>
      <trkpt lat="47.86519" lon="7.1289">
        <ele>874</ele>
        <time>2023-05-06T12:52:25Z</time>
      </trkpt>
      <trkpt lat="47.86513" lon="7.12886">
        <ele>874</ele>
        <time>2023-05-06T12:52:35Z</time>
      </trkpt>
      <trkpt lat="47.86511" lon="7.12869">
        <ele>872</ele>
        <time>2023-05-06T12:52:54Z</time>
      </trkpt>
      <trkpt lat="47.86506" lon="7.12864">
        <ele>874</ele>
        <time>2023-05-06T12:53:19Z</time>
      </trkpt>
      <trkpt lat="47.86508" lon="7.12851">
        <ele>874</ele>
        <time>2023-05-06T12:53:40Z</time>
      </trkpt>
      <trkpt lat="47.86508" lon="7.12837">
        <ele>874</ele>
        <time>2023-05-06T12:53:48Z</time>
      </trkpt>
      <trkpt lat="47.86507" lon="7.12824">
        <ele>874</ele>
        <time>2023-05-06T12:53:56Z</time>
      </trkpt>
      <trkpt lat="47.86504" lon="7.12811">
        <ele>873</ele>
        <time>2023-05-06T12:54:04Z</time>
      </trkpt>
      <trkpt lat="47.86502" lon="7.12802">
        <ele>873</ele>
        <time>2023-05-06T12:54:11Z</time>
      </trkpt>
      <trkpt lat="47.86505" lon="7.12794">
        <ele>872</ele>
        <time>2023-05-06T12:54:17Z</time>
      </trkpt>
      <trkpt lat="47.86505" lon="7.12787">
        <ele>872</ele>
        <time>2023-05-06T12:54:20Z</time>
      </trkpt>
      <trkpt lat="47.86509" lon="7.12781">
        <ele>872</ele>
        <time>2023-05-06T12:54:24Z</time>
      </trkpt>
      <trkpt lat="47.86514" lon="7.1278">
        <ele>872</ele>
        <time>2023-05-06T12:54:27Z</time>
      </trkpt>
      <trkpt lat="47.86528" lon="7.12781">
        <ele>870</ele>
        <time>2023-05-06T12:54:37Z</time>
      </trkpt>
      <trkpt lat="47.86538" lon="7.1278">
        <ele>869</ele>
        <time>2023-05-06T12:54:44Z</time>
      </trkpt>
      <trkpt lat="47.86541" lon="7.12773">
        <ele>867</ele>
        <time>2023-05-06T12:54:51Z</time>
      </trkpt>
      <trkpt lat="47.86543" lon="7.12766">
        <ele>868</ele>
        <time>2023-05-06T12:54:57Z</time>
      </trkpt>
      <trkpt lat="47.86552" lon="7.12758">
        <ele>869</ele>
        <time>2023-05-06T12:55:09Z</time>
      </trkpt>
      <trkpt lat="47.86563" lon="7.12753">
        <ele>870</ele>
        <time>2023-05-06T12:55:17Z</time>
      </trkpt>
      <trkpt lat="47.86569" lon="7.1275">
        <ele>871</ele>
        <time>2023-05-06T12:55:31Z</time>
      </trkpt>
      <trkpt lat="47.86581" lon="7.12749">
        <ele>868</ele>
        <time>2023-05-06T12:55:46Z</time>
      </trkpt>
      <trkpt lat="47.86588" lon="7.12744">
        <ele>868</ele>
        <time>2023-05-06T12:55:55Z</time>
      </trkpt>
      <trkpt lat="47.86596" lon="7.1274">
        <ele>868</ele>
        <time>2023-05-06T12:56:03Z</time>
      </trkpt>
      <trkpt lat="47.86608" lon="7.12727">
        <ele>871</ele>
        <time>2023-05-06T12:56:31Z</time>
      </trkpt>
      <trkpt lat="47.86611" lon="7.12721">
        <ele>871</ele>
        <time>2023-05-06T12:56:37Z</time>
      </trkpt>
      <trkpt lat="47.86616" lon="7.12712">
        <ele>871</ele>
        <time>2023-05-06T12:56:46Z</time>
      </trkpt>
      <trkpt lat="47.86619" lon="7.12706">
        <ele>871</ele>
        <time>2023-05-06T12:56:50Z</time>
      </trkpt>
      <trkpt lat="47.8662" lon="7.127">
        <ele>871</ele>
        <time>2023-05-06T12:56:54Z</time>
      </trkpt>
      <trkpt lat="47.86623" lon="7.12694">
        <ele>871</ele>
        <time>2023-05-06T12:56:58Z</time>
      </trkpt>
      <trkpt lat="47.86623" lon="7.12687">
        <ele>870</ele>
        <time>2023-05-06T12:57:02Z</time>
      </trkpt>
      <trkpt lat="47.86626" lon="7.12679">
        <ele>869</ele>
        <time>2023-05-06T12:57:06Z</time>
      </trkpt>
      <trkpt lat="47.86628" lon="7.12673">
        <ele>869</ele>
        <time>2023-05-06T12:57:11Z</time>
      </trkpt>
      <trkpt lat="47.86627" lon="7.12665">
        <ele>868</ele>
        <time>2023-05-06T12:57:15Z</time>
      </trkpt>
      <trkpt lat="47.86627" lon="7.12657">
        <ele>869</ele>
        <time>2023-05-06T12:57:19Z</time>
      </trkpt>
      <trkpt lat="47.86632" lon="7.1265">
        <ele>869</ele>
        <time>2023-05-06T12:57:22Z</time>
      </trkpt>
      <trkpt lat="47.86633" lon="7.12645">
        <ele>869</ele>
        <time>2023-05-06T12:57:25Z</time>
      </trkpt>
      <trkpt lat="47.86632" lon="7.12638">
        <ele>869</ele>
        <time>2023-05-06T12:57:29Z</time>
      </trkpt>
      <trkpt lat="47.86635" lon="7.12631">
        <ele>870</ele>
        <time>2023-05-06T12:57:35Z</time>
      </trkpt>
      <trkpt lat="47.86637" lon="7.12625">
        <ele>870</ele>
        <time>2023-05-06T12:57:39Z</time>
      </trkpt>
      <trkpt lat="47.86639" lon="7.12618">
        <ele>870</ele>
        <time>2023-05-06T12:57:43Z</time>
      </trkpt>
      <trkpt lat="47.86641" lon="7.12611">
        <ele>870</ele>
        <time>2023-05-06T12:57:48Z</time>
      </trkpt>
      <trkpt lat="47.86644" lon="7.12606">
        <ele>869</ele>
        <time>2023-05-06T12:57:52Z</time>
      </trkpt>
      <trkpt lat="47.86647" lon="7.12599">
        <ele>868</ele>
        <time>2023-05-06T12:57:56Z</time>
      </trkpt>
      <trkpt lat="47.86658" lon="7.12575">
        <ele>869</ele>
        <time>2023-05-06T12:58:10Z</time>
      </trkpt>
      <trkpt lat="47.86661" lon="7.12568">
        <ele>869</ele>
        <time>2023-05-06T12:58:14Z</time>
      </trkpt>
      <trkpt lat="47.86662" lon="7.12561">
        <ele>869</ele>
        <time>2023-05-06T12:58:18Z</time>
      </trkpt>
      <trkpt lat="47.86666" lon="7.12556">
        <ele>869</ele>
        <time>2023-05-06T12:58:23Z</time>
      </trkpt>
      <trkpt lat="47.86669" lon="7.1255">
        <ele>870</ele>
        <time>2023-05-06T12:58:28Z</time>
      </trkpt>
      <trkpt lat="47.86673" lon="7.12546">
        <ele>870</ele>
        <time>2023-05-06T12:58:32Z</time>
      </trkpt>
      <trkpt lat="47.86676" lon="7.12541">
        <ele>871</ele>
        <time>2023-05-06T12:58:36Z</time>
      </trkpt>
      <trkpt lat="47.86681" lon="7.12537">
        <ele>871</ele>
        <time>2023-05-06T12:58:39Z</time>
      </trkpt>
      <trkpt lat="47.86683" lon="7.12532">
        <ele>870</ele>
        <time>2023-05-06T12:58:43Z</time>
      </trkpt>
      <trkpt lat="47.86689" lon="7.12521">
        <ele>870</ele>
        <time>2023-05-06T12:58:51Z</time>
      </trkpt>
      <trkpt lat="47.8669" lon="7.12515">
        <ele>870</ele>
        <time>2023-05-06T12:58:55Z</time>
      </trkpt>
      <trkpt lat="47.86694" lon="7.12507">
        <ele>870</ele>
        <time>2023-05-06T12:59:02Z</time>
      </trkpt>
      <trkpt lat="47.86696" lon="7.12501">
        <ele>870</ele>
        <time>2023-05-06T12:59:06Z</time>
      </trkpt>
      <trkpt lat="47.86699" lon="7.12494">
        <ele>871</ele>
        <time>2023-05-06T12:59:11Z</time>
      </trkpt>
      <trkpt lat="47.86702" lon="7.12489">
        <ele>871</ele>
        <time>2023-05-06T12:59:15Z</time>
      </trkpt>
      <trkpt lat="47.86706" lon="7.12478">
        <ele>871</ele>
        <time>2023-05-06T12:59:23Z</time>
      </trkpt>
      <trkpt lat="47.8671" lon="7.12474">
        <ele>871</ele>
        <time>2023-05-06T12:59:39Z</time>
      </trkpt>
      <trkpt lat="47.86711" lon="7.12468">
        <ele>871</ele>
        <time>2023-05-06T12:59:46Z</time>
      </trkpt>
      <trkpt lat="47.86715" lon="7.12456">
        <ele>871</ele>
        <time>2023-05-06T12:59:54Z</time>
      </trkpt>
      <trkpt lat="47.86718" lon="7.12452">
        <ele>871</ele>
        <time>2023-05-06T12:59:58Z</time>
      </trkpt>
      <trkpt lat="47.86723" lon="7.12449">
        <ele>871</ele>
        <time>2023-05-06T13:00:02Z</time>
      </trkpt>
      <trkpt lat="47.86727" lon="7.12451">
        <ele>871</ele>
        <time>2023-05-06T13:00:05Z</time>
      </trkpt>
      <trkpt lat="47.86732" lon="7.1245">
        <ele>871</ele>
        <time>2023-05-06T13:00:09Z</time>
      </trkpt>
      <trkpt lat="47.86736" lon="7.12447">
        <ele>870</ele>
        <time>2023-05-06T13:00:13Z</time>
      </trkpt>
      <trkpt lat="47.86744" lon="7.1244">
        <ele>870</ele>
        <time>2023-05-06T13:00:21Z</time>
      </trkpt>
      <trkpt lat="47.86747" lon="7.12435">
        <ele>870</ele>
        <time>2023-05-06T13:00:25Z</time>
      </trkpt>
      <trkpt lat="47.86758" lon="7.12431">
        <ele>870</ele>
        <time>2023-05-06T13:00:34Z</time>
      </trkpt>
      <trkpt lat="47.86767" lon="7.12418">
        <ele>869</ele>
        <time>2023-05-06T13:00:44Z</time>
      </trkpt>
      <trkpt lat="47.86769" lon="7.12411">
        <ele>869</ele>
        <time>2023-05-06T13:00:47Z</time>
      </trkpt>
      <trkpt lat="47.8677" lon="7.12404">
        <ele>868</ele>
        <time>2023-05-06T13:00:51Z</time>
      </trkpt>
      <trkpt lat="47.86773" lon="7.12399">
        <ele>869</ele>
        <time>2023-05-06T13:00:55Z</time>
      </trkpt>
      <trkpt lat="47.86776" lon="7.12394">
        <ele>868</ele>
        <time>2023-05-06T13:00:59Z</time>
      </trkpt>
      <trkpt lat="47.86779" lon="7.12389">
        <ele>868</ele>
        <time>2023-05-06T13:01:03Z</time>
      </trkpt>
      <trkpt lat="47.8678" lon="7.12381">
        <ele>869</ele>
        <time>2023-05-06T13:01:07Z</time>
      </trkpt>
      <trkpt lat="47.86783" lon="7.12376">
        <ele>869</ele>
        <time>2023-05-06T13:01:12Z</time>
      </trkpt>
      <trkpt lat="47.86795" lon="7.12354">
        <ele>870</ele>
        <time>2023-05-06T13:01:31Z</time>
      </trkpt>
      <trkpt lat="47.86798" lon="7.12348">
        <ele>870</ele>
        <time>2023-05-06T13:01:35Z</time>
      </trkpt>
      <trkpt lat="47.868" lon="7.12342">
        <ele>870</ele>
        <time>2023-05-06T13:01:39Z</time>
      </trkpt>
      <trkpt lat="47.86804" lon="7.12339">
        <ele>869</ele>
        <time>2023-05-06T13:01:44Z</time>
      </trkpt>
      <trkpt lat="47.86807" lon="7.12332">
        <ele>868</ele>
        <time>2023-05-06T13:01:48Z</time>
      </trkpt>
      <trkpt lat="47.86813" lon="7.12324">
        <ele>867</ele>
        <time>2023-05-06T13:01:55Z</time>
      </trkpt>
      <trkpt lat="47.86824" lon="7.12302">
        <ele>867</ele>
        <time>2023-05-06T13:02:12Z</time>
      </trkpt>
      <trkpt lat="47.8683" lon="7.12292">
        <ele>866</ele>
        <time>2023-05-06T13:02:20Z</time>
      </trkpt>
      <trkpt lat="47.86832" lon="7.12286">
        <ele>866</ele>
        <time>2023-05-06T13:02:24Z</time>
      </trkpt>
      <trkpt lat="47.86837" lon="7.12285">
        <ele>867</ele>
        <time>2023-05-06T13:02:29Z</time>
      </trkpt>
      <trkpt lat="47.8685" lon="7.12285">
        <ele>869</ele>
        <time>2023-05-06T13:02:44Z</time>
      </trkpt>
      <trkpt lat="47.86873" lon="7.12271">
        <ele>872</ele>
        <time>2023-05-06T13:03:15Z</time>
      </trkpt>
      <trkpt lat="47.86878" lon="7.12272">
        <ele>873</ele>
        <time>2023-05-06T13:03:21Z</time>
      </trkpt>
      <trkpt lat="47.86899" lon="7.12264">
        <ele>878</ele>
        <time>2023-05-06T13:03:56Z</time>
      </trkpt>
      <trkpt lat="47.86923" lon="7.12272">
        <ele>884</ele>
        <time>2023-05-06T13:04:29Z</time>
      </trkpt>
      <trkpt lat="47.86928" lon="7.12273">
        <ele>885</ele>
        <time>2023-05-06T13:04:36Z</time>
      </trkpt>
      <trkpt lat="47.86933" lon="7.12277">
        <ele>886</ele>
        <time>2023-05-06T13:04:44Z</time>
      </trkpt>
      <trkpt lat="47.86946" lon="7.12293">
        <ele>890</ele>
        <time>2023-05-06T13:05:25Z</time>
      </trkpt>
      <trkpt lat="47.86951" lon="7.12297">
        <ele>891</ele>
        <time>2023-05-06T13:05:31Z</time>
      </trkpt>
      <trkpt lat="47.86957" lon="7.1231">
        <ele>893</ele>
        <time>2023-05-06T13:05:45Z</time>
      </trkpt>
      <trkpt lat="47.8698" lon="7.12337">
        <ele>900</ele>
        <time>2023-05-06T13:06:25Z</time>
      </trkpt>
      <trkpt lat="47.86993" lon="7.12347">
        <ele>902</ele>
        <time>2023-05-06T13:06:42Z</time>
      </trkpt>
      <trkpt lat="47.86996" lon="7.12352">
        <ele>903</ele>
        <time>2023-05-06T13:06:47Z</time>
      </trkpt>
      <trkpt lat="47.87002" lon="7.12359">
        <ele>904</ele>
        <time>2023-05-06T13:06:54Z</time>
      </trkpt>
      <trkpt lat="47.87006" lon="7.12365">
        <ele>905</ele>
        <time>2023-05-06T13:07:00Z</time>
      </trkpt>
      <trkpt lat="47.8701" lon="7.1237">
        <ele>906</ele>
        <time>2023-05-06T13:07:05Z</time>
      </trkpt>
      <trkpt lat="47.87024" lon="7.12393">
        <ele>908</ele>
        <time>2023-05-06T13:07:25Z</time>
      </trkpt>
      <trkpt lat="47.87027" lon="7.12401">
        <ele>908</ele>
        <time>2023-05-06T13:07:32Z</time>
      </trkpt>
      <trkpt lat="47.87029" lon="7.12407">
        <ele>908</ele>
        <time>2023-05-06T13:07:36Z</time>
      </trkpt>
      <trkpt lat="47.8703" lon="7.12413">
        <ele>908</ele>
        <time>2023-05-06T13:07:40Z</time>
      </trkpt>
      <trkpt lat="47.8703" lon="7.12422">
        <ele>909</ele>
        <time>2023-05-06T13:07:48Z</time>
      </trkpt>
      <trkpt lat="47.87031" lon="7.12429">
        <ele>910</ele>
        <time>2023-05-06T13:07:53Z</time>
      </trkpt>
      <trkpt lat="47.87031" lon="7.12437">
        <ele>912</ele>
        <time>2023-05-06T13:08:01Z</time>
      </trkpt>
      <trkpt lat="47.87033" lon="7.12444">
        <ele>912</ele>
        <time>2023-05-06T13:08:06Z</time>
      </trkpt>
      <trkpt lat="47.87034" lon="7.12455">
        <ele>914</ele>
        <time>2023-05-06T13:08:15Z</time>
      </trkpt>
      <trkpt lat="47.87024" lon="7.1247">
        <ele>915</ele>
        <time>2023-05-06T13:08:29Z</time>
      </trkpt>
      <trkpt lat="47.87021" lon="7.12478">
        <ele>916</ele>
        <time>2023-05-06T13:08:35Z</time>
      </trkpt>
      <trkpt lat="47.87021" lon="7.12489">
        <ele>917</ele>
        <time>2023-05-06T13:08:46Z</time>
      </trkpt>
      <trkpt lat="47.8702" lon="7.12503">
        <ele>916</ele>
        <time>2023-05-06T13:08:55Z</time>
      </trkpt>
      <trkpt lat="47.87023" lon="7.12508">
        <ele>916</ele>
        <time>2023-05-06T13:09:05Z</time>
      </trkpt>
      <trkpt lat="47.87029" lon="7.12509">
        <ele>919</ele>
        <time>2023-05-06T13:09:17Z</time>
      </trkpt>
      <trkpt lat="47.87033" lon="7.12505">
        <ele>922</ele>
        <time>2023-05-06T13:09:35Z</time>
      </trkpt>
      <trkpt lat="47.87032" lon="7.12497">
        <ele>927</ele>
        <time>2023-05-06T13:10:11Z</time>
      </trkpt>
      <trkpt lat="47.87037" lon="7.12496">
        <ele>929</ele>
        <time>2023-05-06T13:10:21Z</time>
      </trkpt>
      <trkpt lat="47.87043" lon="7.12493">
        <ele>931</ele>
        <time>2023-05-06T13:10:38Z</time>
      </trkpt>
      <trkpt lat="47.87025" lon="7.12461">
        <ele>910</ele>
        <time>2023-05-06T13:16:33Z</time>
      </trkpt>
      <trkpt lat="47.87026" lon="7.12459">
        <ele>910</ele>
        <time>2023-05-06T13:16:34Z</time>
      </trkpt>
      <trkpt lat="47.87032" lon="7.12461">
        <ele>909</ele>
        <time>2023-05-06T13:16:44Z</time>
      </trkpt>
      <trkpt lat="47.87039" lon="7.12465">
        <ele>907</ele>
        <time>2023-05-06T13:16:55Z</time>
      </trkpt>
      <trkpt lat="47.87051" lon="7.12476">
        <ele>903</ele>
        <time>2023-05-06T13:17:11Z</time>
      </trkpt>
      <trkpt lat="47.87068" lon="7.12501">
        <ele>897</ele>
        <time>2023-05-06T13:17:35Z</time>
      </trkpt>
      <trkpt lat="47.87072" lon="7.12504">
        <ele>897</ele>
        <time>2023-05-06T13:17:39Z</time>
      </trkpt>
      <trkpt lat="47.87076" lon="7.12512">
        <ele>895</ele>
        <time>2023-05-06T13:17:46Z</time>
      </trkpt>
      <trkpt lat="47.8708" lon="7.12518">
        <ele>893</ele>
        <time>2023-05-06T13:17:51Z</time>
      </trkpt>
      <trkpt lat="47.87086" lon="7.12528">
        <ele>891</ele>
        <time>2023-05-06T13:17:59Z</time>
      </trkpt>
      <trkpt lat="47.87093" lon="7.12545">
        <ele>888</ele>
        <time>2023-05-06T13:18:13Z</time>
      </trkpt>
      <trkpt lat="47.87098" lon="7.12551">
        <ele>886</ele>
        <time>2023-05-06T13:18:21Z</time>
      </trkpt>
      <trkpt lat="47.87106" lon="7.1256">
        <ele>883</ele>
        <time>2023-05-06T13:18:31Z</time>
      </trkpt>
      <trkpt lat="47.87108" lon="7.12567">
        <ele>882</ele>
        <time>2023-05-06T13:18:35Z</time>
      </trkpt>
      <trkpt lat="47.87119" lon="7.12581">
        <ele>880</ele>
        <time>2023-05-06T13:18:47Z</time>
      </trkpt>
      <trkpt lat="47.87123" lon="7.12586">
        <ele>880</ele>
        <time>2023-05-06T13:18:51Z</time>
      </trkpt>
      <trkpt lat="47.87135" lon="7.12599">
        <ele>877</ele>
        <time>2023-05-06T13:19:04Z</time>
      </trkpt>
      <trkpt lat="47.87156" lon="7.12637">
        <ele>875</ele>
        <time>2023-05-06T13:19:31Z</time>
      </trkpt>
      <trkpt lat="47.87157" lon="7.12643">
        <ele>874</ele>
        <time>2023-05-06T13:19:35Z</time>
      </trkpt>
      <trkpt lat="47.87161" lon="7.1265">
        <ele>874</ele>
        <time>2023-05-06T13:19:39Z</time>
      </trkpt>
      <trkpt lat="47.87163" lon="7.12659">
        <ele>874</ele>
        <time>2023-05-06T13:19:45Z</time>
      </trkpt>
      <trkpt lat="47.87166" lon="7.12664">
        <ele>873</ele>
        <time>2023-05-06T13:19:50Z</time>
      </trkpt>
      <trkpt lat="47.87167" lon="7.12671">
        <ele>873</ele>
        <time>2023-05-06T13:19:55Z</time>
      </trkpt>
      <trkpt lat="47.87178" lon="7.12693">
        <ele>871</ele>
        <time>2023-05-06T13:20:12Z</time>
      </trkpt>
      <trkpt lat="47.87189" lon="7.12707">
        <ele>871</ele>
        <time>2023-05-06T13:20:23Z</time>
      </trkpt>
      <trkpt lat="47.87194" lon="7.12714">
        <ele>870</ele>
        <time>2023-05-06T13:20:31Z</time>
      </trkpt>
      <trkpt lat="47.87227" lon="7.1274">
        <ele>865</ele>
        <time>2023-05-06T13:21:02Z</time>
      </trkpt>
      <trkpt lat="47.87236" lon="7.12745">
        <ele>864</ele>
        <time>2023-05-06T13:21:11Z</time>
      </trkpt>
      <trkpt lat="47.87246" lon="7.12744">
        <ele>863</ele>
        <time>2023-05-06T13:21:20Z</time>
      </trkpt>
      <trkpt lat="47.8725" lon="7.12741">
        <ele>862</ele>
        <time>2023-05-06T13:21:24Z</time>
      </trkpt>
      <trkpt lat="47.87255" lon="7.12741">
        <ele>861</ele>
        <time>2023-05-06T13:21:28Z</time>
      </trkpt>
      <trkpt lat="47.87264" lon="7.12736">
        <ele>860</ele>
        <time>2023-05-06T13:21:36Z</time>
      </trkpt>
      <trkpt lat="47.8727" lon="7.12738">
        <ele>860</ele>
        <time>2023-05-06T13:21:40Z</time>
      </trkpt>
      <trkpt lat="47.87274" lon="7.12741">
        <ele>860</ele>
        <time>2023-05-06T13:21:44Z</time>
      </trkpt>
      <trkpt lat="47.87277" lon="7.12745">
        <ele>860</ele>
        <time>2023-05-06T13:21:47Z</time>
      </trkpt>
      <trkpt lat="47.87312" lon="7.12776">
        <ele>859</ele>
        <time>2023-05-06T13:22:18Z</time>
      </trkpt>
      <trkpt lat="47.87316" lon="7.12771">
        <ele>859</ele>
        <time>2023-05-06T13:22:23Z</time>
      </trkpt>
      <trkpt lat="47.87318" lon="7.12757">
        <ele>858</ele>
        <time>2023-05-06T13:22:32Z</time>
      </trkpt>
      <trkpt lat="47.87317" lon="7.12743">
        <ele>857</ele>
        <time>2023-05-06T13:22:40Z</time>
      </trkpt>
      <trkpt lat="47.87318" lon="7.12689">
        <ele>853</ele>
        <time>2023-05-06T13:23:13Z</time>
      </trkpt>
      <trkpt lat="47.8732" lon="7.12668">
        <ele>852</ele>
        <time>2023-05-06T13:23:26Z</time>
      </trkpt>
      <trkpt lat="47.87322" lon="7.12661">
        <ele>851</ele>
        <time>2023-05-06T13:23:31Z</time>
      </trkpt>
      <trkpt lat="47.87327" lon="7.1265">
        <ele>850</ele>
        <time>2023-05-06T13:23:40Z</time>
      </trkpt>
      <trkpt lat="47.87332" lon="7.12647">
        <ele>849</ele>
        <time>2023-05-06T13:23:45Z</time>
      </trkpt>
      <trkpt lat="47.87336" lon="7.12647">
        <ele>848</ele>
        <time>2023-05-06T13:23:49Z</time>
      </trkpt>
      <trkpt lat="47.87355" lon="7.12638">
        <ele>847</ele>
        <time>2023-05-06T13:24:05Z</time>
      </trkpt>
      <trkpt lat="47.87366" lon="7.1264">
        <ele>846</ele>
        <time>2023-05-06T13:24:15Z</time>
      </trkpt>
      <trkpt lat="47.87399" lon="7.1266">
        <ele>845</ele>
        <time>2023-05-06T13:24:43Z</time>
      </trkpt>
      <trkpt lat="47.87408" lon="7.12667">
        <ele>844</ele>
        <time>2023-05-06T13:24:52Z</time>
      </trkpt>
      <trkpt lat="47.87414" lon="7.12672">
        <ele>844</ele>
        <time>2023-05-06T13:24:58Z</time>
      </trkpt>
      <trkpt lat="47.87419" lon="7.12674">
        <ele>843</ele>
        <time>2023-05-06T13:25:04Z</time>
      </trkpt>
      <trkpt lat="47.87453" lon="7.12686">
        <ele>839</ele>
        <time>2023-05-06T13:25:35Z</time>
      </trkpt>
      <trkpt lat="47.87472" lon="7.12693">
        <ele>836</ele>
        <time>2023-05-06T13:25:51Z</time>
      </trkpt>
      <trkpt lat="47.87496" lon="7.12708">
        <ele>834</ele>
        <time>2023-05-06T13:26:10Z</time>
      </trkpt>
      <trkpt lat="47.87531" lon="7.12724">
        <ele>829</ele>
        <time>2023-05-06T13:26:43Z</time>
      </trkpt>
      <trkpt lat="47.87536" lon="7.1273">
        <ele>830</ele>
        <time>2023-05-06T13:26:51Z</time>
      </trkpt>
      <trkpt lat="47.87541" lon="7.12733">
        <ele>832</ele>
        <time>2023-05-06T13:27:02Z</time>
      </trkpt>
      <trkpt lat="47.87545" lon="7.12734">
        <ele>832</ele>
        <time>2023-05-06T13:27:07Z</time>
      </trkpt>
      <trkpt lat="47.87549" lon="7.12739">
        <ele>832</ele>
        <time>2023-05-06T13:27:11Z</time>
      </trkpt>
      <trkpt lat="47.87553" lon="7.12741">
        <ele>832</ele>
        <time>2023-05-06T13:27:14Z</time>
      </trkpt>
      <trkpt lat="47.87558" lon="7.12741">
        <ele>832</ele>
        <time>2023-05-06T13:27:18Z</time>
      </trkpt>
      <trkpt lat="47.87563" lon="7.12739">
        <ele>832</ele>
        <time>2023-05-06T13:27:23Z</time>
      </trkpt>
      <trkpt lat="47.87566" lon="7.1273">
        <ele>833</ele>
        <time>2023-05-06T13:27:41Z</time>
      </trkpt>
      <trkpt lat="47.87569" lon="7.12718">
        <ele>833</ele>
        <time>2023-05-06T13:27:49Z</time>
      </trkpt>
      <trkpt lat="47.87573" lon="7.12713">
        <ele>834</ele>
        <time>2023-05-06T13:27:54Z</time>
      </trkpt>
      <trkpt lat="47.8758" lon="7.1271">
        <ele>835</ele>
        <time>2023-05-06T13:28:03Z</time>
      </trkpt>
      <trkpt lat="47.87585" lon="7.1271">
        <ele>836</ele>
        <time>2023-05-06T13:28:08Z</time>
      </trkpt>
      <trkpt lat="47.87592" lon="7.12711">
        <ele>837</ele>
        <time>2023-05-06T13:28:17Z</time>
      </trkpt>
      <trkpt lat="47.87602" lon="7.12712">
        <ele>838</ele>
        <time>2023-05-06T13:28:33Z</time>
      </trkpt>
      <trkpt lat="47.87617" lon="7.12713">
        <ele>841</ele>
        <time>2023-05-06T13:28:51Z</time>
      </trkpt>
      <trkpt lat="47.87619" lon="7.12719">
        <ele>842</ele>
        <time>2023-05-06T13:28:55Z</time>
      </trkpt>
      <trkpt lat="47.87621" lon="7.12726">
        <ele>842</ele>
        <time>2023-05-06T13:28:59Z</time>
      </trkpt>
      <trkpt lat="47.87623" lon="7.12732">
        <ele>842</ele>
        <time>2023-05-06T13:29:04Z</time>
      </trkpt>
      <trkpt lat="47.87626" lon="7.12737">
        <ele>842</ele>
        <time>2023-05-06T13:29:08Z</time>
      </trkpt>
      <trkpt lat="47.8763" lon="7.12738">
        <ele>842</ele>
        <time>2023-05-06T13:29:13Z</time>
      </trkpt>
      <trkpt lat="47.87635" lon="7.12737">
        <ele>843</ele>
        <time>2023-05-06T13:29:18Z</time>
      </trkpt>
      <trkpt lat="47.87651" lon="7.12749">
        <ele>845</ele>
        <time>2023-05-06T13:29:36Z</time>
      </trkpt>
      <trkpt lat="47.87662" lon="7.12754">
        <ele>847</ele>
        <time>2023-05-06T13:29:47Z</time>
      </trkpt>
      <trkpt lat="47.87666" lon="7.12758">
        <ele>847</ele>
        <time>2023-05-06T13:29:51Z</time>
      </trkpt>
      <trkpt lat="47.87671" lon="7.12758">
        <ele>848</ele>
        <time>2023-05-06T13:29:55Z</time>
      </trkpt>
      <trkpt lat="47.87677" lon="7.12758">
        <ele>850</ele>
        <time>2023-05-06T13:30:04Z</time>
      </trkpt>
      <trkpt lat="47.87701" lon="7.12751">
        <ele>855</ele>
        <time>2023-05-06T13:30:35Z</time>
      </trkpt>
      <trkpt lat="47.87711" lon="7.12743">
        <ele>855</ele>
        <time>2023-05-06T13:30:46Z</time>
      </trkpt>
      <trkpt lat="47.87715" lon="7.12737">
        <ele>856</ele>
        <time>2023-05-06T13:30:52Z</time>
      </trkpt>
      <trkpt lat="47.87717" lon="7.12732">
        <ele>856</ele>
        <time>2023-05-06T13:30:56Z</time>
      </trkpt>
      <trkpt lat="47.87734" lon="7.12723">
        <ele>854</ele>
        <time>2023-05-06T13:31:11Z</time>
      </trkpt>
      <trkpt lat="47.87743" lon="7.12719">
        <ele>854</ele>
        <time>2023-05-06T13:31:19Z</time>
      </trkpt>
      <trkpt lat="47.87748" lon="7.12718">
        <ele>855</ele>
        <time>2023-05-06T13:31:23Z</time>
      </trkpt>
      <trkpt lat="47.87761" lon="7.12729">
        <ele>857</ele>
        <time>2023-05-06T13:31:38Z</time>
      </trkpt>
      <trkpt lat="47.87765" lon="7.12732">
        <ele>857</ele>
        <time>2023-05-06T13:31:41Z</time>
      </trkpt>
      <trkpt lat="47.87776" lon="7.12735">
        <ele>858</ele>
        <time>2023-05-06T13:31:49Z</time>
      </trkpt>
      <trkpt lat="47.87788" lon="7.12735">
        <ele>860</ele>
        <time>2023-05-06T13:32:03Z</time>
      </trkpt>
      <trkpt lat="47.87808" lon="7.12745">
        <ele>864</ele>
        <time>2023-05-06T13:32:26Z</time>
      </trkpt>
      <trkpt lat="47.87812" lon="7.12745">
        <ele>865</ele>
        <time>2023-05-06T13:32:31Z</time>
      </trkpt>
      <trkpt lat="47.87827" lon="7.12754">
        <ele>867</ele>
        <time>2023-05-06T13:32:48Z</time>
      </trkpt>
      <trkpt lat="47.87833" lon="7.12757">
        <ele>867</ele>
        <time>2023-05-06T13:32:52Z</time>
      </trkpt>
      <trkpt lat="47.87835" lon="7.12762">
        <ele>867</ele>
        <time>2023-05-06T13:32:56Z</time>
      </trkpt>
      <trkpt lat="47.87839" lon="7.12765">
        <ele>867</ele>
        <time>2023-05-06T13:33:01Z</time>
      </trkpt>
      <trkpt lat="47.87844" lon="7.12767">
        <ele>867</ele>
        <time>2023-05-06T13:33:04Z</time>
      </trkpt>
      <trkpt lat="47.87855" lon="7.12766">
        <ele>871</ele>
        <time>2023-05-06T13:33:25Z</time>
      </trkpt>
      <trkpt lat="47.8786" lon="7.12768">
        <ele>873</ele>
        <time>2023-05-06T13:33:33Z</time>
      </trkpt>
      <trkpt lat="47.87864" lon="7.12772">
        <ele>874</ele>
        <time>2023-05-06T13:33:38Z</time>
      </trkpt>
      <trkpt lat="47.87872" lon="7.12776">
        <ele>875</ele>
        <time>2023-05-06T13:33:47Z</time>
      </trkpt>
      <trkpt lat="47.87876" lon="7.1278">
        <ele>876</ele>
        <time>2023-05-06T13:33:50Z</time>
      </trkpt>
      <trkpt lat="47.87881" lon="7.12784">
        <ele>876</ele>
        <time>2023-05-06T13:33:54Z</time>
      </trkpt>
      <trkpt lat="47.87888" lon="7.12786">
        <ele>876</ele>
        <time>2023-05-06T13:34:01Z</time>
      </trkpt>
      <trkpt lat="47.87891" lon="7.12789">
        <ele>877</ele>
        <time>2023-05-06T13:34:05Z</time>
      </trkpt>
      <trkpt lat="47.87897" lon="7.12796">
        <ele>878</ele>
        <time>2023-05-06T13:34:12Z</time>
      </trkpt>
      <trkpt lat="47.87903" lon="7.128">
        <ele>879</ele>
        <time>2023-05-06T13:34:22Z</time>
      </trkpt>
      <trkpt lat="47.87913" lon="7.12803">
        <ele>881</ele>
        <time>2023-05-06T13:34:33Z</time>
      </trkpt>
      <trkpt lat="47.87926" lon="7.12811">
        <ele>885</ele>
        <time>2023-05-06T13:34:52Z</time>
      </trkpt>
      <trkpt lat="47.87932" lon="7.12814">
        <ele>886</ele>
        <time>2023-05-06T13:35:00Z</time>
      </trkpt>
      <trkpt lat="47.87939" lon="7.12821">
        <ele>888</ele>
        <time>2023-05-06T13:35:10Z</time>
      </trkpt>
      <trkpt lat="47.87944" lon="7.12827">
        <ele>889</ele>
        <time>2023-05-06T13:35:19Z</time>
      </trkpt>
      <trkpt lat="47.8795" lon="7.12831">
        <ele>891</ele>
        <time>2023-05-06T13:35:29Z</time>
      </trkpt>
      <trkpt lat="47.87956" lon="7.1284">
        <ele>893</ele>
        <time>2023-05-06T13:35:39Z</time>
      </trkpt>
      <trkpt lat="47.87961" lon="7.12843">
        <ele>893</ele>
        <time>2023-05-06T13:35:45Z</time>
      </trkpt>
      <trkpt lat="47.87964" lon="7.12848">
        <ele>894</ele>
        <time>2023-05-06T13:35:50Z</time>
      </trkpt>
      <trkpt lat="47.87967" lon="7.12853">
        <ele>894</ele>
        <time>2023-05-06T13:35:54Z</time>
      </trkpt>
      <trkpt lat="47.87972" lon="7.12857">
        <ele>895</ele>
        <time>2023-05-06T13:36:01Z</time>
      </trkpt>
      <trkpt lat="47.87981" lon="7.12862">
        <ele>896</ele>
        <time>2023-05-06T13:36:11Z</time>
      </trkpt>
      <trkpt lat="47.87986" lon="7.12867">
        <ele>896</ele>
        <time>2023-05-06T13:36:16Z</time>
      </trkpt>
      <trkpt lat="47.88005" lon="7.1287">
        <ele>901</ele>
        <time>2023-05-06T13:36:45Z</time>
      </trkpt>
      <trkpt lat="47.88014" lon="7.12877">
        <ele>901</ele>
        <time>2023-05-06T13:36:56Z</time>
      </trkpt>
      <trkpt lat="47.88025" lon="7.12882">
        <ele>902</ele>
        <time>2023-05-06T13:37:05Z</time>
      </trkpt>
      <trkpt lat="47.88028" lon="7.12887">
        <ele>903</ele>
        <time>2023-05-06T13:37:13Z</time>
      </trkpt>
      <trkpt lat="47.88042" lon="7.12897">
        <ele>905</ele>
        <time>2023-05-06T13:37:31Z</time>
      </trkpt>
      <trkpt lat="47.88046" lon="7.12904">
        <ele>907</ele>
        <time>2023-05-06T13:37:45Z</time>
      </trkpt>
      <trkpt lat="47.88051" lon="7.12905">
        <ele>908</ele>
        <time>2023-05-06T13:37:51Z</time>
      </trkpt>
      <trkpt lat="47.88055" lon="7.12905">
        <ele>908</ele>
        <time>2023-05-06T13:37:55Z</time>
      </trkpt>
      <trkpt lat="47.8807" lon="7.12904">
        <ele>906</ele>
        <time>2023-05-06T13:38:10Z</time>
      </trkpt>
      <trkpt lat="47.8808" lon="7.12901">
        <ele>905</ele>
        <time>2023-05-06T13:38:19Z</time>
      </trkpt>
      <trkpt lat="47.88085" lon="7.12896">
        <ele>905</ele>
        <time>2023-05-06T13:38:26Z</time>
      </trkpt>
      <trkpt lat="47.88099" lon="7.12876">
        <ele>907</ele>
        <time>2023-05-06T13:38:46Z</time>
      </trkpt>
      <trkpt lat="47.88113" lon="7.1286">
        <ele>911</ele>
        <time>2023-05-06T13:39:12Z</time>
      </trkpt>
      <trkpt lat="47.88117" lon="7.12854">
        <ele>912</ele>
        <time>2023-05-06T13:39:19Z</time>
      </trkpt>
      <trkpt lat="47.88121" lon="7.12851">
        <ele>913</ele>
        <time>2023-05-06T13:39:25Z</time>
      </trkpt>
      <trkpt lat="47.88126" lon="7.1285">
        <ele>913</ele>
        <time>2023-05-06T13:39:31Z</time>
      </trkpt>
      <trkpt lat="47.88145" lon="7.12839">
        <ele>914</ele>
        <time>2023-05-06T13:39:52Z</time>
      </trkpt>
      <trkpt lat="47.88149" lon="7.12838">
        <ele>914</ele>
        <time>2023-05-06T13:39:57Z</time>
      </trkpt>
      <trkpt lat="47.88155" lon="7.12839">
        <ele>915</ele>
        <time>2023-05-06T13:40:03Z</time>
      </trkpt>
      <trkpt lat="47.88182" lon="7.12857">
        <ele>918</ele>
        <time>2023-05-06T13:40:34Z</time>
      </trkpt>
      <trkpt lat="47.88186" lon="7.1286">
        <ele>919</ele>
        <time>2023-05-06T13:40:38Z</time>
      </trkpt>
      <trkpt lat="47.88191" lon="7.12862">
        <ele>919</ele>
        <time>2023-05-06T13:40:42Z</time>
      </trkpt>
      <trkpt lat="47.88194" lon="7.12866">
        <ele>919</ele>
        <time>2023-05-06T13:40:46Z</time>
      </trkpt>
      <trkpt lat="47.88209" lon="7.12872">
        <ele>921</ele>
        <time>2023-05-06T13:41:00Z</time>
      </trkpt>
      <trkpt lat="47.88221" lon="7.12882">
        <ele>923</ele>
        <time>2023-05-06T13:41:14Z</time>
      </trkpt>
      <trkpt lat="47.88226" lon="7.12883">
        <ele>923</ele>
        <time>2023-05-06T13:41:19Z</time>
      </trkpt>
      <trkpt lat="47.88258" lon="7.12897">
        <ele>927</ele>
        <time>2023-05-06T13:41:50Z</time>
      </trkpt>
      <trkpt lat="47.88283" lon="7.12906">
        <ele>931</ele>
        <time>2023-05-06T13:42:13Z</time>
      </trkpt>
      <trkpt lat="47.88288" lon="7.12903">
        <ele>931</ele>
        <time>2023-05-06T13:42:17Z</time>
      </trkpt>
      <trkpt lat="47.88292" lon="7.12905">
        <ele>931</ele>
        <time>2023-05-06T13:42:19Z</time>
      </trkpt>
      <trkpt lat="47.88298" lon="7.12906">
        <ele>932</ele>
        <time>2023-05-06T13:42:24Z</time>
      </trkpt>
      <trkpt lat="47.88305" lon="7.12912">
        <ele>934</ele>
        <time>2023-05-06T13:42:35Z</time>
      </trkpt>
      <trkpt lat="47.88322" lon="7.12922">
        <ele>936</ele>
        <time>2023-05-06T13:42:52Z</time>
      </trkpt>
      <trkpt lat="47.88326" lon="7.12922">
        <ele>937</ele>
        <time>2023-05-06T13:42:56Z</time>
      </trkpt>
      <trkpt lat="47.88333" lon="7.12925">
        <ele>937</ele>
        <time>2023-05-06T13:43:03Z</time>
      </trkpt>
      <trkpt lat="47.88345" lon="7.12938">
        <ele>939</ele>
        <time>2023-05-06T13:43:17Z</time>
      </trkpt>
      <trkpt lat="47.88356" lon="7.12944">
        <ele>940</ele>
        <time>2023-05-06T13:43:29Z</time>
      </trkpt>
      <trkpt lat="47.88361" lon="7.12947">
        <ele>941</ele>
        <time>2023-05-06T13:43:33Z</time>
      </trkpt>
      <trkpt lat="47.8837" lon="7.1295">
        <ele>942</ele>
        <time>2023-05-06T13:43:44Z</time>
      </trkpt>
      <trkpt lat="47.88374" lon="7.12951">
        <ele>943</ele>
        <time>2023-05-06T13:43:49Z</time>
      </trkpt>
      <trkpt lat="47.88379" lon="7.12953">
        <ele>943</ele>
        <time>2023-05-06T13:43:54Z</time>
      </trkpt>
      <trkpt lat="47.88399" lon="7.12956">
        <ele>946</ele>
        <time>2023-05-06T13:44:14Z</time>
      </trkpt>
      <trkpt lat="47.88427" lon="7.12954">
        <ele>951</ele>
        <time>2023-05-06T13:44:47Z</time>
      </trkpt>
      <trkpt lat="47.88436" lon="7.12953">
        <ele>952</ele>
        <time>2023-05-06T13:44:56Z</time>
      </trkpt>
      <trkpt lat="47.88441" lon="7.12949">
        <ele>953</ele>
        <time>2023-05-06T13:45:03Z</time>
      </trkpt>
      <trkpt lat="47.88453" lon="7.12933">
        <ele>954</ele>
        <time>2023-05-06T13:45:18Z</time>
      </trkpt>
      <trkpt lat="47.88459" lon="7.12922">
        <ele>955</ele>
        <time>2023-05-06T13:45:27Z</time>
      </trkpt>
      <trkpt lat="47.88463" lon="7.12917">
        <ele>956</ele>
        <time>2023-05-06T13:45:35Z</time>
      </trkpt>
      <trkpt lat="47.88495" lon="7.12882">
        <ele>961</ele>
        <time>2023-05-06T13:46:14Z</time>
      </trkpt>
      <trkpt lat="47.88514" lon="7.12873">
        <ele>964</ele>
        <time>2023-05-06T13:46:36Z</time>
      </trkpt>
      <trkpt lat="47.88522" lon="7.12874">
        <ele>965</ele>
        <time>2023-05-06T13:46:44Z</time>
      </trkpt>
      <trkpt lat="47.88526" lon="7.12873">
        <ele>965</ele>
        <time>2023-05-06T13:46:48Z</time>
      </trkpt>
      <trkpt lat="47.88531" lon="7.12873">
        <ele>966</ele>
        <time>2023-05-06T13:46:52Z</time>
      </trkpt>
      <trkpt lat="47.88541" lon="7.12867">
        <ele>966</ele>
        <time>2023-05-06T13:47:02Z</time>
      </trkpt>
      <trkpt lat="47.8855" lon="7.12862">
        <ele>966</ele>
        <time>2023-05-06T13:47:10Z</time>
      </trkpt>
      <trkpt lat="47.88555" lon="7.12861">
        <ele>966</ele>
        <time>2023-05-06T13:47:14Z</time>
      </trkpt>
      <trkpt lat="47.88559" lon="7.12857">
        <ele>966</ele>
        <time>2023-05-06T13:47:18Z</time>
      </trkpt>
      <trkpt lat="47.88567" lon="7.12856">
        <ele>966</ele>
        <time>2023-05-06T13:47:26Z</time>
      </trkpt>
      <trkpt lat="47.88571" lon="7.12858">
        <ele>966</ele>
        <time>2023-05-06T13:47:29Z</time>
      </trkpt>
      <trkpt lat="47.8858" lon="7.12854">
        <ele>966</ele>
        <time>2023-05-06T13:47:38Z</time>
      </trkpt>
      <trkpt lat="47.88613" lon="7.12848">
        <ele>964</ele>
        <time>2023-05-06T13:48:09Z</time>
      </trkpt>
      <trkpt lat="47.88627" lon="7.12846">
        <ele>964</ele>
        <time>2023-05-06T13:48:22Z</time>
      </trkpt>
      <trkpt lat="47.88632" lon="7.12843">
        <ele>964</ele>
        <time>2023-05-06T13:48:26Z</time>
      </trkpt>
      <trkpt lat="47.88651" lon="7.12821">
        <ele>963</ele>
        <time>2023-05-06T13:48:46Z</time>
      </trkpt>
      <trkpt lat="47.88663" lon="7.12811">
        <ele>963</ele>
        <time>2023-05-06T13:48:58Z</time>
      </trkpt>
      <trkpt lat="47.88668" lon="7.1281">
        <ele>963</ele>
        <time>2023-05-06T13:49:02Z</time>
      </trkpt>
      <trkpt lat="47.88672" lon="7.12814">
        <ele>963</ele>
        <time>2023-05-06T13:49:18Z</time>
      </trkpt>
      <trkpt lat="47.88677" lon="7.12811">
        <ele>963</ele>
        <time>2023-05-06T13:49:30Z</time>
      </trkpt>
      <trkpt lat="47.88681" lon="7.12806">
        <ele>962</ele>
        <time>2023-05-06T13:49:42Z</time>
      </trkpt>
      <trkpt lat="47.88678" lon="7.12796">
        <ele>962</ele>
        <time>2023-05-06T13:49:52Z</time>
      </trkpt>
      <trkpt lat="47.88676" lon="7.1279">
        <ele>962</ele>
        <time>2023-05-06T13:49:56Z</time>
      </trkpt>
      <trkpt lat="47.88675" lon="7.12749">
        <ele>961</ele>
        <time>2023-05-06T13:50:21Z</time>
      </trkpt>
      <trkpt lat="47.88674" lon="7.12742">
        <ele>962</ele>
        <time>2023-05-06T13:50:25Z</time>
      </trkpt>
      <trkpt lat="47.88673" lon="7.12727">
        <ele>962</ele>
        <time>2023-05-06T13:50:34Z</time>
      </trkpt>
      <trkpt lat="47.88671" lon="7.12714">
        <ele>963</ele>
        <time>2023-05-06T13:50:42Z</time>
      </trkpt>
      <trkpt lat="47.88674" lon="7.12717">
        <ele>962</ele>
        <time>2023-05-06T13:51:57Z</time>
      </trkpt>
      <trkpt lat="47.88676" lon="7.12738">
        <ele>961</ele>
        <time>2023-05-06T14:35:00Z</time>
      </trkpt>
      <trkpt lat="47.88675" lon="7.12739">
        <ele>961</ele>
        <time>2023-05-06T14:35:01Z</time>
      </trkpt>
      <trkpt lat="47.88674" lon="7.12748">
        <ele>960</ele>
        <time>2023-05-06T14:35:07Z</time>
      </trkpt>
      <trkpt lat="47.88675" lon="7.12757">
        <ele>959</ele>
        <time>2023-05-06T14:35:14Z</time>
      </trkpt>
      <trkpt lat="47.88676" lon="7.12763">
        <ele>958</ele>
        <time>2023-05-06T14:35:19Z</time>
      </trkpt>
      <trkpt lat="47.88677" lon="7.128">
        <ele>957</ele>
        <time>2023-05-06T14:35:46Z</time>
      </trkpt>
      <trkpt lat="47.88681" lon="7.12802">
        <ele>957</ele>
        <time>2023-05-06T14:35:50Z</time>
      </trkpt>
      <trkpt lat="47.88686" lon="7.12802">
        <ele>957</ele>
        <time>2023-05-06T14:35:54Z</time>
      </trkpt>
      <trkpt lat="47.88689" lon="7.12795">
        <ele>957</ele>
        <time>2023-05-06T14:36:01Z</time>
      </trkpt>
      <trkpt lat="47.88691" lon="7.12788">
        <ele>957</ele>
        <time>2023-05-06T14:36:05Z</time>
      </trkpt>
      <trkpt lat="47.88697" lon="7.12769">
        <ele>956</ele>
        <time>2023-05-06T14:36:18Z</time>
      </trkpt>
      <trkpt lat="47.88699" lon="7.12755">
        <ele>957</ele>
        <time>2023-05-06T14:36:27Z</time>
      </trkpt>
      <trkpt lat="47.88706" lon="7.12742">
        <ele>958</ele>
        <time>2023-05-06T14:36:39Z</time>
      </trkpt>
      <trkpt lat="47.88709" lon="7.12736">
        <ele>958</ele>
        <time>2023-05-06T14:36:44Z</time>
      </trkpt>
      <trkpt lat="47.88709" lon="7.12728">
        <ele>959</ele>
        <time>2023-05-06T14:36:52Z</time>
      </trkpt>
      <trkpt lat="47.88712" lon="7.12722">
        <ele>959</ele>
        <time>2023-05-06T14:36:56Z</time>
      </trkpt>
      <trkpt lat="47.88712" lon="7.12712">
        <ele>959</ele>
        <time>2023-05-06T14:37:03Z</time>
      </trkpt>
      <trkpt lat="47.88711" lon="7.12703">
        <ele>960</ele>
        <time>2023-05-06T14:37:08Z</time>
      </trkpt>
      <trkpt lat="47.88714" lon="7.12696">
        <ele>960</ele>
        <time>2023-05-06T14:37:11Z</time>
      </trkpt>
      <trkpt lat="47.88721" lon="7.12688">
        <ele>960</ele>
        <time>2023-05-06T14:37:19Z</time>
      </trkpt>
      <trkpt lat="47.88723" lon="7.12681">
        <ele>961</ele>
        <time>2023-05-06T14:37:25Z</time>
      </trkpt>
      <trkpt lat="47.88724" lon="7.12675">
        <ele>961</ele>
        <time>2023-05-06T14:37:30Z</time>
      </trkpt>
      <trkpt lat="47.88735" lon="7.12664">
        <ele>963</ele>
        <time>2023-05-06T14:37:41Z</time>
      </trkpt>
      <trkpt lat="47.88738" lon="7.12653">
        <ele>964</ele>
        <time>2023-05-06T14:37:49Z</time>
      </trkpt>
      <trkpt lat="47.88742" lon="7.12647">
        <ele>964</ele>
        <time>2023-05-06T14:37:53Z</time>
      </trkpt>
      <trkpt lat="47.88747" lon="7.12641">
        <ele>965</ele>
        <time>2023-05-06T14:38:00Z</time>
      </trkpt>
      <trkpt lat="47.8875" lon="7.12632">
        <ele>967</ele>
        <time>2023-05-06T14:38:13Z</time>
      </trkpt>
      <trkpt lat="47.88755" lon="7.12627">
        <ele>967</ele>
        <time>2023-05-06T14:38:15Z</time>
      </trkpt>
      <trkpt lat="47.88766" lon="7.12615">
        <ele>969</ele>
        <time>2023-05-06T14:38:31Z</time>
      </trkpt>
      <trkpt lat="47.88774" lon="7.12612">
        <ele>971</ele>
        <time>2023-05-06T14:38:41Z</time>
      </trkpt>
      <trkpt lat="47.88782" lon="7.12609">
        <ele>972</ele>
        <time>2023-05-06T14:38:51Z</time>
      </trkpt>
      <trkpt lat="47.88801" lon="7.12606">
        <ele>974</ele>
        <time>2023-05-06T14:39:07Z</time>
      </trkpt>
      <trkpt lat="47.88805" lon="7.12602">
        <ele>975</ele>
        <time>2023-05-06T14:39:15Z</time>
      </trkpt>
      <trkpt lat="47.88807" lon="7.12593">
        <ele>975</ele>
        <time>2023-05-06T14:39:19Z</time>
      </trkpt>
      <trkpt lat="47.88812" lon="7.12589">
        <ele>975</ele>
        <time>2023-05-06T14:39:22Z</time>
      </trkpt>
      <trkpt lat="47.88817" lon="7.12593">
        <ele>976</ele>
        <time>2023-05-06T14:39:27Z</time>
      </trkpt>
      <trkpt lat="47.88816" lon="7.12581">
        <ele>976</ele>
        <time>2023-05-06T14:39:39Z</time>
      </trkpt>
      <trkpt lat="47.88822" lon="7.12579">
        <ele>977</ele>
        <time>2023-05-06T14:39:43Z</time>
      </trkpt>
      <trkpt lat="47.88822" lon="7.12565">
        <ele>978</ele>
        <time>2023-05-06T14:39:50Z</time>
      </trkpt>
      <trkpt lat="47.88826" lon="7.12561">
        <ele>978</ele>
        <time>2023-05-06T14:39:55Z</time>
      </trkpt>
      <trkpt lat="47.88825" lon="7.12568">
        <ele>981</ele>
        <time>2023-05-06T14:40:15Z</time>
      </trkpt>
      <trkpt lat="47.88819" lon="7.12577">
        <ele>981</ele>
        <time>2023-05-06T14:40:20Z</time>
      </trkpt>
      <trkpt lat="47.88817" lon="7.12585">
        <ele>981</ele>
        <time>2023-05-06T14:40:22Z</time>
      </trkpt>
      <trkpt lat="47.88808" lon="7.12585">
        <ele>983</ele>
        <time>2023-05-06T14:40:35Z</time>
      </trkpt>
      <trkpt lat="47.88804" lon="7.12582">
        <ele>984</ele>
        <time>2023-05-06T14:40:39Z</time>
      </trkpt>
      <trkpt lat="47.88797" lon="7.12577">
        <ele>985</ele>
        <time>2023-05-06T14:40:51Z</time>
      </trkpt>
      <trkpt lat="47.8879" lon="7.12575">
        <ele>986</ele>
        <time>2023-05-06T14:40:58Z</time>
      </trkpt>
      <trkpt lat="47.88784" lon="7.12565">
        <ele>987</ele>
        <time>2023-05-06T14:41:07Z</time>
      </trkpt>
      <trkpt lat="47.88782" lon="7.12559">
        <ele>988</ele>
        <time>2023-05-06T14:41:12Z</time>
      </trkpt>
      <trkpt lat="47.88777" lon="7.12558">
        <ele>989</ele>
        <time>2023-05-06T14:41:17Z</time>
      </trkpt>
      <trkpt lat="47.88772" lon="7.12559">
        <ele>989</ele>
        <time>2023-05-06T14:41:22Z</time>
      </trkpt>
      <trkpt lat="47.88768" lon="7.12553">
        <ele>990</ele>
        <time>2023-05-06T14:41:29Z</time>
      </trkpt>
      <trkpt lat="47.88764" lon="7.12534">
        <ele>993</ele>
        <time>2023-05-06T14:41:47Z</time>
      </trkpt>
      <trkpt lat="47.88761" lon="7.12524">
        <ele>994</ele>
        <time>2023-05-06T14:41:52Z</time>
      </trkpt>
      <trkpt lat="47.88755" lon="7.1251">
        <ele>996</ele>
        <time>2023-05-06T14:42:09Z</time>
      </trkpt>
      <trkpt lat="47.88751" lon="7.12493">
        <ele>999</ele>
        <time>2023-05-06T14:42:25Z</time>
      </trkpt>
      <trkpt lat="47.88745" lon="7.12491">
        <ele>999</ele>
        <time>2023-05-06T14:42:28Z</time>
      </trkpt>
      <trkpt lat="47.88742" lon="7.12482">
        <ele>1001</ele>
        <time>2023-05-06T14:42:39Z</time>
      </trkpt>
      <trkpt lat="47.88743" lon="7.12475">
        <ele>1002</ele>
        <time>2023-05-06T14:42:43Z</time>
      </trkpt>
      <trkpt lat="47.88749" lon="7.12473">
        <ele>1002</ele>
        <time>2023-05-06T14:42:50Z</time>
      </trkpt>
      <trkpt lat="47.88755" lon="7.12472">
        <ele>1003</ele>
        <time>2023-05-06T14:42:52Z</time>
      </trkpt>
      <trkpt lat="47.88764" lon="7.12468">
        <ele>1004</ele>
        <time>2023-05-06T14:43:03Z</time>
      </trkpt>
      <trkpt lat="47.88772" lon="7.12456">
        <ele>1006</ele>
        <time>2023-05-06T14:43:18Z</time>
      </trkpt>
      <trkpt lat="47.88777" lon="7.12454">
        <ele>1006</ele>
        <time>2023-05-06T14:43:24Z</time>
      </trkpt>
      <trkpt lat="47.88781" lon="7.12446">
        <ele>1007</ele>
        <time>2023-05-06T14:43:31Z</time>
      </trkpt>
      <trkpt lat="47.88787" lon="7.12438">
        <ele>1008</ele>
        <time>2023-05-06T14:43:35Z</time>
      </trkpt>
      <trkpt lat="47.8879" lon="7.1243">
        <ele>1009</ele>
        <time>2023-05-06T14:43:45Z</time>
      </trkpt>
      <trkpt lat="47.88788" lon="7.12421">
        <ele>1010</ele>
        <time>2023-05-06T14:43:53Z</time>
      </trkpt>
      <trkpt lat="47.88795" lon="7.12414">
        <ele>1011</ele>
        <time>2023-05-06T14:44:04Z</time>
      </trkpt>
      <trkpt lat="47.88803" lon="7.1239">
        <ele>1013</ele>
        <time>2023-05-06T14:44:20Z</time>
      </trkpt>
      <trkpt lat="47.888" lon="7.1238">
        <ele>1015</ele>
        <time>2023-05-06T14:44:30Z</time>
      </trkpt>
      <trkpt lat="47.88801" lon="7.12372">
        <ele>1016</ele>
        <time>2023-05-06T14:44:37Z</time>
      </trkpt>
      <trkpt lat="47.88802" lon="7.12364">
        <ele>1017</ele>
        <time>2023-05-06T14:44:45Z</time>
      </trkpt>
      <trkpt lat="47.88806" lon="7.12353">
        <ele>1018</ele>
        <time>2023-05-06T14:44:57Z</time>
      </trkpt>
      <trkpt lat="47.88807" lon="7.12339">
        <ele>1019</ele>
        <time>2023-05-06T14:45:07Z</time>
      </trkpt>
      <trkpt lat="47.88809" lon="7.1233">
        <ele>1020</ele>
        <time>2023-05-06T14:45:15Z</time>
      </trkpt>
      <trkpt lat="47.88813" lon="7.12289">
        <ele>1023</ele>
        <time>2023-05-06T14:45:44Z</time>
      </trkpt>
      <trkpt lat="47.88816" lon="7.1228">
        <ele>1024</ele>
        <time>2023-05-06T14:45:54Z</time>
      </trkpt>
      <trkpt lat="47.88823" lon="7.12265">
        <ele>1027</ele>
        <time>2023-05-06T14:46:09Z</time>
      </trkpt>
      <trkpt lat="47.88823" lon="7.12258">
        <ele>1027</ele>
        <time>2023-05-06T14:46:14Z</time>
      </trkpt>
      <trkpt lat="47.88831" lon="7.12247">
        <ele>1029</ele>
        <time>2023-05-06T14:46:28Z</time>
      </trkpt>
      <trkpt lat="47.88834" lon="7.12237">
        <ele>1030</ele>
        <time>2023-05-06T14:46:35Z</time>
      </trkpt>
      <trkpt lat="47.88835" lon="7.12225">
        <ele>1031</ele>
        <time>2023-05-06T14:46:45Z</time>
      </trkpt>
      <trkpt lat="47.88837" lon="7.12218">
        <ele>1031</ele>
        <time>2023-05-06T14:46:50Z</time>
      </trkpt>
      <trkpt lat="47.88841" lon="7.12211">
        <ele>1032</ele>
        <time>2023-05-06T14:46:54Z</time>
      </trkpt>
      <trkpt lat="47.88845" lon="7.12202">
        <ele>1033</ele>
        <time>2023-05-06T14:47:04Z</time>
      </trkpt>
      <trkpt lat="47.88846" lon="7.12194">
        <ele>1033</ele>
        <time>2023-05-06T14:47:12Z</time>
      </trkpt>
      <trkpt lat="47.88849" lon="7.12189">
        <ele>1034</ele>
        <time>2023-05-06T14:47:17Z</time>
      </trkpt>
      <trkpt lat="47.88863" lon="7.1218">
        <ele>1036</ele>
        <time>2023-05-06T14:47:33Z</time>
      </trkpt>
      <trkpt lat="47.88863" lon="7.12171">
        <ele>1036</ele>
        <time>2023-05-06T14:47:40Z</time>
      </trkpt>
      <trkpt lat="47.88874" lon="7.12148">
        <ele>1039</ele>
        <time>2023-05-06T14:48:01Z</time>
      </trkpt>
      <trkpt lat="47.8888" lon="7.12141">
        <ele>1040</ele>
        <time>2023-05-06T14:48:13Z</time>
      </trkpt>
      <trkpt lat="47.88889" lon="7.12135">
        <ele>1041</ele>
        <time>2023-05-06T14:48:24Z</time>
      </trkpt>
      <trkpt lat="47.88894" lon="7.12127">
        <ele>1042</ele>
        <time>2023-05-06T14:48:27Z</time>
      </trkpt>
      <trkpt lat="47.88899" lon="7.12114">
        <ele>1043</ele>
        <time>2023-05-06T14:48:41Z</time>
      </trkpt>
      <trkpt lat="47.88903" lon="7.12111">
        <ele>1043</ele>
        <time>2023-05-06T14:48:46Z</time>
      </trkpt>
      <trkpt lat="47.88918" lon="7.12091">
        <ele>1045</ele>
        <time>2023-05-06T14:49:08Z</time>
      </trkpt>
      <trkpt lat="47.88938" lon="7.12078">
        <ele>1045</ele>
        <time>2023-05-06T14:49:27Z</time>
      </trkpt>
      <trkpt lat="47.88953" lon="7.12071">
        <ele>1047</ele>
        <time>2023-05-06T14:49:43Z</time>
      </trkpt>
      <trkpt lat="47.88963" lon="7.12054">
        <ele>1052</ele>
        <time>2023-05-06T14:50:05Z</time>
      </trkpt>
      <trkpt lat="47.88969" lon="7.12048">
        <ele>1053</ele>
        <time>2023-05-06T14:50:13Z</time>
      </trkpt>
      <trkpt lat="47.88977" lon="7.1204">
        <ele>1054</ele>
        <time>2023-05-06T14:50:17Z</time>
      </trkpt>
      <trkpt lat="47.88983" lon="7.1203">
        <ele>1055</ele>
        <time>2023-05-06T14:50:27Z</time>
      </trkpt>
      <trkpt lat="47.88991" lon="7.12013">
        <ele>1057</ele>
        <time>2023-05-06T14:50:41Z</time>
      </trkpt>
      <trkpt lat="47.88995" lon="7.12009">
        <ele>1058</ele>
        <time>2023-05-06T14:50:50Z</time>
      </trkpt>
      <trkpt lat="47.89" lon="7.12007">
        <ele>1059</ele>
        <time>2023-05-06T14:50:57Z</time>
      </trkpt>
      <trkpt lat="47.89" lon="7.11999">
        <ele>1061</ele>
        <time>2023-05-06T14:51:10Z</time>
      </trkpt>
      <trkpt lat="47.89002" lon="7.11991">
        <ele>1063</ele>
        <time>2023-05-06T14:51:22Z</time>
      </trkpt>
      <trkpt lat="47.89019" lon="7.11971">
        <ele>1066</ele>
        <time>2023-05-06T14:51:48Z</time>
      </trkpt>
      <trkpt lat="47.89024" lon="7.11972">
        <ele>1067</ele>
        <time>2023-05-06T14:51:52Z</time>
      </trkpt>
      <trkpt lat="47.89033" lon="7.1196">
        <ele>1068</ele>
        <time>2023-05-06T14:52:05Z</time>
      </trkpt>
      <trkpt lat="47.89043" lon="7.11957">
        <ele>1069</ele>
        <time>2023-05-06T14:52:14Z</time>
      </trkpt>
      <trkpt lat="47.89048" lon="7.11949">
        <ele>1070</ele>
        <time>2023-05-06T14:52:22Z</time>
      </trkpt>
      <trkpt lat="47.89058" lon="7.11947">
        <ele>1071</ele>
        <time>2023-05-06T14:52:31Z</time>
      </trkpt>
      <trkpt lat="47.89062" lon="7.11943">
        <ele>1071</ele>
        <time>2023-05-06T14:52:36Z</time>
      </trkpt>
      <trkpt lat="47.89064" lon="7.11937">
        <ele>1072</ele>
        <time>2023-05-06T14:52:40Z</time>
      </trkpt>
      <trkpt lat="47.89073" lon="7.11922">
        <ele>1074</ele>
        <time>2023-05-06T14:52:56Z</time>
      </trkpt>
      <trkpt lat="47.89076" lon="7.11916">
        <ele>1075</ele>
        <time>2023-05-06T14:53:01Z</time>
      </trkpt>
      <trkpt lat="47.8908" lon="7.11901">
        <ele>1078</ele>
        <time>2023-05-06T14:53:15Z</time>
      </trkpt>
      <trkpt lat="47.89102" lon="7.11875">
        <ele>1081</ele>
        <time>2023-05-06T14:53:44Z</time>
      </trkpt>
      <trkpt lat="47.89128" lon="7.1184">
        <ele>1083</ele>
        <time>2023-05-06T14:54:18Z</time>
      </trkpt>
      <trkpt lat="47.89138" lon="7.11829">
        <ele>1084</ele>
        <time>2023-05-06T14:54:29Z</time>
      </trkpt>
      <trkpt lat="47.89141" lon="7.11823">
        <ele>1085</ele>
        <time>2023-05-06T14:54:34Z</time>
      </trkpt>
      <trkpt lat="47.89152" lon="7.11771">
        <ele>1089</ele>
        <time>2023-05-06T14:55:09Z</time>
      </trkpt>
      <trkpt lat="47.89157" lon="7.11764">
        <ele>1091</ele>
        <time>2023-05-06T14:55:16Z</time>
      </trkpt>
      <trkpt lat="47.89158" lon="7.11757">
        <ele>1091</ele>
        <time>2023-05-06T14:55:21Z</time>
      </trkpt>
      <trkpt lat="47.8916" lon="7.11748">
        <ele>1093</ele>
        <time>2023-05-06T14:55:28Z</time>
      </trkpt>
      <trkpt lat="47.89173" lon="7.11712">
        <ele>1098</ele>
        <time>2023-05-06T14:56:00Z</time>
      </trkpt>
      <trkpt lat="47.89189" lon="7.11689">
        <ele>1105</ele>
        <time>2023-05-06T14:56:28Z</time>
      </trkpt>
      <trkpt lat="47.89202" lon="7.1165">
        <ele>1109</ele>
        <time>2023-05-06T14:56:59Z</time>
      </trkpt>
      <trkpt lat="47.89205" lon="7.11646">
        <ele>1110</ele>
        <time>2023-05-06T14:57:07Z</time>
      </trkpt>
      <trkpt lat="47.8921" lon="7.11636">
        <ele>1112</ele>
        <time>2023-05-06T14:57:19Z</time>
      </trkpt>
      <trkpt lat="47.89216" lon="7.11626">
        <ele>1112</ele>
        <time>2023-05-06T14:57:28Z</time>
      </trkpt>
      <trkpt lat="47.89228" lon="7.11612">
        <ele>1113</ele>
        <time>2023-05-06T14:57:43Z</time>
      </trkpt>
      <trkpt lat="47.89233" lon="7.11611">
        <ele>1114</ele>
        <time>2023-05-06T14:57:52Z</time>
      </trkpt>
      <trkpt lat="47.89242" lon="7.11598">
        <ele>1114</ele>
        <time>2023-05-06T14:58:05Z</time>
      </trkpt>
      <trkpt lat="47.89249" lon="7.11585">
        <ele>1116</ele>
        <time>2023-05-06T14:58:19Z</time>
      </trkpt>
      <trkpt lat="47.89253" lon="7.11581">
        <ele>1116</ele>
        <time>2023-05-06T14:58:23Z</time>
      </trkpt>
      <trkpt lat="47.89257" lon="7.11579">
        <ele>1117</ele>
        <time>2023-05-06T14:58:27Z</time>
      </trkpt>
      <trkpt lat="47.89266" lon="7.11568">
        <ele>1119</ele>
        <time>2023-05-06T14:58:40Z</time>
      </trkpt>
      <trkpt lat="47.89271" lon="7.11567">
        <ele>1119</ele>
        <time>2023-05-06T14:58:44Z</time>
      </trkpt>
      <trkpt lat="47.89277" lon="7.11563">
        <ele>1121</ele>
        <time>2023-05-06T14:58:52Z</time>
      </trkpt>
      <trkpt lat="47.89282" lon="7.1156">
        <ele>1121</ele>
        <time>2023-05-06T14:58:56Z</time>
      </trkpt>
      <trkpt lat="47.8929" lon="7.11544">
        <ele>1123</ele>
        <time>2023-05-06T14:59:11Z</time>
      </trkpt>
      <trkpt lat="47.89299" lon="7.11533">
        <ele>1125</ele>
        <time>2023-05-06T14:59:24Z</time>
      </trkpt>
      <trkpt lat="47.89303" lon="7.11533">
        <ele>1126</ele>
        <time>2023-05-06T14:59:28Z</time>
      </trkpt>
      <trkpt lat="47.89309" lon="7.11525">
        <ele>1128</ele>
        <time>2023-05-06T14:59:39Z</time>
      </trkpt>
      <trkpt lat="47.89315" lon="7.11514">
        <ele>1130</ele>
        <time>2023-05-06T14:59:48Z</time>
      </trkpt>
      <trkpt lat="47.89319" lon="7.11512">
        <ele>1131</ele>
        <time>2023-05-06T14:59:52Z</time>
      </trkpt>
      <trkpt lat="47.89327" lon="7.11485">
        <ele>1137</ele>
        <time>2023-05-06T15:00:24Z</time>
      </trkpt>
      <trkpt lat="47.89332" lon="7.11474">
        <ele>1140</ele>
        <time>2023-05-06T15:00:35Z</time>
      </trkpt>
      <trkpt lat="47.89334" lon="7.11465">
        <ele>1142</ele>
        <time>2023-05-06T15:00:42Z</time>
      </trkpt>
      <trkpt lat="47.89337" lon="7.1146">
        <ele>1144</ele>
        <time>2023-05-06T15:00:48Z</time>
      </trkpt>
      <trkpt lat="47.89342" lon="7.11453">
        <ele>1146</ele>
        <time>2023-05-06T15:00:59Z</time>
      </trkpt>
      <trkpt lat="47.89348" lon="7.11436">
        <ele>1150</ele>
        <time>2023-05-06T15:01:17Z</time>
      </trkpt>
      <trkpt lat="47.89358" lon="7.11425">
        <ele>1152</ele>
        <time>2023-05-06T15:01:30Z</time>
      </trkpt>
      <trkpt lat="47.89362" lon="7.11424">
        <ele>1153</ele>
        <time>2023-05-06T15:01:34Z</time>
      </trkpt>
      <trkpt lat="47.89384" lon="7.11394">
        <ele>1158</ele>
        <time>2023-05-06T15:02:08Z</time>
      </trkpt>
      <trkpt lat="47.89393" lon="7.11379">
        <ele>1160</ele>
        <time>2023-05-06T15:02:21Z</time>
      </trkpt>
      <trkpt lat="47.89397" lon="7.11376">
        <ele>1160</ele>
        <time>2023-05-06T15:02:25Z</time>
      </trkpt>
      <trkpt lat="47.89402" lon="7.11374">
        <ele>1161</ele>
        <time>2023-05-06T15:02:30Z</time>
      </trkpt>
      <trkpt lat="47.8941" lon="7.11366">
        <ele>1161</ele>
        <time>2023-05-06T15:02:37Z</time>
      </trkpt>
      <trkpt lat="47.89421" lon="7.11348">
        <ele>1161</ele>
        <time>2023-05-06T15:02:49Z</time>
      </trkpt>
      <trkpt lat="47.89428" lon="7.1134">
        <ele>1162</ele>
        <time>2023-05-06T15:02:57Z</time>
      </trkpt>
      <trkpt lat="47.89438" lon="7.11322">
        <ele>1163</ele>
        <time>2023-05-06T15:03:11Z</time>
      </trkpt>
      <trkpt lat="47.89443" lon="7.11306">
        <ele>1164</ele>
        <time>2023-05-06T15:03:21Z</time>
      </trkpt>
      <trkpt lat="47.89455" lon="7.11285">
        <ele>1166</ele>
        <time>2023-05-06T15:03:37Z</time>
      </trkpt>
      <trkpt lat="47.89469" lon="7.11246">
        <ele>1169</ele>
        <time>2023-05-06T15:04:06Z</time>
      </trkpt>
      <trkpt lat="47.89473" lon="7.11241">
        <ele>1170</ele>
        <time>2023-05-06T15:04:12Z</time>
      </trkpt>
      <trkpt lat="47.89476" lon="7.11225">
        <ele>1171</ele>
        <time>2023-05-06T15:04:23Z</time>
      </trkpt>
      <trkpt lat="47.89483" lon="7.11207">
        <ele>1173</ele>
        <time>2023-05-06T15:04:36Z</time>
      </trkpt>
      <trkpt lat="47.89487" lon="7.11202">
        <ele>1173</ele>
        <time>2023-05-06T15:04:40Z</time>
      </trkpt>
      <trkpt lat="47.89497" lon="7.11178">
        <ele>1175</ele>
        <time>2023-05-06T15:04:59Z</time>
      </trkpt>
      <trkpt lat="47.89522" lon="7.11137">
        <ele>1180</ele>
        <time>2023-05-06T15:05:35Z</time>
      </trkpt>
      <trkpt lat="47.8953" lon="7.11111">
        <ele>1182</ele>
        <time>2023-05-06T15:05:52Z</time>
      </trkpt>
      <trkpt lat="47.89536" lon="7.11099">
        <ele>1183</ele>
        <time>2023-05-06T15:06:03Z</time>
      </trkpt>
      <trkpt lat="47.8954" lon="7.11094">
        <ele>1184</ele>
        <time>2023-05-06T15:06:08Z</time>
      </trkpt>
      <trkpt lat="47.89554" lon="7.1107">
        <ele>1187</ele>
        <time>2023-05-06T15:06:30Z</time>
      </trkpt>
      <trkpt lat="47.89556" lon="7.11064">
        <ele>1187</ele>
        <time>2023-05-06T15:06:34Z</time>
      </trkpt>
      <trkpt lat="47.89559" lon="7.11059">
        <ele>1188</ele>
        <time>2023-05-06T15:06:38Z</time>
      </trkpt>
      <trkpt lat="47.89563" lon="7.11055">
        <ele>1188</ele>
        <time>2023-05-06T15:06:43Z</time>
      </trkpt>
      <trkpt lat="47.89566" lon="7.11049">
        <ele>1189</ele>
        <time>2023-05-06T15:06:47Z</time>
      </trkpt>
      <trkpt lat="47.89575" lon="7.11023">
        <ele>1190</ele>
        <time>2023-05-06T15:07:03Z</time>
      </trkpt>
      <trkpt lat="47.8958" lon="7.11011">
        <ele>1192</ele>
        <time>2023-05-06T15:07:11Z</time>
      </trkpt>
      <trkpt lat="47.89581" lon="7.11005">
        <ele>1192</ele>
        <time>2023-05-06T15:07:15Z</time>
      </trkpt>
      <trkpt lat="47.89587" lon="7.10994">
        <ele>1193</ele>
        <time>2023-05-06T15:07:23Z</time>
      </trkpt>
      <trkpt lat="47.89594" lon="7.10984">
        <ele>1195</ele>
        <time>2023-05-06T15:07:32Z</time>
      </trkpt>
      <trkpt lat="47.89597" lon="7.10979">
        <ele>1196</ele>
        <time>2023-05-06T15:07:36Z</time>
      </trkpt>
      <trkpt lat="47.89612" lon="7.10963">
        <ele>1199</ele>
        <time>2023-05-06T15:07:54Z</time>
      </trkpt>
      <trkpt lat="47.89634" lon="7.10933">
        <ele>1202</ele>
        <time>2023-05-06T15:08:22Z</time>
      </trkpt>
      <trkpt lat="47.89663" lon="7.10905">
        <ele>1206</ele>
        <time>2023-05-06T15:08:53Z</time>
      </trkpt>
      <trkpt lat="47.89677" lon="7.10889">
        <ele>1209</ele>
        <time>2023-05-06T15:09:12Z</time>
      </trkpt>
      <trkpt lat="47.89681" lon="7.10881">
        <ele>1211</ele>
        <time>2023-05-06T15:09:20Z</time>
      </trkpt>
      <trkpt lat="47.89683" lon="7.10874">
        <ele>1212</ele>
        <time>2023-05-06T15:09:24Z</time>
      </trkpt>
      <trkpt lat="47.89703" lon="7.10847">
        <ele>1218</ele>
        <time>2023-05-06T15:09:53Z</time>
      </trkpt>
      <trkpt lat="47.89716" lon="7.10812">
        <ele>1225</ele>
        <time>2023-05-06T15:10:28Z</time>
      </trkpt>
      <trkpt lat="47.89728" lon="7.1079">
        <ele>1228</ele>
        <time>2023-05-06T15:10:47Z</time>
      </trkpt>
      <trkpt lat="47.89732" lon="7.10785">
        <ele>1229</ele>
        <time>2023-05-06T15:10:52Z</time>
      </trkpt>
      <trkpt lat="47.89737" lon="7.10781">
        <ele>1230</ele>
        <time>2023-05-06T15:10:57Z</time>
      </trkpt>
      <trkpt lat="47.89742" lon="7.10775">
        <ele>1231</ele>
        <time>2023-05-06T15:11:04Z</time>
      </trkpt>
      <trkpt lat="47.89774" lon="7.1075">
        <ele>1238</ele>
        <time>2023-05-06T15:11:39Z</time>
      </trkpt>
      <trkpt lat="47.89786" lon="7.10737">
        <ele>1241</ele>
        <time>2023-05-06T15:11:54Z</time>
      </trkpt>
      <trkpt lat="47.898" lon="7.10713">
        <ele>1244</ele>
        <time>2023-05-06T15:12:17Z</time>
      </trkpt>
      <trkpt lat="47.89803" lon="7.10707">
        <ele>1244</ele>
        <time>2023-05-06T15:12:21Z</time>
      </trkpt>
      <trkpt lat="47.89806" lon="7.10702">
        <ele>1245</ele>
        <time>2023-05-06T15:12:25Z</time>
      </trkpt>
      <trkpt lat="47.89809" lon="7.1069">
        <ele>1246</ele>
        <time>2023-05-06T15:12:33Z</time>
      </trkpt>
      <trkpt lat="47.89831" lon="7.10659">
        <ele>1250</ele>
        <time>2023-05-06T15:13:04Z</time>
      </trkpt>
      <trkpt lat="47.89849" lon="7.10627">
        <ele>1256</ele>
        <time>2023-05-06T15:13:35Z</time>
      </trkpt>
      <trkpt lat="47.89854" lon="7.10617">
        <ele>1258</ele>
        <time>2023-05-06T15:13:44Z</time>
      </trkpt>
      <trkpt lat="47.89857" lon="7.10611">
        <ele>1259</ele>
        <time>2023-05-06T15:13:48Z</time>
      </trkpt>
      <trkpt lat="47.89858" lon="7.10602">
        <ele>1260</ele>
        <time>2023-05-06T15:13:55Z</time>
      </trkpt>
      <trkpt lat="47.89858" lon="7.10586">
        <ele>1262</ele>
        <time>2023-05-06T15:14:06Z</time>
      </trkpt>
      <trkpt lat="47.89862" lon="7.10546">
        <ele>1267</ele>
        <time>2023-05-06T15:14:38Z</time>
      </trkpt>
      <trkpt lat="47.89869" lon="7.10518">
        <ele>1271</ele>
        <time>2023-05-06T15:14:58Z</time>
      </trkpt>
      <trkpt lat="47.8987" lon="7.10494">
        <ele>1274</ele>
        <time>2023-05-06T15:15:15Z</time>
      </trkpt>
      <trkpt lat="47.89865" lon="7.10477">
        <ele>1277</ele>
        <time>2023-05-06T15:15:30Z</time>
      </trkpt>
      <trkpt lat="47.89859" lon="7.10467">
        <ele>1279</ele>
        <time>2023-05-06T15:15:39Z</time>
      </trkpt>
      <trkpt lat="47.89835" lon="7.10437">
        <ele>1283</ele>
        <time>2023-05-06T15:16:09Z</time>
      </trkpt>
      <trkpt lat="47.89812" lon="7.10405">
        <ele>1287</ele>
        <time>2023-05-06T15:16:40Z</time>
      </trkpt>
      <trkpt lat="47.89809" lon="7.10399">
        <ele>1288</ele>
        <time>2023-05-06T15:16:44Z</time>
      </trkpt>
      <trkpt lat="47.89807" lon="7.10395">
        <ele>1288</ele>
        <time>2023-05-06T15:16:48Z</time>
      </trkpt>
      <trkpt lat="47.89785" lon="7.10369">
        <ele>1291</ele>
        <time>2023-05-06T15:17:12Z</time>
      </trkpt>
      <trkpt lat="47.89764" lon="7.10325">
        <ele>1293</ele>
        <time>2023-05-06T15:17:53Z</time>
      </trkpt>
      <trkpt lat="47.89756" lon="7.10319">
        <ele>1293</ele>
        <time>2023-05-06T15:18:01Z</time>
      </trkpt>
      <trkpt lat="47.89751" lon="7.10317">
        <ele>1293</ele>
        <time>2023-05-06T15:18:07Z</time>
      </trkpt>
      <trkpt lat="47.89742" lon="7.10307">
        <ele>1293</ele>
        <time>2023-05-06T15:18:40Z</time>
      </trkpt>
      <trkpt lat="47.89745" lon="7.10293">
        <ele>1294</ele>
        <time>2023-05-06T15:18:50Z</time>
      </trkpt>
      <trkpt lat="47.89754" lon="7.10265">
        <ele>1297</ele>
        <time>2023-05-06T15:19:13Z</time>
      </trkpt>
      <trkpt lat="47.8976" lon="7.10226">
        <ele>1303</ele>
        <time>2023-05-06T15:19:44Z</time>
      </trkpt>
      <trkpt lat="47.89761" lon="7.10215">
        <ele>1304</ele>
        <time>2023-05-06T15:19:51Z</time>
      </trkpt>
      <trkpt lat="47.89763" lon="7.10209">
        <ele>1305</ele>
        <time>2023-05-06T15:19:56Z</time>
      </trkpt>
      <trkpt lat="47.89765" lon="7.10203">
        <ele>1306</ele>
        <time>2023-05-06T15:20:08Z</time>
      </trkpt>
      <trkpt lat="47.89773" lon="7.10173">
        <ele>1309</ele>
        <time>2023-05-06T15:20:34Z</time>
      </trkpt>
      <trkpt lat="47.89778" lon="7.10172">
        <ele>1310</ele>
        <time>2023-05-06T15:20:42Z</time>
      </trkpt>
      <trkpt lat="47.8978" lon="7.10178">
        <ele>1311</ele>
        <time>2023-05-06T15:20:47Z</time>
      </trkpt>
      <trkpt lat="47.89789" lon="7.10209">
        <ele>1313</ele>
        <time>2023-05-06T15:21:11Z</time>
      </trkpt>
      <trkpt lat="47.89794" lon="7.10214">
        <ele>1314</ele>
        <time>2023-05-06T15:21:19Z</time>
      </trkpt>
      <trkpt lat="47.89816" lon="7.10224">
        <ele>1320</ele>
        <time>2023-05-06T15:21:55Z</time>
      </trkpt>
      <trkpt lat="47.89821" lon="7.10227">
        <ele>1322</ele>
        <time>2023-05-06T15:22:02Z</time>
      </trkpt>
      <trkpt lat="47.89834" lon="7.10232">
        <ele>1326</ele>
        <time>2023-05-06T15:22:22Z</time>
      </trkpt>
      <trkpt lat="47.89845" lon="7.10208">
        <ele>1330</ele>
        <time>2023-05-06T15:22:51Z</time>
      </trkpt>
      <trkpt lat="47.89851" lon="7.10201">
        <ele>1332</ele>
        <time>2023-05-06T15:23:02Z</time>
      </trkpt>
      <trkpt lat="47.89857" lon="7.10195">
        <ele>1334</ele>
        <time>2023-05-06T15:23:14Z</time>
      </trkpt>
      <trkpt lat="47.89862" lon="7.10172">
        <ele>1338</ele>
        <time>2023-05-06T15:23:38Z</time>
      </trkpt>
      <trkpt lat="47.8987" lon="7.10181">
        <ele>1340</ele>
        <time>2023-05-06T15:23:50Z</time>
      </trkpt>
      <trkpt lat="47.89886" lon="7.10185">
        <ele>1343</ele>
        <time>2023-05-06T15:24:14Z</time>
      </trkpt>
      <trkpt lat="47.89891" lon="7.10184">
        <ele>1344</ele>
        <time>2023-05-06T15:24:20Z</time>
      </trkpt>
      <trkpt lat="47.89895" lon="7.10181">
        <ele>1345</ele>
        <time>2023-05-06T15:24:26Z</time>
      </trkpt>
      <trkpt lat="47.89899" lon="7.10185">
        <ele>1346</ele>
        <time>2023-05-06T15:24:38Z</time>
      </trkpt>
      <trkpt lat="47.89903" lon="7.10189">
        <ele>1346</ele>
        <time>2023-05-06T15:24:43Z</time>
      </trkpt>
      <trkpt lat="47.89918" lon="7.10194">
        <ele>1347</ele>
        <time>2023-05-06T15:24:59Z</time>
      </trkpt>
      <trkpt lat="47.89923" lon="7.10195">
        <ele>1348</ele>
        <time>2023-05-06T15:25:04Z</time>
      </trkpt>
      <trkpt lat="47.89938" lon="7.10182">
        <ele>1349</ele>
        <time>2023-05-06T15:25:23Z</time>
      </trkpt>
      <trkpt lat="47.89958" lon="7.10175">
        <ele>1350</ele>
        <time>2023-05-06T15:25:42Z</time>
      </trkpt>
      <trkpt lat="47.89962" lon="7.10172">
        <ele>1350</ele>
        <time>2023-05-06T15:25:46Z</time>
      </trkpt>
      <trkpt lat="47.89975" lon="7.10167">
        <ele>1350</ele>
        <time>2023-05-06T15:25:59Z</time>
      </trkpt>
      <trkpt lat="47.8998" lon="7.10168">
        <ele>1351</ele>
        <time>2023-05-06T15:26:04Z</time>
      </trkpt>
      <trkpt lat="47.9" lon="7.10161">
        <ele>1354</ele>
        <time>2023-05-06T15:26:26Z</time>
      </trkpt>
      <trkpt lat="47.90012" lon="7.10148">
        <ele>1357</ele>
        <time>2023-05-06T15:26:42Z</time>
      </trkpt>
      <trkpt lat="47.90016" lon="7.10145">
        <ele>1357</ele>
        <time>2023-05-06T15:26:47Z</time>
      </trkpt>
      <trkpt lat="47.90025" lon="7.10139">
        <ele>1359</ele>
        <time>2023-05-06T15:27:00Z</time>
      </trkpt>
      <trkpt lat="47.90036" lon="7.10127">
        <ele>1362</ele>
        <time>2023-05-06T15:27:16Z</time>
      </trkpt>
      <trkpt lat="47.90059" lon="7.1011">
        <ele>1367</ele>
        <time>2023-05-06T15:27:47Z</time>
      </trkpt>
      <trkpt lat="47.90063" lon="7.10108">
        <ele>1368</ele>
        <time>2023-05-06T15:27:54Z</time>
      </trkpt>
      <trkpt lat="47.90068" lon="7.10107">
        <ele>1368</ele>
        <time>2023-05-06T15:27:58Z</time>
      </trkpt>
      <trkpt lat="47.90084" lon="7.10099">
        <ele>1370</ele>
        <time>2023-05-06T15:28:17Z</time>
      </trkpt>
      <trkpt lat="47.90108" lon="7.10095">
        <ele>1374</ele>
        <time>2023-05-06T15:28:44Z</time>
      </trkpt>
      <trkpt lat="47.90132" lon="7.10082">
        <ele>1379</ele>
        <time>2023-05-06T15:29:12Z</time>
      </trkpt>
      <trkpt lat="47.90142" lon="7.10074">
        <ele>1380</ele>
        <time>2023-05-06T15:29:24Z</time>
      </trkpt>
      <trkpt lat="47.90173" lon="7.10067">
        <ele>1384</ele>
        <time>2023-05-06T15:29:57Z</time>
      </trkpt>
      <trkpt lat="47.90183" lon="7.10065">
        <ele>1385</ele>
        <time>2023-05-06T15:30:07Z</time>
      </trkpt>
      <trkpt lat="47.90197" lon="7.10064">
        <ele>1387</ele>
        <time>2023-05-06T15:30:20Z</time>
      </trkpt>
      <trkpt lat="47.90213" lon="7.10068">
        <ele>1389</ele>
        <time>2023-05-06T15:30:38Z</time>
      </trkpt>
      <trkpt lat="47.90216" lon="7.10061">
        <ele>1390</ele>
        <time>2023-05-06T15:30:47Z</time>
      </trkpt>
      <trkpt lat="47.90196" lon="7.10043">
        <ele>1393</ele>
        <time>2023-05-06T15:31:13Z</time>
      </trkpt>
      <trkpt lat="47.90173" lon="7.10018">
        <ele>1397</ele>
        <time>2023-05-06T15:31:44Z</time>
      </trkpt>
      <trkpt lat="47.90164" lon="7.10008">
        <ele>1399</ele>
        <time>2023-05-06T15:31:57Z</time>
      </trkpt>
      <trkpt lat="47.90138" lon="7.09992">
        <ele>1403</ele>
        <time>2023-05-06T15:32:28Z</time>
      </trkpt>
      <trkpt lat="47.90107" lon="7.09974">
        <ele>1408</ele>
        <time>2023-05-06T15:33:04Z</time>
      </trkpt>
      <trkpt lat="47.90093" lon="7.09968">
        <ele>1410</ele>
        <time>2023-05-06T15:33:20Z</time>
      </trkpt>
      <trkpt lat="47.90064" lon="7.09945">
        <ele>1414</ele>
        <time>2023-05-06T15:33:53Z</time>
      </trkpt>
      <trkpt lat="47.90037" lon="7.09923">
        <ele>1416</ele>
        <time>2023-05-06T15:34:24Z</time>
      </trkpt>
      <trkpt lat="47.90022" lon="7.09918">
        <ele>1415</ele>
        <time>2023-05-06T15:34:41Z</time>
      </trkpt>
      <trkpt lat="47.90019" lon="7.09913">
        <ele>1415</ele>
        <time>2023-05-06T15:34:47Z</time>
      </trkpt>
      <trkpt lat="47.9002" lon="7.09901">
        <ele>1415</ele>
        <time>2023-05-06T15:35:05Z</time>
      </trkpt>
      <trkpt lat="47.90047" lon="7.09896">
        <ele>1418</ele>
        <time>2023-05-06T15:38:48Z</time>
      </trkpt>
      <trkpt lat="47.90076" lon="7.09875">
        <ele>1423</ele>
        <time>2023-05-06T15:39:23Z</time>
      </trkpt>
      <trkpt lat="47.90081" lon="7.0987">
        <ele>1423</ele>
        <time>2023-05-06T15:39:42Z</time>
      </trkpt>
      <trkpt lat="47.90097" lon="7.09848">
        <ele>1426</ele>
        <time>2023-05-06T15:40:06Z</time>
      </trkpt>
      <trkpt lat="47.90106" lon="7.09845">
        <ele>1426</ele>
        <time>2023-05-06T15:40:16Z</time>
      </trkpt>
      <trkpt lat="47.90113" lon="7.09846">
        <ele>1426</ele>
        <time>2023-05-06T15:40:24Z</time>
      </trkpt>
      <trkpt lat="47.90118" lon="7.0984">
        <ele>1426</ele>
        <time>2023-05-06T15:40:36Z</time>
      </trkpt>
      <trkpt lat="47.90116" lon="7.09834">
        <ele>1426</ele>
        <time>2023-05-06T15:40:41Z</time>
      </trkpt>
      <trkpt lat="47.90111" lon="7.09833">
        <ele>1428</ele>
        <time>2023-05-06T15:40:53Z</time>
      </trkpt>
      <trkpt lat="47.90104" lon="7.09828">
        <ele>1430</ele>
        <time>2023-05-06T15:41:04Z</time>
      </trkpt>
      <trkpt lat="47.90099" lon="7.09825">
        <ele>1432</ele>
        <time>2023-05-06T15:41:18Z</time>
      </trkpt>
      <trkpt lat="47.90094" lon="7.09828">
        <ele>1432</ele>
        <time>2023-05-06T15:41:30Z</time>
      </trkpt>
      <trkpt lat="47.90092" lon="7.09822">
        <ele>1433</ele>
        <time>2023-05-06T15:42:18Z</time>
      </trkpt>
      <trkpt lat="47.90096" lon="7.09818">
        <ele>1433</ele>
        <time>2023-05-06T15:42:56Z</time>
      </trkpt>
      <trkpt lat="47.90063" lon="7.09888">
        <ele>1420</ele>
        <time>2023-05-06T15:48:56Z</time>
      </trkpt>
      <trkpt lat="47.90044" lon="7.09897">
        <ele>1418</ele>
        <time>2023-05-06T15:49:18Z</time>
      </trkpt>
      <trkpt lat="47.90039" lon="7.09896">
        <ele>1418</ele>
        <time>2023-05-06T15:49:22Z</time>
      </trkpt>
      <trkpt lat="47.90028" lon="7.09892">
        <ele>1415</ele>
        <time>2023-05-06T15:49:35Z</time>
      </trkpt>
      <trkpt lat="47.90025" lon="7.09881">
        <ele>1414</ele>
        <time>2023-05-06T15:50:10Z</time>
      </trkpt>
      <trkpt lat="47.90021" lon="7.09883">
        <ele>1413</ele>
        <time>2023-05-06T15:51:16Z</time>
      </trkpt>
      <trkpt lat="47.90016" lon="7.0988">
        <ele>1412</ele>
        <time>2023-05-06T15:51:27Z</time>
      </trkpt>
      <trkpt lat="47.89998" lon="7.09906">
        <ele>1409</ele>
        <time>2023-05-06T15:51:57Z</time>
      </trkpt>
      <trkpt lat="47.89994" lon="7.09913">
        <ele>1409</ele>
        <time>2023-05-06T15:52:04Z</time>
      </trkpt>
      <trkpt lat="47.89985" lon="7.09934">
        <ele>1407</ele>
        <time>2023-05-06T15:52:23Z</time>
      </trkpt>
      <trkpt lat="47.89985" lon="7.0994">
        <ele>1407</ele>
        <time>2023-05-06T15:52:28Z</time>
      </trkpt>
      <trkpt lat="47.89987" lon="7.09946">
        <ele>1407</ele>
        <time>2023-05-06T15:52:32Z</time>
      </trkpt>
      <trkpt lat="47.89994" lon="7.09955">
        <ele>1407</ele>
        <time>2023-05-06T15:52:41Z</time>
      </trkpt>
      <trkpt lat="47.9" lon="7.09959">
        <ele>1406</ele>
        <time>2023-05-06T15:52:48Z</time>
      </trkpt>
      <trkpt lat="47.9002" lon="7.09963">
        <ele>1407</ele>
        <time>2023-05-06T15:53:10Z</time>
      </trkpt>
      <trkpt lat="47.90024" lon="7.09969">
        <ele>1406</ele>
        <time>2023-05-06T15:53:20Z</time>
      </trkpt>
      <trkpt lat="47.9002" lon="7.0998">
        <ele>1403</ele>
        <time>2023-05-06T15:53:31Z</time>
      </trkpt>
      <trkpt lat="47.90011" lon="7.09983">
        <ele>1402</ele>
        <time>2023-05-06T15:53:42Z</time>
      </trkpt>
      <trkpt lat="47.9" lon="7.09993">
        <ele>1399</ele>
        <time>2023-05-06T15:53:56Z</time>
      </trkpt>
      <trkpt lat="47.89993" lon="7.09997">
        <ele>1398</ele>
        <time>2023-05-06T15:54:05Z</time>
      </trkpt>
      <trkpt lat="47.89972" lon="7.09997">
        <ele>1396</ele>
        <time>2023-05-06T15:54:36Z</time>
      </trkpt>
      <trkpt lat="47.89967" lon="7.09997">
        <ele>1395</ele>
        <time>2023-05-06T15:54:42Z</time>
      </trkpt>
      <trkpt lat="47.89954" lon="7.09992">
        <ele>1392</ele>
        <time>2023-05-06T15:55:02Z</time>
      </trkpt>
      <trkpt lat="47.8995" lon="7.09987">
        <ele>1391</ele>
        <time>2023-05-06T15:55:08Z</time>
      </trkpt>
      <trkpt lat="47.89948" lon="7.09981">
        <ele>1390</ele>
        <time>2023-05-06T15:55:14Z</time>
      </trkpt>
      <trkpt lat="47.89928" lon="7.09954">
        <ele>1386</ele>
        <time>2023-05-06T15:55:49Z</time>
      </trkpt>
      <trkpt lat="47.89924" lon="7.09951">
        <ele>1386</ele>
        <time>2023-05-06T15:55:55Z</time>
      </trkpt>
      <trkpt lat="47.89907" lon="7.09933">
        <ele>1382</ele>
        <time>2023-05-06T15:56:27Z</time>
      </trkpt>
      <trkpt lat="47.89902" lon="7.09925">
        <ele>1381</ele>
        <time>2023-05-06T15:56:39Z</time>
      </trkpt>
      <trkpt lat="47.899" lon="7.09915">
        <ele>1379</ele>
        <time>2023-05-06T15:56:51Z</time>
      </trkpt>
      <trkpt lat="47.89903" lon="7.09899">
        <ele>1378</ele>
        <time>2023-05-06T15:57:08Z</time>
      </trkpt>
      <trkpt lat="47.8991" lon="7.09888">
        <ele>1376</ele>
        <time>2023-05-06T15:57:19Z</time>
      </trkpt>
      <trkpt lat="47.89911" lon="7.09881">
        <ele>1376</ele>
        <time>2023-05-06T15:57:24Z</time>
      </trkpt>
      <trkpt lat="47.89915" lon="7.09875">
        <ele>1375</ele>
        <time>2023-05-06T15:57:29Z</time>
      </trkpt>
      <trkpt lat="47.8992" lon="7.09857">
        <ele>1373</ele>
        <time>2023-05-06T15:57:43Z</time>
      </trkpt>
      <trkpt lat="47.89923" lon="7.09852">
        <ele>1372</ele>
        <time>2023-05-06T15:57:48Z</time>
      </trkpt>
      <trkpt lat="47.89924" lon="7.09845">
        <ele>1371</ele>
        <time>2023-05-06T15:57:53Z</time>
      </trkpt>
      <trkpt lat="47.89927" lon="7.09838">
        <ele>1370</ele>
        <time>2023-05-06T15:58:02Z</time>
      </trkpt>
      <trkpt lat="47.8993" lon="7.09824">
        <ele>1369</ele>
        <time>2023-05-06T15:58:12Z</time>
      </trkpt>
      <trkpt lat="47.89932" lon="7.09817">
        <ele>1368</ele>
        <time>2023-05-06T15:58:17Z</time>
      </trkpt>
      <trkpt lat="47.89935" lon="7.09813">
        <ele>1368</ele>
        <time>2023-05-06T15:58:22Z</time>
      </trkpt>
      <trkpt lat="47.89936" lon="7.09806">
        <ele>1367</ele>
        <time>2023-05-06T15:58:28Z</time>
      </trkpt>
      <trkpt lat="47.89939" lon="7.09797">
        <ele>1365</ele>
        <time>2023-05-06T15:58:36Z</time>
      </trkpt>
      <trkpt lat="47.89939" lon="7.0979">
        <ele>1364</ele>
        <time>2023-05-06T15:58:40Z</time>
      </trkpt>
      <trkpt lat="47.89945" lon="7.09779">
        <ele>1363</ele>
        <time>2023-05-06T15:58:49Z</time>
      </trkpt>
      <trkpt lat="47.89949" lon="7.09774">
        <ele>1363</ele>
        <time>2023-05-06T15:58:54Z</time>
      </trkpt>
      <trkpt lat="47.89949" lon="7.09765">
        <ele>1361</ele>
        <time>2023-05-06T15:59:01Z</time>
      </trkpt>
      <trkpt lat="47.89962" lon="7.09746">
        <ele>1359</ele>
        <time>2023-05-06T15:59:32Z</time>
      </trkpt>
      <trkpt lat="47.89975" lon="7.09718">
        <ele>1355</ele>
        <time>2023-05-06T15:59:55Z</time>
      </trkpt>
      <trkpt lat="47.89977" lon="7.09713">
        <ele>1355</ele>
        <time>2023-05-06T16:00:00Z</time>
      </trkpt>
      <trkpt lat="47.89989" lon="7.09691">
        <ele>1350</ele>
        <time>2023-05-06T16:00:37Z</time>
      </trkpt>
      <trkpt lat="47.89993" lon="7.09686">
        <ele>1349</ele>
        <time>2023-05-06T16:00:41Z</time>
      </trkpt>
      <trkpt lat="47.89994" lon="7.09679">
        <ele>1349</ele>
        <time>2023-05-06T16:00:45Z</time>
      </trkpt>
      <trkpt lat="47.89998" lon="7.09675">
        <ele>1348</ele>
        <time>2023-05-06T16:00:53Z</time>
      </trkpt>
      <trkpt lat="47.89998" lon="7.09668">
        <ele>1347</ele>
        <time>2023-05-06T16:00:58Z</time>
      </trkpt>
      <trkpt lat="47.90003" lon="7.09656">
        <ele>1345</ele>
        <time>2023-05-06T16:01:07Z</time>
      </trkpt>
      <trkpt lat="47.90005" lon="7.0965">
        <ele>1344</ele>
        <time>2023-05-06T16:01:11Z</time>
      </trkpt>
      <trkpt lat="47.90011" lon="7.09647">
        <ele>1344</ele>
        <time>2023-05-06T16:01:31Z</time>
      </trkpt>
      <trkpt lat="47.90018" lon="7.09635">
        <ele>1343</ele>
        <time>2023-05-06T16:01:38Z</time>
      </trkpt>
      <trkpt lat="47.90018" lon="7.09628">
        <ele>1342</ele>
        <time>2023-05-06T16:01:43Z</time>
      </trkpt>
      <trkpt lat="47.90026" lon="7.09616">
        <ele>1340</ele>
        <time>2023-05-06T16:01:56Z</time>
      </trkpt>
      <trkpt lat="47.90027" lon="7.09609">
        <ele>1339</ele>
        <time>2023-05-06T16:02:02Z</time>
      </trkpt>
      <trkpt lat="47.90033" lon="7.09601">
        <ele>1338</ele>
        <time>2023-05-06T16:02:10Z</time>
      </trkpt>
      <trkpt lat="47.90042" lon="7.09583">
        <ele>1334</ele>
        <time>2023-05-06T16:02:31Z</time>
      </trkpt>
      <trkpt lat="47.90057" lon="7.09571">
        <ele>1330</ele>
        <time>2023-05-06T16:02:51Z</time>
      </trkpt>
      <trkpt lat="47.90062" lon="7.09569">
        <ele>1330</ele>
        <time>2023-05-06T16:02:56Z</time>
      </trkpt>
      <trkpt lat="47.90086" lon="7.09554">
        <ele>1326</ele>
        <time>2023-05-06T16:03:28Z</time>
      </trkpt>
      <trkpt lat="47.90098" lon="7.09546">
        <ele>1322</ele>
        <time>2023-05-06T16:03:46Z</time>
      </trkpt>
      <trkpt lat="47.90101" lon="7.09541">
        <ele>1321</ele>
        <time>2023-05-06T16:03:51Z</time>
      </trkpt>
      <trkpt lat="47.90105" lon="7.09537">
        <ele>1320</ele>
        <time>2023-05-06T16:03:56Z</time>
      </trkpt>
      <trkpt lat="47.90113" lon="7.09528">
        <ele>1318</ele>
        <time>2023-05-06T16:04:06Z</time>
      </trkpt>
      <trkpt lat="47.90124" lon="7.09518">
        <ele>1317</ele>
        <time>2023-05-06T16:04:18Z</time>
      </trkpt>
      <trkpt lat="47.90139" lon="7.09509">
        <ele>1314</ele>
        <time>2023-05-06T16:04:35Z</time>
      </trkpt>
      <trkpt lat="47.90143" lon="7.09505">
        <ele>1314</ele>
        <time>2023-05-06T16:04:39Z</time>
      </trkpt>
      <trkpt lat="47.90147" lon="7.09503">
        <ele>1313</ele>
        <time>2023-05-06T16:04:45Z</time>
      </trkpt>
      <trkpt lat="47.9015" lon="7.09497">
        <ele>1311</ele>
        <time>2023-05-06T16:04:50Z</time>
      </trkpt>
      <trkpt lat="47.90155" lon="7.09496">
        <ele>1310</ele>
        <time>2023-05-06T16:04:54Z</time>
      </trkpt>
      <trkpt lat="47.90163" lon="7.0949">
        <ele>1310</ele>
        <time>2023-05-06T16:05:02Z</time>
      </trkpt>
      <trkpt lat="47.90172" lon="7.0948">
        <ele>1307</ele>
        <time>2023-05-06T16:05:13Z</time>
      </trkpt>
      <trkpt lat="47.90182" lon="7.09466">
        <ele>1304</ele>
        <time>2023-05-06T16:05:29Z</time>
      </trkpt>
      <trkpt lat="47.90185" lon="7.09461">
        <ele>1304</ele>
        <time>2023-05-06T16:05:33Z</time>
      </trkpt>
      <trkpt lat="47.90188" lon="7.09455">
        <ele>1304</ele>
        <time>2023-05-06T16:05:37Z</time>
      </trkpt>
      <trkpt lat="47.9019" lon="7.09446">
        <ele>1303</ele>
        <time>2023-05-06T16:05:43Z</time>
      </trkpt>
      <trkpt lat="47.9019" lon="7.0944">
        <ele>1302</ele>
        <time>2023-05-06T16:05:47Z</time>
      </trkpt>
      <trkpt lat="47.90189" lon="7.09432">
        <ele>1302</ele>
        <time>2023-05-06T16:05:52Z</time>
      </trkpt>
      <trkpt lat="47.90186" lon="7.09427">
        <ele>1301</ele>
        <time>2023-05-06T16:05:56Z</time>
      </trkpt>
      <trkpt lat="47.90184" lon="7.0941">
        <ele>1299</ele>
        <time>2023-05-06T16:06:08Z</time>
      </trkpt>
      <trkpt lat="47.90185" lon="7.09402">
        <ele>1299</ele>
        <time>2023-05-06T16:06:16Z</time>
      </trkpt>
      <trkpt lat="47.90185" lon="7.09395">
        <ele>1300</ele>
        <time>2023-05-06T16:06:21Z</time>
      </trkpt>
      <trkpt lat="47.90187" lon="7.09388">
        <ele>1300</ele>
        <time>2023-05-06T16:06:26Z</time>
      </trkpt>
      <trkpt lat="47.9019" lon="7.09384">
        <ele>1300</ele>
        <time>2023-05-06T16:06:30Z</time>
      </trkpt>
      <trkpt lat="47.90198" lon="7.09354">
        <ele>1298</ele>
        <time>2023-05-06T16:06:52Z</time>
      </trkpt>
      <trkpt lat="47.90201" lon="7.0935">
        <ele>1298</ele>
        <time>2023-05-06T16:06:56Z</time>
      </trkpt>
      <trkpt lat="47.90207" lon="7.09338">
        <ele>1297</ele>
        <time>2023-05-06T16:07:05Z</time>
      </trkpt>
      <trkpt lat="47.90211" lon="7.09333">
        <ele>1296</ele>
        <time>2023-05-06T16:07:10Z</time>
      </trkpt>
      <trkpt lat="47.90214" lon="7.09327">
        <ele>1295</ele>
        <time>2023-05-06T16:07:15Z</time>
      </trkpt>
      <trkpt lat="47.90218" lon="7.09324">
        <ele>1294</ele>
        <time>2023-05-06T16:07:19Z</time>
      </trkpt>
      <trkpt lat="47.90225" lon="7.09308">
        <ele>1293</ele>
        <time>2023-05-06T16:07:31Z</time>
      </trkpt>
      <trkpt lat="47.90231" lon="7.09303">
        <ele>1291</ele>
        <time>2023-05-06T16:07:38Z</time>
      </trkpt>
      <trkpt lat="47.90239" lon="7.09293">
        <ele>1290</ele>
        <time>2023-05-06T16:07:49Z</time>
      </trkpt>
      <trkpt lat="47.90259" lon="7.09288">
        <ele>1287</ele>
        <time>2023-05-06T16:08:07Z</time>
      </trkpt>
      <trkpt lat="47.90271" lon="7.09288">
        <ele>1286</ele>
        <time>2023-05-06T16:08:21Z</time>
      </trkpt>
      <trkpt lat="47.90306" lon="7.09283">
        <ele>1279</ele>
        <time>2023-05-06T16:08:57Z</time>
      </trkpt>
      <trkpt lat="47.90339" lon="7.09286">
        <ele>1274</ele>
        <time>2023-05-06T16:09:31Z</time>
      </trkpt>
      <trkpt lat="47.90354" lon="7.0929">
        <ele>1271</ele>
        <time>2023-05-06T16:09:48Z</time>
      </trkpt>
      <trkpt lat="47.90366" lon="7.09289">
        <ele>1269</ele>
        <time>2023-05-06T16:10:01Z</time>
      </trkpt>
      <trkpt lat="47.9039" lon="7.09296">
        <ele>1265</ele>
        <time>2023-05-06T16:10:26Z</time>
      </trkpt>
      <trkpt lat="47.90395" lon="7.09295">
        <ele>1264</ele>
        <time>2023-05-06T16:10:31Z</time>
      </trkpt>
      <trkpt lat="47.90402" lon="7.09285">
        <ele>1262</ele>
        <time>2023-05-06T16:10:41Z</time>
      </trkpt>
      <trkpt lat="47.90416" lon="7.09249">
        <ele>1256</ele>
        <time>2023-05-06T16:11:13Z</time>
      </trkpt>
      <trkpt lat="47.90426" lon="7.09214">
        <ele>1251</ele>
        <time>2023-05-06T16:11:41Z</time>
      </trkpt>
      <trkpt lat="47.90426" lon="7.09207">
        <ele>1249</ele>
        <time>2023-05-06T16:11:46Z</time>
      </trkpt>
      <trkpt lat="47.90434" lon="7.09178">
        <ele>1246</ele>
        <time>2023-05-06T16:12:08Z</time>
      </trkpt>
      <trkpt lat="47.90442" lon="7.0916">
        <ele>1243</ele>
        <time>2023-05-06T16:12:23Z</time>
      </trkpt>
      <trkpt lat="47.9045" lon="7.09135">
        <ele>1241</ele>
        <time>2023-05-06T16:12:41Z</time>
      </trkpt>
      <trkpt lat="47.90452" lon="7.09129">
        <ele>1240</ele>
        <time>2023-05-06T16:12:46Z</time>
      </trkpt>
      <trkpt lat="47.90461" lon="7.09099">
        <ele>1237</ele>
        <time>2023-05-06T16:13:09Z</time>
      </trkpt>
      <trkpt lat="47.9048" lon="7.09065">
        <ele>1235</ele>
        <time>2023-05-06T16:13:38Z</time>
      </trkpt>
      <trkpt lat="47.90486" lon="7.09059">
        <ele>1235</ele>
        <time>2023-05-06T16:13:46Z</time>
      </trkpt>
      <trkpt lat="47.90498" lon="7.09038">
        <ele>1233</ele>
        <time>2023-05-06T16:14:04Z</time>
      </trkpt>
      <trkpt lat="47.90504" lon="7.09032">
        <ele>1233</ele>
        <time>2023-05-06T16:14:12Z</time>
      </trkpt>
      <trkpt lat="47.90505" lon="7.09026">
        <ele>1232</ele>
        <time>2023-05-06T16:14:16Z</time>
      </trkpt>
      <trkpt lat="47.90512" lon="7.08991">
        <ele>1232</ele>
        <time>2023-05-06T16:14:42Z</time>
      </trkpt>
      <trkpt lat="47.90514" lon="7.08981">
        <ele>1232</ele>
        <time>2023-05-06T16:14:49Z</time>
      </trkpt>
      <trkpt lat="47.90516" lon="7.08974">
        <ele>1232</ele>
        <time>2023-05-06T16:14:54Z</time>
      </trkpt>
      <trkpt lat="47.90517" lon="7.08961">
        <ele>1232</ele>
        <time>2023-05-06T16:15:02Z</time>
      </trkpt>
      <trkpt lat="47.90516" lon="7.08955">
        <ele>1233</ele>
        <time>2023-05-06T16:15:07Z</time>
      </trkpt>
      <trkpt lat="47.90511" lon="7.08951">
        <ele>1233</ele>
        <time>2023-05-06T16:15:12Z</time>
      </trkpt>
      <trkpt lat="47.90497" lon="7.08933">
        <ele>1234</ele>
        <time>2023-05-06T16:15:33Z</time>
      </trkpt>
      <trkpt lat="47.90494" lon="7.08928">
        <ele>1234</ele>
        <time>2023-05-06T16:15:38Z</time>
      </trkpt>
      <trkpt lat="47.90483" lon="7.08879">
        <ele>1233</ele>
        <time>2023-05-06T16:16:11Z</time>
      </trkpt>
      <trkpt lat="47.90482" lon="7.08873">
        <ele>1233</ele>
        <time>2023-05-06T16:16:15Z</time>
      </trkpt>
      <trkpt lat="47.90477" lon="7.08866">
        <ele>1233</ele>
        <time>2023-05-06T16:16:22Z</time>
      </trkpt>
      <trkpt lat="47.90472" lon="7.08859">
        <ele>1232</ele>
        <time>2023-05-06T16:16:30Z</time>
      </trkpt>
      <trkpt lat="47.90477" lon="7.08832">
        <ele>1235</ele>
        <time>2023-05-06T16:16:52Z</time>
      </trkpt>
      <trkpt lat="47.90477" lon="7.08822">
        <ele>1236</ele>
        <time>2023-05-06T16:17:03Z</time>
      </trkpt>
      <trkpt lat="47.90472" lon="7.08786">
        <ele>1237</ele>
        <time>2023-05-06T16:17:29Z</time>
      </trkpt>
      <trkpt lat="47.90466" lon="7.08767">
        <ele>1236</ele>
        <time>2023-05-06T16:17:42Z</time>
      </trkpt>
      <trkpt lat="47.90455" lon="7.08738">
        <ele>1235</ele>
        <time>2023-05-06T16:18:02Z</time>
      </trkpt>
      <trkpt lat="47.90439" lon="7.08695">
        <ele>1237</ele>
        <time>2023-05-06T16:18:34Z</time>
      </trkpt>
      <trkpt lat="47.90428" lon="7.08664">
        <ele>1239</ele>
        <time>2023-05-06T16:18:57Z</time>
      </trkpt>
      <trkpt lat="47.90424" lon="7.08649">
        <ele>1241</ele>
        <time>2023-05-06T16:19:10Z</time>
      </trkpt>
      <trkpt lat="47.9041" lon="7.08613">
        <ele>1246</ele>
        <time>2023-05-06T16:19:44Z</time>
      </trkpt>
      <trkpt lat="47.90405" lon="7.086">
        <ele>1247</ele>
        <time>2023-05-06T16:19:55Z</time>
      </trkpt>
      <trkpt lat="47.90402" lon="7.08592">
        <ele>1249</ele>
        <time>2023-05-06T16:20:04Z</time>
      </trkpt>
      <trkpt lat="47.90401" lon="7.08583">
        <ele>1251</ele>
        <time>2023-05-06T16:20:16Z</time>
      </trkpt>
      <trkpt lat="47.90405" lon="7.08582">
        <ele>1252</ele>
        <time>2023-05-06T16:20:34Z</time>
      </trkpt>
      <trkpt lat="47.90371" lon="7.08474">
        <ele>1271</ele>
        <time>2023-05-06T16:32:11Z</time>
      </trkpt>
      <trkpt lat="47.90371" lon="7.08473">
        <ele>1271</ele>
        <time>2023-05-06T16:32:12Z</time>
      </trkpt>
      <trkpt lat="47.90369" lon="7.08467">
        <ele>1272</ele>
        <time>2023-05-06T16:32:16Z</time>
      </trkpt>
      <trkpt lat="47.90369" lon="7.08457">
        <ele>1274</ele>
        <time>2023-05-06T16:32:29Z</time>
      </trkpt>
      <trkpt lat="47.90366" lon="7.08448">
        <ele>1277</ele>
        <time>2023-05-06T16:32:41Z</time>
      </trkpt>
      <trkpt lat="47.90362" lon="7.08417">
        <ele>1281</ele>
        <time>2023-05-06T16:33:11Z</time>
      </trkpt>
      <trkpt lat="47.90361" lon="7.08409">
        <ele>1282</ele>
        <time>2023-05-06T16:33:17Z</time>
      </trkpt>
      <trkpt lat="47.90361" lon="7.08389">
        <ele>1285</ele>
        <time>2023-05-06T16:33:37Z</time>
      </trkpt>
      <trkpt lat="47.90356" lon="7.08365">
        <ele>1290</ele>
        <time>2023-05-06T16:34:08Z</time>
      </trkpt>
      <trkpt lat="47.90355" lon="7.08358">
        <ele>1292</ele>
        <time>2023-05-06T16:34:20Z</time>
      </trkpt>
      <trkpt lat="47.90355" lon="7.0835">
        <ele>1294</ele>
        <time>2023-05-06T16:34:32Z</time>
      </trkpt>
      <trkpt lat="47.90355" lon="7.08336">
        <ele>1297</ele>
        <time>2023-05-06T16:34:51Z</time>
      </trkpt>
      <trkpt lat="47.90353" lon="7.08328">
        <ele>1299</ele>
        <time>2023-05-06T16:35:03Z</time>
      </trkpt>
      <trkpt lat="47.9035" lon="7.08299">
        <ele>1306</ele>
        <time>2023-05-06T16:35:38Z</time>
      </trkpt>
      <trkpt lat="47.90348" lon="7.08284">
        <ele>1309</ele>
        <time>2023-05-06T16:35:56Z</time>
      </trkpt>
      <trkpt lat="47.90346" lon="7.08277">
        <ele>1312</ele>
        <time>2023-05-06T16:36:08Z</time>
      </trkpt>
      <trkpt lat="47.90345" lon="7.08239">
        <ele>1319</ele>
        <time>2023-05-06T16:36:54Z</time>
      </trkpt>
      <trkpt lat="47.90343" lon="7.08231">
        <ele>1321</ele>
        <time>2023-05-06T16:37:06Z</time>
      </trkpt>
      <trkpt lat="47.90341" lon="7.082">
        <ele>1326</ele>
        <time>2023-05-06T16:37:41Z</time>
      </trkpt>
      <trkpt lat="47.90336" lon="7.08165">
        <ele>1334</ele>
        <time>2023-05-06T16:38:33Z</time>
      </trkpt>
      <trkpt lat="47.90331" lon="7.08151">
        <ele>1337</ele>
        <time>2023-05-06T16:38:57Z</time>
      </trkpt>
      <trkpt lat="47.90324" lon="7.08118">
        <ele>1341</ele>
        <time>2023-05-06T16:39:28Z</time>
      </trkpt>
      <trkpt lat="47.90324" lon="7.08111">
        <ele>1342</ele>
        <time>2023-05-06T16:39:34Z</time>
      </trkpt>
      <trkpt lat="47.90318" lon="7.08084">
        <ele>1344</ele>
        <time>2023-05-06T16:39:58Z</time>
      </trkpt>
      <trkpt lat="47.90315" lon="7.08078">
        <ele>1344</ele>
        <time>2023-05-06T16:40:05Z</time>
      </trkpt>
      <trkpt lat="47.90313" lon="7.08069">
        <ele>1345</ele>
        <time>2023-05-06T16:40:17Z</time>
      </trkpt>
      <trkpt lat="47.90311" lon="7.08056">
        <ele>1346</ele>
        <time>2023-05-06T16:40:28Z</time>
      </trkpt>
      <trkpt lat="47.90306" lon="7.08013">
        <ele>1347</ele>
        <time>2023-05-06T16:40:59Z</time>
      </trkpt>
      <trkpt lat="47.90298" lon="7.07991">
        <ele>1348</ele>
        <time>2023-05-06T16:41:19Z</time>
      </trkpt>
      <trkpt lat="47.90281" lon="7.07987">
        <ele>1349</ele>
        <time>2023-05-06T16:41:41Z</time>
      </trkpt>
      <trkpt lat="47.90275" lon="7.07981">
        <ele>1349</ele>
        <time>2023-05-06T16:41:53Z</time>
      </trkpt>
      <trkpt lat="47.90271" lon="7.07979">
        <ele>1349</ele>
        <time>2023-05-06T16:42:10Z</time>
      </trkpt>
      <trkpt lat="47.90266" lon="7.07987">
        <ele>1349</ele>
        <time>2023-05-06T16:42:18Z</time>
      </trkpt>
      <trkpt lat="47.90261" lon="7.07992">
        <ele>1350</ele>
        <time>2023-05-06T16:42:26Z</time>
      </trkpt>
      <trkpt lat="47.90258" lon="7.07998">
        <ele>1350</ele>
        <time>2023-05-06T16:42:42Z</time>
      </trkpt>
      <trkpt lat="47.90265" lon="7.08004">
        <ele>1350</ele>
        <time>2023-05-06T16:43:00Z</time>
      </trkpt>
      <trkpt lat="47.90262" lon="7.08001">
        <ele>1349</ele>
        <time>2023-05-06T16:43:50Z</time>
      </trkpt>
      <trkpt lat="47.90261" lon="7.07994">
        <ele>1350</ele>
        <time>2023-05-06T16:43:58Z</time>
      </trkpt>
    </trkseg>
  </trk>
</gpx>